[[{"header":{"parameterUnit":"m.s-1","parameterCategory":1,"la1":30.6,"la2":28.766,"lo1":-90.7593,"lo2":-88.6598,"dx":0.0162,"dy":0.0183,"nx":116,"ny":114,"refTime":"2023-01-08T06:00:00:Z","depth":0,"parameterNumber":2,"parameterNumberName":"U-component_of_WINDS"},"data":[0.0,0.0,0.0,0.0,0.0,0.0,0.0,0.0,0.0,0.0,0.0,0.0,0.0,0.0,0.0,0.0,0.0,0.0,0.0,0.0,0.0,0.0,0.0,0.0,0.0,0.0,0.0,0.0,0.0,0.0,0.0,0.0,0.0,0.0,0.0,0.0,0.0,0.0,0.0,0.0,0.0,0.0,0.0,0.0,0.0,0.0,0.0,0.0,0.0,0.0,0.0,0.0,0.0,0.0,0.0,0.0,0.0,0.0,0.0,0.0,0.0,0.0,0.0,0.0,0.0,0.0,0.0,0.0,0.0,0.0,0.0,0.0,0.0,0.0,0.0,0.0,0.0,0.0,0.0,0.0,0.0,0.0,0.0,0.0,0.0,0.0,0.0,0.0,0.0,0.0,0.0,0.0,0.0,0.0,0.0,0.0,0.0,0.0,0.0,0.0,0.0,0.0,0.0,0.0,0.0,0.0,0.0,0.0,0.0,0.0,0.0,0.0,0.0,0.0,0.0,0.0,0.0,0.0,0.0,0.0,0.0,0.0,0.0,0.0,0.0,0.0,0.0,0.0,0.0,0.0,0.0,0.0,0.0,0.0,0.0,0.0,0.0,0.0,0.0,0.0,0.0,0.0,0.0,0.0,0.0,0.0,0.0,0.0,0.0,0.0,0.0,0.0,0.0,0.0,0.0,0.0,0.0,0.0,0.0,0.0,0.0,0.0,0.0,0.0,0.0,0.0,0.0,0.0,0.0,0.0,0.0,0.0,0.0,0.0,0.0,0.0,0.0,0.0,0.0,0.0,0.0,0.0,0.0,0.0,0.0,0.0,0.0,0.0,0.0,0.0,0.0,0.0,0.0,0.0,0.0,0.0,0.0,0.0,0.0,0.0,0.0,0.0,0.0,0.0,0.0,0.0,0.0,0.0,0.0,0.0,0.0,0.0,0.0,0.0,0.0,0.0,0.0,0.0,0.0,0.0,0.0,0.0,0.0,0.0,0.0,0.0,0.0,0.0,0.0,0.0,0.0,0.0,0.0,0.0,0.0,0.0,0.0,0.0,0.0,0.0,0.0,0.0,0.0,0.0,0.0,0.0,0.0,0.0,0.0,0.0,0.0,0.0,0.0,0.0,0.0,0.0,0.0,0.0,0.0,0.0,0.0,0.0,0.0,0.0,0.0,0.0,0.0,0.0,0.0,0.0,0.0,0.0,0.0,0.0,0.0,0.0,0.0,0.0,0.0,0.0,0.0,0.0,0.0,0.0,0.0,0.0,0.0,0.0,0.0,0.0,0.0,0.0,0.0,0.0,0.0,0.0,0.0,0.0,0.0,0.0,0.0,0.0,0.0,0.0,0.0,0.0,0.0,0.0,0.0,0.0,0.0,0.0,0.0,0.0,0.0,0.0,0.0,0.0,0.0,0.0,0.0,0.0,0.0,0.0,0.0,0.0,0.0,0.0,0.0,0.0,0.0,0.0,0.0,0.0,0.0,0.0,0.0,0.0,0.0,0.0,0.0,0.0,0.0,0.0,0.0,0.0,0.0,0.0,0.0,0.0,0.0,0.0,0.0,0.0,0.0,0.0,0.0,0.0,0.0,0.0,0.0,0.0,0.0,0.0,0.0,0.0,0.0,0.0,0.0,0.0,0.0,0.0,0.0,0.0,0.0,0.0,0.0,0.0,0.0,0.0,0.0,0.0,0.0,0.0,0.0,0.0,0.0,0.0,0.0,0.0,0.0,0.0,0.0,0.0,0.0,0.0,0.0,0.0,0.0,0.0,0.0,0.0,0.0,0.0,0.0,0.0,0.0,0.0,0.0,0.0,0.0,0.0,0.0,0.0,0.0,0.0,0.0,0.0,0.0,0.0,0.0,0.0,0.0,0.0,0.0,0.0,0.0,0.0,0.0,0.0,0.0,0.0,0.0,0.0,0.0,0.0,0.0,0.0,0.0,0.0,0.0,0.0,0.0,0.0,0.0,0.0,0.0,0.0,0.0,0.0,0.0,0.0,0.0,0.0,0.0,0.0,0.0,0.0,0.0,0.0,0.0,0.0,0.0,0.0,0.0,0.0,0.0,0.0,0.0,0.0,0.0,0.0,0.0,0.0,0.0,0.0,0.0,0.0,0.0,0.0,0.0,0.0,0.0,0.0,0.0,0.0,0.0,0.0,0.0,0.0,0.0,0.0,0.0,0.0,0.0,0.0,0.0,0.0,0.0,0.0,0.0,0.0,0.0,0.0,0.0,0.0,0.0,0.0,0.0,0.0,0.0,0.0,0.0,0.0,0.0,0.0,0.0,0.0,0.0,0.0,0.0,0.0,0.0,0.0,0.0,0.0,0.0,0.0,0.0,0.0,0.0,0.0,0.0,0.0,0.0,0.0,0.0,0.0,0.0,0.0,0.0,0.0,0.0,0.0,0.0,0.0,0.0,0.0,0.0,0.0,0.0,0.0,0.0,0.0,0.0,0.0,0.0,0.0,0.0,0.0,0.0,0.0,0.0,0.0,0.0,0.0,0.0,0.0,0.0,0.0,0.0,0.0,0.0,0.0,0.0,0.0,0.0,0.0,0.0,0.0,0.0,0.0,0.0,0.0,0.0,0.0,0.0,0.0,0.0,0.0,0.0,0.0,0.0,0.0,0.0,0.0,0.0,0.0,0.0,0.0,0.0,0.0,0.0,0.0,0.0,0.0,0.0,0.0,0.0,0.0,0.0,0.0,0.0,0.0,0.0,0.0,0.0,0.0,0.0,0.0,0.0,0.0,0.0,0.0,0.0,0.0,0.0,0.0,0.0,0.0,0.0,0.0,0.0,0.0,0.0,0.0,0.0,0.0,0.0,0.0,0.0,0.0,0.0,0.0,0.0,0.0,0.0,0.0,0.0,0.0,0.0,0.0,0.0,0.0,0.0,0.0,0.0,0.0,0.0,0.0,0.0,0.0,0.0,0.0,0.0,0.0,0.0,0.0,0.0,0.0,0.0,0.0,0.0,0.0,0.0,0.0,0.0,0.0,0.0,0.0,0.0,0.0,0.0,0.0,0.0,0.0,0.0,0.0,0.0,0.0,0.0,0.0,0.0,0.0,0.0,0.0,0.0,0.0,0.0,0.0,0.0,0.0,0.0,0.0,0.0,0.0,0.0,0.0,0.0,0.0,0.0,0.0,0.0,0.0,0.0,0.0,0.0,0.0,0.0,0.0,0.0,0.0,0.0,0.0,0.0,0.0,0.0,0.0,0.0,0.0,0.0,0.0,0.0,0.0,0.0,0.0,0.0,0.0,0.0,0.0,0.0,0.0,0.0,0.0,0.0,0.0,0.0,0.0,0.0,0.0,0.0,0.0,0.0,0.0,0.0,0.0,0.0,0.0,0.0,0.0,0.0,0.0,0.0,0.0,0.0,0.0,0.0,0.0,0.0,0.0,0.0,0.0,0.0,0.0,0.0,0.0,0.0,0.0,0.0,0.0,0.0,0.0,0.0,0.0,0.0,0.0,0.0,0.0,0.0,0.0,0.0,0.0,0.0,0.0,0.0,0.0,0.0,0.0,0.0,0.0,0.0,0.0,0.0,0.0,0.0,0.0,0.0,0.0,0.0,0.0,0.0,0.0,0.0,0.0,0.0,0.0,0.0,0.0,0.0,0.0,0.0,0.0,0.0,0.0,0.0,0.0,0.0,0.0,0.0,0.0,0.0,0.0,0.0,0.0,0.0,0.0,0.0,0.0,0.0,0.0,0.0,0.0,0.0,0.0,0.0,0.0,0.0,0.0,0.0,0.0,0.0,0.0,0.0,0.0,0.0,0.0,0.0,0.0,0.0,0.0,0.0,0.0,0.0,0.0,0.0,0.0,0.0,0.0,0.0,0.0,0.0,0.0,0.0,0.0,0.0,0.0,0.0,0.0,0.0,0.0,0.0,0.0,0.0,0.0,0.0,0.0,0.0,0.0,0.0,0.0,0.0,0.0,0.0,0.0,0.0,0.0,0.0,0.0,0.0,0.0,0.0,0.0,0.0,0.0,0.0,0.0,0.0,0.0,0.0,0.0,0.0,0.0,0.0,0.0,0.0,0.0,0.0,0.0,0.0,0.0,0.0,0.0,0.0,0.0,0.0,0.0,0.0,0.0,0.0,0.0,0.0,0.0,0.0,0.0,0.0,0.0,0.0,0.0,0.0,0.0,0.0,0.0,0.0,0.0,0.0,0.0,0.0,0.0,0.0,0.0,0.0,0.0,0.0,0.0,0.0,0.0,0.0,0.0,0.0,0.0,0.0,0.0,0.0,0.0,0.0,0.0,0.0,0.0,0.0,0.0,0.0,0.0,0.0,0.0,0.0,0.0,0.0,0.0,0.0,0.0,0.0,0.0,0.0,0.0,0.0,0.0,0.0,0.0,0.0,0.0,0.0,0.0,0.0,0.0,0.0,0.0,0.0,0.0,0.0,0.0,0.0,0.0,0.0,0.0,0.0,0.0,0.0,0.0,0.0,0.0,0.0,0.0,0.0,0.0,0.0,0.0,0.0,0.0,0.0,0.0,0.0,0.0,0.0,0.0,0.0,0.0,0.0,0.0,0.0,0.0,0.0,0.0,0.0,0.0,0.0,0.0,0.0,0.0,0.0,0.0,0.0,0.0,0.0,0.0,0.0,0.0,0.0,0.0,0.0,0.0,0.0,0.0,0.0,0.0,0.0,0.0,0.0,0.0,0.0,0.0,0.0,0.0,0.0,0.0,0.0,0.0,0.0,0.0,0.0,0.0,0.0,0.0,0.0,0.0,0.0,0.0,0.0,0.0,0.0,0.0,0.0,0.0,0.0,0.0,0.0,0.0,0.0,0.0,0.0,0.0,0.0,0.0,0.0,0.0,0.0,0.0,0.0,0.0,0.0,0.0,0.0,0.0,0.0,0.0,0.0,0.0,0.0,0.0,0.0,0.0,0.0,0.0,0.0,0.0,0.0,0.0,0.0,0.0,0.0,0.0,0.0,0.0,0.0,0.0,0.0,0.0,0.0,0.0,0.0,0.0,0.0,0.0,0.0,0.0,0.0,0.0,0.0,0.0,0.0,0.0,0.0,0.0,0.0,0.0,0.0,0.0,0.0,0.0,0.0,0.0,0.0,0.0,0.0,0.0,0.0,0.0,0.0,0.0,0.0,0.0,0.0,0.0,0.0,0.0,0.0,0.0,0.0,0.0,0.0,0.0,0.0,0.0,0.0,0.0,0.0,0.0,0.0,0.0,0.0,0.0,0.0,0.0,0.0,0.0,0.0,0.0,0.0,0.0,0.0,0.0,0.0,0.0,0.0,0.0,0.0,0.0,0.0,0.0,0.0,0.0,0.0,0.0,0.0,0.0,0.0,0.0,0.0,0.0,0.0,0.0,0.0,0.0,0.0,0.0,0.0,0.0,0.0,0.0,0.0,0.0,0.0,0.0,0.0,0.0,0.0,0.0,0.0,0.0,0.0,0.0,0.0,0.0,0.0,0.0,0.0,0.0,0.0,0.0,0.0,0.0,0.0,0.0,0.0,0.0,0.0,0.0,0.0,0.0,0.0,0.0,0.0,0.0,0.0,0.0,0.0,0.0,0.0,0.0,0.0,0.0,0.0,0.0,0.0,0.0,0.0,0.0,0.0,0.0,0.0,0.0,0.0,0.0,0.0,0.0,0.0,0.0,0.0,0.0,0.0,0.0,0.0,0.0,0.0,0.0,0.0,0.0,0.0,0.0,0.0,0.0,0.0,0.0,0.0,0.0,0.0,0.0,0.0,0.0,0.0,0.0,0.0,0.0,0.0,0.0,0.0,0.0,0.0,0.0,0.0,0.0,0.0,0.0,0.0,0.0,0.0,0.0,0.0,0.0,0.0,0.0,0.0,0.0,0.0,0.0,0.0,0.0,0.0,0.0,0.0,0.0,0.0,0.0,0.0,0.0,0.0,0.0,0.0,0.0,0.0,0.0,0.0,0.0,0.0,0.0,0.0,0.0,0.0,0.0,0.0,0.0,0.0,0.0,0.0,0.0,0.0,0.0,0.0,0.0,0.0,0.0,0.0,0.0,0.0,0.0,0.0,0.0,0.0,0.0,0.0,0.0,0.0,0.0,0.0,0.0,0.0,0.0,0.0,0.0,0.0,0.0,-5.5175,0.0,0.0,0.0,0.0,0.0,0.0,0.0,0.0,0.0,0.0,0.0,0.0,0.0,0.0,0.0,0.0,0.0,0.0,0.0,0.0,0.0,0.0,0.0,0.0,-2.538,-2.5633,-2.5906,-2.5906,0.0,0.0,0.0,0.0,0.0,0.0,0.0,0.0,0.0,0.0,-2.9917,-3.1605,-3.355,-3.5606,-3.487,-3.4527,-3.4549,0.0,0.0,0.0,0.0,0.0,0.0,0.0,0.0,0.0,0.0,0.0,0.0,0.0,0.0,0.0,0.0,0.0,0.0,0.0,0.0,0.0,0.0,0.0,0.0,0.0,0.0,0.0,0.0,0.0,0.0,0.0,0.0,0.0,0.0,0.0,0.0,0.0,0.0,0.0,0.0,0.0,0.0,0.0,0.0,0.0,0.0,0.0,0.0,0.0,0.0,0.0,0.0,0.0,0.0,0.0,0.0,0.0,0.0,0.0,0.0,0.0,0.0,0.0,0.0,0.0,0.0,0.0,0.0,0.0,0.0,0.0,-5.6393,0.0,0.0,0.0,0.0,0.0,0.0,0.0,0.0,0.0,0.0,0.0,0.0,0.0,0.0,0.0,0.0,0.0,0.0,0.0,0.0,0.0,-2.5232,-2.5317,-2.5743,-2.6062,-2.6147,-2.6147,-2.6147,-2.6147,-2.6081,0.0,0.0,0.0,0.0,0.0,0.0,0.0,0.0,-3.3824,-3.6253,-3.8039,-3.8604,-3.8384,-3.7636,-3.6117,0.0,0.0,0.0,0.0,0.0,0.0,0.0,0.0,0.0,0.0,0.0,0.0,0.0,0.0,0.0,0.0,0.0,0.0,0.0,0.0,0.0,0.0,0.0,0.0,0.0,0.0,0.0,0.0,0.0,0.0,0.0,0.0,0.0,0.0,0.0,0.0,0.0,0.0,0.0,0.0,0.0,0.0,0.0,0.0,0.0,0.0,0.0,0.0,0.0,0.0,0.0,0.0,0.0,0.0,0.0,0.0,0.0,0.0,0.0,0.0,0.0,0.0,0.0,-5.8626,-5.9268,-5.9438,-6.0723,-6.1095,-6.0622,-5.9404,-5.8998,-5.9167,-5.8524,0.0,0.0,0.0,0.0,0.0,0.0,0.0,0.0,0.0,0.0,0.0,0.0,0.0,0.0,0.0,0.0,0.0,0.0,0.0,-2.5392,-2.572,-2.6277,-2.6689,-2.7042,-2.713,-2.713,-2.713,-2.6758,0.0,0.0,0.0,0.0,0.0,0.0,0.0,0.0,0.0,-3.9535,-4.0787,-4.1261,-4.1707,-4.1951,-3.9183,0.0,0.0,0.0,0.0,0.0,0.0,0.0,0.0,0.0,0.0,0.0,0.0,0.0,0.0,0.0,0.0,0.0,0.0,0.0,0.0,0.0,0.0,0.0,0.0,0.0,0.0,0.0,0.0,0.0,0.0,0.0,0.0,0.0,0.0,0.0,0.0,0.0,0.0,0.0,0.0,0.0,0.0,0.0,-5.071,-5.0913,0.0,0.0,0.0,0.0,0.0,0.0,0.0,0.0,0.0,0.0,0.0,0.0,0.0,-5.7273,-5.8558,-5.866,-5.9032,-5.9674,-5.9877,-6.0317,-6.0994,-6.1231,-6.1941,-6.3057,-6.2854,0.0,-5.9945,-5.9844,0.0,0.0,0.0,0.0,0.0,0.0,0.0,0.0,0.0,0.0,0.0,0.0,0.0,0.0,0.0,0.0,0.0,0.0,0.0,0.0,0.0,-2.7377,-2.8061,-2.8506,-2.9324,-2.9418,-2.8247,-2.8545,0.0,0.0,0.0,0.0,0.0,0.0,0.0,0.0,-3.9651,-4.1302,-4.2252,-4.2968,-4.3273,-4.3335,-4.2385,-4.0703,-3.8559,-3.7636,0.0,0.0,0.0,0.0,0.0,0.0,0.0,0.0,0.0,0.0,0.0,0.0,0.0,0.0,0.0,0.0,0.0,0.0,0.0,0.0,0.0,0.0,0.0,0.0,0.0,0.0,0.0,0.0,0.0,0.0,0.0,0.0,0.0,0.0,0.0,0.0,0.0,0.0,0.0,-5.0608,-5.1522,-5.2401,-5.2503,-5.3112,0.0,0.0,0.0,0.0,0.0,0.0,0.0,0.0,0.0,-5.8051,-5.8457,-5.9201,-6.0283,-6.0283,-6.0655,-6.14,-6.1806,-6.2212,-6.2584,-6.3835,-6.4512,-6.4749,-6.5189,-6.4546,-6.3226,-6.2787,-6.2618,-6.2719,0.0,0.0,0.0,0.0,-6.3768,-6.3869,0.0,0.0,0.0,0.0,0.0,0.0,0.0,0.0,0.0,0.0,0.0,0.0,-2.7572,-2.8769,-2.9685,-3.0188,-3.1188,-3.1202,-2.9628,-3.0184,0.0,0.0,0.0,0.0,0.0,0.0,0.0,0.0,-4.1597,-4.2345,-4.3451,-4.4184,-4.4441,-4.4501,-4.5098,-4.3796,-4.1028,-3.9997,-3.8857,-3.7663,0.0,0.0,0.0,0.0,0.0,0.0,0.0,0.0,0.0,0.0,0.0,0.0,0.0,0.0,0.0,0.0,0.0,0.0,0.0,0.0,0.0,0.0,0.0,0.0,0.0,0.0,0.0,0.0,0.0,0.0,0.0,0.0,0.0,0.0,0.0,0.0,0.0,-5.1961,-5.2638,-5.416,-5.4194,-5.4871,0.0,0.0,0.0,0.0,0.0,0.0,-5.7645,-5.8896,-5.9607,-5.9607,-6.0317,-6.1061,-6.1873,-6.2042,-6.2516,-6.3226,-6.4005,-6.4444,-6.4681,-6.6339,-6.688,-6.6576,-6.7151,-6.7083,-6.6474,-6.5155,-6.4613,-6.4647,-6.5189,-6.5425,-6.5425,-6.5425,-6.5527,-6.5797,0.0,0.0,0.0,0.0,0.0,0.0,0.0,0.0,0.0,0.0,0.0,-2.8401,-2.8657,-3.0192,-3.1511,-3.2197,-3.1826,-3.152,-3.1476,-3.114,-3.1517,-3.2883,0.0,0.0,0.0,0.0,0.0,-4.1324,-4.1597,-4.277,-4.4754,-4.4989,-4.5597,-4.6374,-4.6944,-4.5885,-4.3552,-4.2928,-4.1978,-4.073,-3.8993,0.0,0.0,0.0,0.0,0.0,0.0,0.0,0.0,0.0,0.0,0.0,0.0,0.0,0.0,0.0,0.0,0.0,0.0,0.0,0.0,0.0,0.0,0.0,0.0,0.0,0.0,0.0,0.0,0.0,0.0,0.0,0.0,0.0,0.0,0.0,0.0,0.0,0.0,-5.6461,-5.6021,0.0,0.0,0.0,0.0,-5.8795,-5.8896,-5.9201,-5.9911,-6.0723,-6.1197,-6.1197,-6.1907,-6.2651,-6.3396,-6.4072,-6.4783,-6.5527,-6.6271,-6.7015,-6.7692,-6.7793,-6.8233,-6.8944,-6.8977,-6.8977,-6.8707,-6.5797,-6.4613,-6.4613,-6.4647,-6.4647,-6.4647,-6.4647,-6.5087,-6.5797,0.0,0.0,0.0,-2.5316,-2.484,-2.455,-2.455,-2.4943,-2.544,-2.602,-2.7285,-2.8721,-3.0034,-3.1219,-3.2332,-3.3224,-3.4022,-3.4487,-3.417,-3.3967,-3.3823,-3.3848,0.0,0.0,0.0,0.0,-4.2035,-4.352,-4.4204,-4.4838,-4.5315,-4.6384,-4.6974,-4.7079,-4.7676,-4.7459,-4.6591,-4.5614,-4.4655,-4.376,-4.3092,-4.1699,0.0,0.0,0.0,0.0,0.0,0.0,0.0,0.0,0.0,0.0,0.0,0.0,0.0,0.0,0.0,0.0,0.0,0.0,0.0,0.0,0.0,0.0,0.0,0.0,0.0,0.0,0.0,0.0,0.0,0.0,0.0,0.0,0.0,0.0,0.0,0.0,0.0,-5.734,-5.7273,0.0,-5.9877,-5.937,-5.9539,-6.1061,-6.0757,-6.0791,-6.1535,-6.2313,-6.2956,-6.3396,-6.414,-6.5087,-6.6339,-6.6576,-6.7117,-6.7895,-6.8166,-6.8436,-6.8707,-6.9147,-6.9519,-6.9789,-6.9789,-6.9789,-6.9688,-6.8132,-6.7489,-6.7489,-6.7489,-6.7489,-6.7489,-6.7489,-6.7963,-6.8673,0.0,-2.6082,0.0,-2.5109,-2.4736,-2.4592,-2.4757,-2.515,-2.5771,-2.6682,-2.8094,-2.9671,-3.123,-3.2533,-3.3726,-3.4687,-3.5558,-3.607,-3.573,-3.5708,-3.5648,0.0,0.0,0.0,0.0,-4.2631,-4.3572,-4.4722,-4.5332,-4.584,-4.6405,-4.7584,-4.8292,-4.8462,-4.9085,-4.9309,-4.9035,-4.8758,-4.7799,-4.6546,-4.6509,-4.5269,-4.3591,0.0,0.0,0.0,0.0,0.0,0.0,0.0,0.0,0.0,0.0,0.0,0.0,0.0,0.0,0.0,0.0,0.0,0.0,0.0,0.0,0.0,0.0,0.0,0.0,0.0,0.0,0.0,0.0,0.0,0.0,0.0,0.0,0.0,0.0,0.0,-5.7002,-5.8457,-5.8863,-5.9742,-6.1501,-6.1197,-6.14,-6.2685,-6.255,-6.2753,-6.3463,-6.4444,-6.5222,-6.5696,-6.644,-6.732,-6.8301,-6.8538,-6.8944,-6.9451,-6.9722,-6.9857,-6.9857,-7.0331,-7.0567,-7.0567,-7.0567,-7.0567,-7.0534,-7.0297,-7.0195,-7.0128,-6.9383,-6.9248,-6.9451,-6.9451,-7.0094,-7.1041,-2.6061,-2.5875,-2.5606,-2.4695,-2.455,-2.4695,-2.5171,-2.5606,-2.6227,-2.7253,-2.9458,-3.1294,-3.2233,-3.4004,-3.5583,-3.6566,-3.6238,-3.5976,-3.6092,-3.5998,-3.6883,0.0,0.0,0.0,-4.3049,-4.3075,-4.365,-4.4774,-4.4826,-4.58,-4.7845,-4.8744,-4.9676,-5.0497,-5.144,-5.1481,-5.0944,-5.2152,-5.1389,-4.9257,-4.9068,-4.8617,-4.7921,0.0,0.0,0.0,0.0,0.0,0.0,0.0,0.0,0.0,0.0,0.0,0.0,0.0,0.0,0.0,0.0,0.0,0.0,0.0,0.0,0.0,0.0,0.0,0.0,0.0,0.0,0.0,0.0,0.0,0.0,0.0,0.0,0.0,-5.6833,-5.7476,-5.8524,-6.0013,-6.0892,-6.167,-6.2381,-6.2482,-6.2821,-6.3565,-6.4309,-6.5019,-6.5764,-6.7151,-6.7963,-6.7963,-6.8741,-6.9147,-6.918,-6.9857,-7.0229,-7.0229,-7.0973,-7.1312,-7.1312,-7.1312,-7.1312,-7.1312,-7.1312,-7.1312,-7.1379,-7.209,-7.236,-7.2157,-7.006,-6.9654,-7.0297,-7.0263,-7.1176,-7.2496,-2.6061,-2.5875,-2.5606,-2.4695,-2.455,-2.4695,-2.5171,-2.5875,-2.6796,-2.7923,-2.9748,-3.1272,-3.2448,-3.3833,-3.4949,-3.5561,-3.5823,-3.6551,-3.7675,-3.7044,-3.7559,0.0,0.0,0.0,-4.3624,-4.4487,-4.5271,-4.6003,-4.7066,-4.8047,-4.9033,-5.0201,-5.081,-5.1089,-5.1629,-5.2196,-5.2938,-5.4023,-5.4371,-5.4038,-5.304,-5.2162,-5.1364,0.0,0.0,0.0,0.0,0.0,0.0,0.0,0.0,0.0,0.0,0.0,0.0,0.0,0.0,0.0,0.0,0.0,0.0,0.0,0.0,0.0,0.0,0.0,0.0,0.0,0.0,0.0,0.0,0.0,0.0,0.0,0.0,-5.7577,-5.7577,-5.8693,-6.0047,-6.1569,-6.2448,-6.3193,-6.3903,-6.4478,-6.5087,-6.5865,-6.6576,-6.732,-6.8132,-6.8538,-6.9011,-6.9553,-6.9755,-7.0161,-7.0703,-7.0906,-7.1007,-7.1007,-7.121,-7.1312,-7.1312,-7.1312,-7.1312,-7.1312,-7.1312,-7.1312,-7.1345,-7.1548,-7.1616,-7.165,-7.209,-7.2394,-7.2529,-7.1988,-7.2056,-7.2428,-2.631,-2.6165,-2.5896,-2.4985,-2.4819,-2.4985,-2.544,-2.6103,-2.7066,-2.846,-3.0028,-3.1466,-3.2857,-3.4202,-3.5185,-3.5801,-3.6282,-3.7333,-3.9078,-3.9661,0.0,0.0,0.0,-4.4171,-4.4617,-4.5741,-4.663,-4.7205,-4.8589,-4.9456,-5.0127,-5.107,-5.1469,-5.1442,-5.2233,-5.3131,-5.4451,-5.5517,-5.6482,-5.7152,-5.6395,-5.5171,-5.3929,-5.3468,-5.2144,-5.0513,-5.0328,-4.9743,-4.9066,-4.9066,0.0,0.0,0.0,0.0,0.0,0.0,0.0,0.0,0.0,0.0,0.0,0.0,0.0,0.0,0.0,0.0,0.0,0.0,0.0,0.0,0.0,0.0,0.0,0.0,-5.8896,-5.9438,-5.9742,-6.052,-6.1501,-6.2719,-6.4072,-6.5053,-6.5493,-6.6474,-6.7286,-6.7726,-6.8436,-6.9079,-6.9553,-6.9857,-7.0229,-7.0635,-7.0669,-7.0872,-7.1312,-7.1312,-7.1312,-7.1312,-7.1312,-7.1312,-7.1312,-7.1312,-7.1312,-7.1345,-7.165,-7.1751,-7.1819,-7.2428,-7.2699,0.0,0.0,0.0,0.0,0.0,-7.3308,-7.3375,-2.6662,-2.6579,-2.6289,-2.5399,-2.5275,-2.544,-2.5813,-2.631,-2.7232,-2.888,-3.0202,-3.1699,-3.3355,-3.4653,-3.5743,-3.6832,-3.7339,-3.835,-4.019,-4.3008,0.0,-4.3765,-4.5572,-4.6238,-4.5741,-4.6839,-4.7702,-4.8277,-4.9348,-5.0159,-5.0681,-5.1266,-5.1629,-5.1723,-5.2895,-5.4229,-5.5409,-5.6509,-5.7656,-5.867,-5.867,-5.7562,-5.5715,-5.3868,-5.2698,-5.1867,-5.0605,-5.0082,-5.002,-5.002,0.0,0.0,0.0,0.0,0.0,0.0,0.0,0.0,0.0,0.0,0.0,0.0,0.0,0.0,0.0,0.0,0.0,0.0,0.0,0.0,0.0,0.0,0.0,0.0,-6.0622,-6.1873,-6.2753,-6.2888,-6.3125,-6.3802,-6.5764,-6.7083,-6.7083,-6.8368,-6.9214,-6.9214,-6.9891,-7.0297,-7.0297,0.0,0.0,0.0,0.0,-7.1312,-7.1312,-7.1312,-7.1312,-7.1312,-7.1312,-7.1345,-7.1447,-7.1447,-7.1481,-7.1582,-7.2225,-7.2529,-7.2631,-7.395,-7.4492,-7.4322,-7.2496,-7.2157,-7.28,-7.4119,-7.4627,-7.4695,-2.6662,-2.6579,-2.6289,-2.5399,-2.5523,-2.5792,-2.5875,-2.6579,-2.771,-2.9363,-3.0118,-3.1634,-3.4352,-3.4471,-3.54,-3.7973,-3.832,-3.922,-4.1423,0.0,-4.3865,-4.3765,-4.5572,-4.6421,-4.6316,-4.744,-4.8303,-4.8904,-4.9557,-4.9949,-5.0054,-5.0777,-5.1017,-5.1136,-5.2729,-5.4229,-5.5409,-5.6509,-5.7384,-5.7962,-5.7962,-5.7715,-5.7254,-5.633,-5.5222,-5.4022,-5.3221,-5.2575,-5.2144,-5.2144,-5.1405,-5.0605,-5.1128,-4.9989,0.0,0.0,0.0,0.0,0.0,0.0,0.0,0.0,0.0,0.0,0.0,0.0,0.0,0.0,0.0,0.0,0.0,0.0,0.0,-6.1603,-6.2482,-6.3768,-6.5696,-6.5967,-6.6,-6.617,-6.7658,-6.8673,-6.8673,-6.9451,-6.9992,-6.9992,-7.0669,-7.1109,-7.1109,-7.1244,-7.1312,-7.1312,-7.1312,-7.1312,-7.1312,-7.1312,-7.1312,-7.1312,0.0,0.0,-7.2191,-7.2191,-7.2496,-7.3071,-7.3206,-7.3274,-7.3308,-7.3578,-7.3713,-7.3781,-7.4559,-7.4593,-7.4221,-7.4492,-7.4627,-7.4627,-2.6951,-2.6724,-2.6351,-2.5668,-2.573,-2.5875,-2.5875,-2.6662,-2.7752,-2.9195,-2.995,-3.1355,-3.3952,-3.412,-3.5246,-3.7965,-3.9753,-4.1225,0.0,-4.4068,-4.4976,-4.4694,-4.6082,-4.6917,-4.6917,-4.8303,-4.9191,-4.9479,-5.0054,-5.0185,-4.9897,-5.0327,-5.0891,-5.1836,-5.3332,-5.4967,-5.6769,-5.7962,-5.8746,-5.9285,-5.9285,-5.907,-5.8639,-5.7285,-5.633,-5.5622,-5.4607,-5.4022,-5.3622,-5.2944,-5.2698,-5.2698,-5.2698,-5.199,-5.1036,0.0,0.0,0.0,0.0,0.0,0.0,0.0,0.0,0.0,0.0,0.0,0.0,0.0,0.0,-5.9099,0.0,0.0,-6.2076,-6.2821,-6.4208,-6.5561,-6.6643,-6.7793,-6.8368,-6.7996,-6.8944,-6.9654,-6.9654,-7.0331,-7.0737,-7.0737,-7.1109,-7.1312,-7.1312,-7.1312,-7.1312,-7.1312,-7.1312,-7.1312,-7.1312,-7.1684,-7.1853,-7.1853,-7.2225,-7.2597,-7.2935,-7.2935,-7.3138,-7.351,-7.3883,-7.4052,-7.4086,-7.4458,-7.4593,-7.4661,-7.5405,-7.5473,-7.51,-7.4762,-7.51,-7.5743,-2.7138,-2.6744,-2.631,-2.5937,-2.602,-2.6082,-2.5896,-2.6662,-2.7668,-2.8781,-2.9572,-3.0965,-3.3436,-3.3826,-3.5061,-3.7878,-4.0906,0.0,0.0,-4.5029,-4.6003,-4.5637,-4.663,-4.7179,-4.7179,-4.8852,-4.974,-4.974,-5.0315,-5.0368,-4.9871,-4.9917,-5.0945,-5.2792,-5.399,-5.5742,-5.7948,-5.9154,-5.9901,-6.0393,-6.0393,-6.0086,-5.9408,-5.7777,-5.7008,-5.6577,-5.5222,-5.473,-5.4576,-5.3468,-5.3837,-5.4668,-5.4237,-5.4022,-5.3683,-5.2452,-5.2021,0.0,0.0,0.0,0.0,0.0,0.0,0.0,0.0,0.0,-5.8389,-5.8693,-5.9708,-6.0791,-6.1603,-6.255,-6.3463,-6.4072,-6.5899,-6.732,-6.7455,-6.9045,-7.0026,-6.9586,-7.006,-7.0398,-7.0398,-7.0973,-7.1312,-7.1312,-7.1312,-7.1312,-7.1312,-7.1312,-7.1312,-7.1312,-7.1447,-7.1515,-7.1515,-7.2259,-7.2597,-7.2631,-7.3206,-7.3578,-7.3713,-7.3713,-7.3781,-7.395,-7.4559,-7.483,-7.4864,-7.5439,-7.5709,-7.5709,-7.5879,-7.6014,-7.6048,-7.5337,-7.6014,-7.7333,-2.6724,-2.6268,-2.5937,-2.5896,-2.6558,-2.6827,-2.5999,-2.6662,-2.7593,-2.8504,-2.8557,-3.0067,-3.421,-3.3582,-3.4667,-3.9009,-4.0696,0.0,-4.4375,-4.477,-4.5166,-4.5611,-4.6238,-4.6578,-4.6578,-4.8277,-4.9165,-4.9165,-4.9714,-4.9949,-4.9871,-4.968,-5.0712,-5.2706,-5.4087,-5.5703,-5.7258,-5.8451,-5.8947,-5.9008,-5.9008,-5.8947,-5.8885,-5.8639,-5.7808,-5.6577,-5.5222,-5.473,-5.4699,-5.4545,-5.4607,-5.4822,-5.5315,-5.5068,-5.4453,-5.3714,-5.3067,-5.2476,-5.179,-5.3954,0.0,-5.8369,-5.9268,-5.9911,0.0,0.0,-6.025,-6.1603,-6.2009,-6.2381,-6.3125,-6.4952,-6.6339,-6.644,-6.7793,-6.9079,-6.9722,-7.0026,-7.0398,-7.1007,-7.1142,-7.1176,-7.1176,-7.1278,-7.1312,-7.1312,-7.1312,-7.1312,-7.1312,-7.1312,-7.1312,-7.1312,-7.1954,-7.2293,-7.2293,-7.3003,-7.3375,-7.3375,-7.3443,-7.3849,-7.4492,-7.4492,-7.483,-7.5473,-7.554,-7.5574,-7.5574,-7.5676,-7.5709,-7.5777,-7.6487,-7.7164,-7.7638,-7.6893,-7.7604,-7.8855,-2.6662,-2.6413,-2.6185,-2.5916,-2.6206,-2.633,-2.5937,-2.6662,-2.7489,-2.8131,-2.8439,-2.9763,-3.2855,-3.4583,-3.6331,-3.8417,-4.0308,-4.1716,-4.2683,-4.3676,-4.4356,-4.4591,-4.5506,-4.6133,-4.6473,-4.7519,-4.8068,-4.8068,-4.8616,-4.8904,-4.8904,-4.9364,-5.1107,-5.4035,-5.4825,-5.6602,-5.9075,-5.9521,-5.986,-5.9963,-5.9963,-5.9716,-5.9316,-5.8947,-5.8177,-5.7161,-5.5776,-5.5037,0.0,-5.4268,-5.4391,-5.4853,-5.5499,-5.5499,-5.5161,-5.4514,-5.4114,-5.4171,-5.542,0.0,0.0,0.0,-6.0892,-6.14,-6.1332,-6.1704,-6.2279,-6.2922,-6.37,-6.4546,-6.529,-6.6542,-6.759,0.0,-6.9045,-6.9857,-7.0161,-7.0567,-7.0973,-7.1278,-7.1312,-7.1312,-7.1312,-7.1312,-7.1312,-7.1312,-7.1312,-7.1312,-7.1312,-7.1312,-7.1515,-7.1921,-7.2225,-7.2597,-7.3037,-7.3781,-7.4153,-7.4153,-7.4559,-7.4931,-7.5236,-7.5236,-7.5405,-7.5709,-7.5709,-7.5709,-7.5709,-7.5709,-7.5709,-7.5777,-7.6589,-7.7333,-7.7942,-7.7638,-7.8213,-7.9058,-2.6475,-2.6289,-2.6103,-2.5751,-2.5792,-2.5875,-2.5875,-2.6662,-2.7365,-2.7696,-2.8124,-2.9328,-3.1763,-3.5069,-3.7361,-3.7825,-3.9375,-4.0644,-4.1272,-4.2474,-4.3389,-4.3859,-4.4696,-4.5401,-4.5976,-4.6734,-4.71,-4.71,-4.7675,-4.8041,-4.8198,-4.9044,-5.1135,-5.4203,-5.4677,-5.6496,-5.9173,-5.9173,-5.9368,-5.9758,-5.9758,-5.9451,-5.896,-5.86,-5.7863,-5.7002,-5.6269,-5.5684,-5.5222,-5.473,-5.476,-5.5068,-5.553,-5.5684,-5.553,-5.4699,-5.4576,-5.5348,-5.8029,0.0,0.0,-6.1402,-6.2448,-6.3125,-6.2381,-6.3362,-6.441,-6.441,-6.5425,-6.6474,-6.7015,-6.7895,-6.8741,-6.9316,-7.0026,-7.05,-7.05,-7.0973,-7.1312,-7.1312,-7.1007,-7.1007,-7.1312,-7.1312,-7.1312,-7.1312,-7.1312,-7.1413,-7.1616,-7.1616,-7.1954,-7.2665,-7.2902,-7.3274,-7.3781,-7.4525,-7.4897,-7.4931,-7.5439,-7.5709,-7.5709,-7.5912,-7.6014,-7.6048,-7.6251,-7.6318,-7.6318,-7.6318,-7.6318,-7.642,-7.7198,-7.7841,-7.8314,-7.8517,-7.8923,-7.9329,-2.5999,-2.5564,-2.5275,-2.5254,-2.5606,-2.5875,-2.5875,-2.6662,-2.7262,-2.7282,-2.7473,-2.8733,-3.1778,-3.4502,-3.6645,-3.7756,-3.7978,-3.8945,-4.1167,-4.135,-4.2134,-4.3807,-4.3912,-4.4199,-4.4774,-4.5924,-4.6499,-4.6499,-4.7074,-4.7649,-4.8172,-4.8739,-5.0189,-5.2272,-5.3232,-5.4641,-5.6138,-5.6138,-5.6534,-5.7172,-5.7172,-5.7142,-5.7142,-5.7312,-5.6556,-5.5455,-5.6388,-5.673,-5.67,-5.6669,-5.6207,-5.5653,-5.5684,-5.5684,-5.5438,-5.4145,-5.4206,-5.5441,0.0,0.0,-6.0925,-6.2085,-6.3971,-6.5392,-6.4681,-6.5662,-6.6711,-6.6711,-6.732,-6.7827,-6.7861,-6.9113,-7.0128,-7.0161,-7.0804,-7.1278,-7.1278,-7.1312,-7.1312,-7.1312,-7.0389,-7.017,0.0,-7.1312,-7.1312,-7.1312,-7.1312,-7.1616,-7.2326,-7.236,-7.2699,-7.3443,-7.4153,-7.4559,-7.4593,-7.5303,-7.5676,-7.5676,-7.5676,-7.5709,-7.5743,-7.6521,-7.686,-7.6893,-7.7604,-7.7908,-7.7908,-7.7908,-7.7908,-7.7976,-7.8754,-7.9058,-7.916,-7.987,-8.0141,-8.0175,-2.6434,-2.6227,-2.6123,-2.6123,-2.6248,-2.633,-2.633,-2.6868,-2.7262,-2.7262,-2.8092,0.0,0.0,0.0,0.0,0.0,-3.7665,-3.837,-3.952,-4.0671,-4.1559,-4.216,-4.3258,-4.3964,-4.4147,-4.4931,-4.5323,-4.5323,-4.5924,-4.6499,-4.7048,-4.8449,-5.0023,-5.1892,-5.2963,-5.4245,-5.575,-5.575,-5.6001,-5.6382,-5.6382,-5.6282,-5.6351,-5.6122,-5.6036,-5.6072,0.0,-5.5776,-5.5468,-5.5899,-5.5592,-5.5222,-5.6115,-5.5776,-5.5068,-5.5037,-5.5969,-5.7617,0.0,0.0,-6.2595,-6.3962,-6.5328,-6.6306,-6.5821,-6.669,-6.7523,-6.7523,-6.7175,-6.6868,-6.6868,-6.8192,-6.9194,-6.9194,-7.0411,-7.1312,-7.1312,-7.0699,-7.0203,-7.0203,-6.9283,0.0,0.0,0.0,0.0,-7.1222,-7.1751,-7.2157,-7.2394,-7.2868,-7.3477,-7.4221,-7.3759,-7.4094,-7.5337,-7.4832,-7.4966,-7.5709,-7.6251,-7.6487,-7.6521,-7.7266,-7.7638,-7.7638,-7.7874,-7.7976,-7.7976,-7.7976,-7.7976,-7.8044,-7.8822,-7.9126,-7.9194,-7.9938,-8.0209,-8.0141,-2.662,-2.6434,-2.6372,-2.6537,-2.6579,0.0,0.0,0.0,0.0,0.0,0.0,0.0,0.0,0.0,0.0,0.0,0.0,-3.7586,-3.837,-3.9651,-4.0671,-4.1298,-4.2369,-4.3154,-4.3572,-4.3938,-4.4121,-4.4121,-4.4722,-4.5411,-4.619,-4.7812,-4.9459,-5.1014,-5.2049,-5.3118,-5.4067,-5.4067,-5.4827,-5.6022,-5.5054,-5.5266,-5.6092,-5.4988,-5.4535,0.0,-5.4606,-5.4206,-5.3899,-5.553,-5.5468,-5.4884,-5.5745,-5.5253,-5.4699,-5.63,-5.7397,0.0,0.0,-6.2425,-6.3594,-6.4586,-6.6062,-6.703,-6.6467,-6.7068,-6.759,-6.699,-6.6726,-6.6462,-6.5936,-6.7625,-6.897,-6.8591,-6.9916,-7.0984,-7.0842,-7.0268,-6.9846,-6.9846,-6.895,-6.8441,0.0,0.0,0.0,-7.101,-7.1539,-7.2229,-7.3172,-7.3205,-7.3587,-7.4359,-7.331,-7.3441,-7.5064,-7.434,-7.4705,-7.6149,-7.6657,-7.7029,-7.7299,-7.8044,-7.8382,-7.8416,-7.8653,-7.8788,-7.8788,-7.8788,-7.8788,-7.8822,-7.9329,-7.9498,-7.9566,-8.004,-8.004,-7.9769,-2.6599,-2.6248,-2.6082,0.0,0.0,0.0,0.0,0.0,0.0,0.0,0.0,0.0,0.0,0.0,0.0,0.0,0.0,0.0,-3.7769,-3.837,0.0,-4.1115,-4.1246,-4.1794,-4.2918,-4.2971,-4.2997,-4.3023,-4.3572,-4.4335,-4.5451,-4.7022,-4.8382,-4.9426,-5.0514,-5.1016,-5.1109,-5.1109,-5.2935,-5.5598,-5.3084,-5.3691,-5.5973,-5.3728,-5.2185,-5.1481,-5.2362,-5.2298,-5.2298,0.0,0.0,0.0,-5.4791,-5.4391,-5.4576,-5.7839,-5.8362,-5.8443,-6.0701,-6.2556,-6.3822,-6.4177,-6.6042,-6.7517,-6.6543,-6.6891,-6.6971,-6.5281,-6.5934,-6.6452,0.0,0.0,-6.9055,-6.8172,-6.9452,-7.047,-7.0079,-7.0105,-7.0002,0.0,0.0,0.0,0.0,0.0,0.0,-7.0633,0.0,-7.1908,-7.4337,-7.3471,-7.3209,-7.3904,-7.2842,-7.2737,-7.3904,-7.397,-7.4972,-7.6796,-7.6961,-7.7367,-7.8077,-7.8822,-7.916,-7.9194,-7.9904,-8.0209,-8.0209,-8.0209,-8.0209,-8.0209,-8.0209,-8.0209,-8.0209,-8.0209,-7.9769,-7.9261,0.0,0.0,0.0,0.0,0.0,0.0,0.0,0.0,0.0,0.0,0.0,0.0,0.0,0.0,0.0,0.0,0.0,0.0,-3.7168,-3.7795,0.0,0.0,0.0,0.0,0.0,0.0,0.0,-4.3023,-4.3154,-4.3337,-4.3649,-4.4861,-4.6023,-4.7008,-4.8188,-4.909,-4.9763,-4.9763,-5.0242,-5.096,-5.0272,-5.072,-5.1712,-5.0819,-5.088,-5.1577,-5.1605,-5.2213,0.0,0.0,0.0,0.0,0.0,-5.6053,-5.7008,-5.8393,-5.9008,-5.9935,-6.3099,-6.3324,-6.3163,-6.4993,-6.5563,-6.5563,-6.5059,-6.5287,-6.5473,-6.4993,-6.4191,-6.3539,0.0,0.0,0.0,-6.6727,-6.7931,0.0,-6.9911,-6.9372,0.0,-6.887,0.0,-6.7423,-6.7759,-6.7423,0.0,0.0,-7.0591,-7.1374,-7.2073,-7.2287,-7.2541,-7.2737,-7.1669,-7.1561,-7.2737,-7.4126,-7.5035,-7.5572,-7.7546,-7.8653,-7.8855,-7.96,-7.9938,-7.9938,-8.0107,-8.0209,-8.0209,-8.0209,-8.0209,-8.0209,-8.0209,-8.0209,-8.0209,-8.0209,-8.0073,-7.9938,0.0,0.0,0.0,0.0,0.0,0.0,0.0,0.0,0.0,0.0,0.0,0.0,0.0,0.0,0.0,0.0,0.0,0.0,0.0,-3.6802,0.0,0.0,0.0,0.0,0.0,0.0,0.0,0.0,0.0,0.0,-4.4093,-4.4246,-4.4908,-4.6236,-4.7318,-4.8126,-4.8679,-4.9073,-4.9942,0.0,0.0,-5.0094,-5.1146,-4.9674,-4.9521,-5.018,-5.0354,0.0,0.0,0.0,0.0,-5.522,-5.5592,-5.6142,-5.7095,-5.8762,0.0,-6.0423,-6.323,-6.3399,-6.3051,-6.4409,-6.4674,-6.4513,-6.3626,-6.3539,-6.3547,-6.3154,-6.2525,0.0,0.0,0.0,0.0,0.0,0.0,0.0,-6.9079,-6.883,-6.8714,0.0,-6.8095,0.0,-6.7781,-6.7781,-6.825,0.0,-7.0044,-7.0845,-7.1699,-7.1553,-7.1561,-7.1561,-7.0487,-7.0869,-7.2767,-7.4352,-7.5737,-7.6843,-7.8387,-7.9295,-7.96,-8.0006,-8.0209,-8.0209,0.0,-8.0209,-8.0209,-8.0209,-8.0209,-8.0209,-8.0209,-8.0209,-8.0209,-8.0209,-8.0209,-8.0209,0.0,0.0,0.0,0.0,0.0,0.0,0.0,0.0,0.0,-3.0262,-3.1526,-3.2785,-3.3391,-3.4108,0.0,0.0,0.0,0.0,0.0,0.0,0.0,0.0,0.0,0.0,0.0,0.0,0.0,0.0,0.0,-4.1822,-4.4678,-4.3751,-4.4123,-4.5661,-4.6633,-4.716,-4.7439,-4.8383,-5.0209,-5.2187,-4.9912,-5.0215,-5.16,0.0,-4.8339,-4.8431,0.0,0.0,0.0,0.0,-5.3804,-5.4602,-5.562,-5.5862,-5.6347,-5.9193,-5.9993,-6.0455,-6.2514,-6.2945,-6.2934,-6.323,-6.3535,-6.3609,-6.2347,-6.1922,-6.152,-6.0897,0.0,-6.1532,-6.1009,-6.308,-6.4675,-6.4011,0.0,-6.7981,-6.7896,-6.8489,-6.8889,-6.8889,-6.8889,-6.8889,-6.8889,-6.8889,-6.8889,-6.8889,-6.9308,-7.0188,-7.1745,-7.0933,-7.0375,-7.0375,-6.9503,-7.0391,-7.3134,-7.4293,-7.6266,-7.8892,-7.8994,-7.9465,-8.0209,-8.0107,-8.0107,-8.0175,-8.0107,-8.0107,-8.0209,-8.0209,-8.0209,-8.0209,-8.0209,-8.0209,-8.0209,-8.0209,-8.0209,-8.0209,0.0,0.0,0.0,0.0,0.0,0.0,0.0,0.0,0.0,0.0,-3.372,-3.4463,0.0,0.0,0.0,0.0,0.0,0.0,0.0,0.0,0.0,0.0,0.0,0.0,0.0,0.0,0.0,-4.0043,-3.9834,-4.0035,-4.0623,-4.0412,-4.0935,-4.2027,-4.2614,-4.3863,-4.5461,-4.6075,-4.714,-4.8297,-4.7818,-4.7848,-4.8205,-4.7725,0.0,0.0,0.0,0.0,0.0,0.0,-5.3617,-5.463,-5.6531,-5.761,-5.8577,-6.0147,-6.1009,-6.1834,-6.3537,-6.2467,-6.1278,-6.2598,-6.201,-6.099,-6.0794,-6.0866,0.0,0.0,-6.0886,-6.1101,-6.1563,-6.1649,-6.2267,-6.4334,0.0,0.0,0.0,0.0,-6.8889,0.0,0.0,0.0,0.0,0.0,0.0,0.0,0.0,-6.9201,-6.9526,-6.9325,-6.9209,-6.9209,-6.9531,-7.0427,-7.1981,-7.3352,-7.5293,-7.7666,-7.8264,-7.9083,-8.0175,-7.9566,-7.9634,-8.0175,-7.9566,0.0,-8.0209,-8.0209,-8.0209,-8.0209,-8.0209,-8.0209,-8.0209,-8.0209,-8.0209,-8.0209,0.0,0.0,0.0,0.0,0.0,0.0,0.0,-3.4666,-3.573,-3.659,-3.6973,-3.6882,-3.6139,-3.5861,-3.573,0.0,0.0,0.0,0.0,0.0,0.0,0.0,0.0,0.0,0.0,0.0,-3.8292,-4.0043,0.0,-3.9337,-4.0488,-3.9573,-3.957,-4.0334,-4.114,-4.2436,-4.4199,-4.4962,-4.6138,-4.7309,-4.7309,-4.7309,-4.7309,0.0,0.0,0.0,0.0,0.0,0.0,0.0,-5.3702,-5.4409,-5.6115,-5.722,-5.8176,-6.0095,-6.0936,-6.1668,-6.3344,-6.2439,-6.1155,-6.2328,-6.1598,-6.0517,-6.0573,0.0,0.0,0.0,-6.027,-6.0363,-6.0701,-6.0794,0.0,0.0,0.0,0.0,0.0,0.0,0.0,0.0,0.0,0.0,0.0,0.0,0.0,0.0,0.0,-6.8889,-6.8889,-6.8889,-6.8889,-6.8889,-6.9536,-7.0621,-7.2179,-7.3222,-7.5153,-7.7881,-7.8246,-7.9079,-8.0175,-7.9431,-7.9498,-8.0175,-7.9431,-7.9532,-8.0209,-8.0209,-8.0209,-8.0209,-8.0209,-8.0209,-8.0209,-8.0209,-8.0209,-8.0209,0.0,0.0,0.0,0.0,0.0,0.0,0.0,-3.6723,-3.7938,-3.8903,-3.9433,-3.8998,-3.6881,-3.6671,-3.6567,0.0,0.0,0.0,0.0,0.0,0.0,0.0,0.0,0.0,0.0,0.0,0.0,-3.9886,-3.8658,0.0,0.0,0.0,0.0,0.0,-4.0535,-4.1808,-4.3448,-4.4432,-4.5698,0.0,0.0,-4.7309,0.0,0.0,0.0,0.0,0.0,0.0,0.0,0.0,-5.3754,-5.4339,-5.5584,-5.6525,-5.7659,-5.9723,-6.0573,-6.1169,-6.27,-6.2072,-6.1111,-6.1812,-6.1152,-6.0378,-6.042,-6.0089,0.0,0.0,-5.9562,-5.9562,-5.9562,-6.0116,-6.0794,0.0,0.0,0.0,0.0,0.0,0.0,0.0,0.0,0.0,0.0,0.0,0.0,0.0,0.0,0.0,-6.8889,-6.8889,-6.8951,-6.9105,-6.9751,-7.0962,-7.2875,-7.3399,-7.5246,-7.8411,-7.8164,-7.8664,-7.9938,-7.9363,-7.9329,-7.9701,-7.9464,-7.9566,-8.0006,-8.031,-8.0344,-8.0209,-8.0209,-8.0209,-8.0209,-8.0209,-8.0209,-8.0209,0.0,0.0,0.0,0.0,0.0,0.0,0.0,-3.798,-3.8903,-3.8489,-3.9607,-3.986,-3.8606,-3.8475,-3.8057,0.0,0.0,0.0,0.0,0.0,0.0,0.0,0.0,0.0,0.0,0.0,0.0,-3.8135,-3.8475,0.0,0.0,0.0,0.0,0.0,0.0,-4.1558,-4.3476,-4.4068,0.0,0.0,0.0,0.0,0.0,0.0,0.0,0.0,0.0,0.0,0.0,0.0,0.0,-5.4977,-5.5736,-5.6859,-5.8164,-5.9666,0.0,0.0,-6.1947,-6.094,-5.9878,-6.0542,-6.0102,-5.9546,-5.9197,0.0,0.0,-5.9008,-5.8885,-5.8885,-5.8885,-5.9439,0.0,0.0,0.0,0.0,0.0,0.0,0.0,0.0,0.0,0.0,0.0,0.0,0.0,0.0,0.0,0.0,-6.8889,-6.8889,-6.9166,-6.9782,-7.0459,-7.1707,-7.3633,-7.3347,-7.4857,-7.8411,-7.7291,-7.7618,-7.9194,-7.916,-7.8788,-7.8247,-7.9532,-7.9769,0.0,-8.0648,-8.0784,-8.0209,-8.0209,-8.0209,-8.0209,-8.0209,-8.0209,-8.0074,0.0,0.0,0.0,0.0,0.0,0.0,-3.7928,-3.8523,-3.9077,-3.9979,-4.0572,-4.0644,-3.9834,-3.973,-3.9128,-3.7665,0.0,0.0,0.0,0.0,0.0,0.0,0.0,0.0,0.0,0.0,-3.7821,-3.8397,-3.8972,0.0,0.0,0.0,0.0,0.0,0.0,-4.1194,-4.3448,-4.361,0.0,0.0,0.0,0.0,0.0,0.0,0.0,0.0,0.0,0.0,0.0,0.0,0.0,0.0,-5.5448,-5.6315,0.0,0.0,-5.9834,-6.0532,-6.0953,-6.0331,-5.968,-6.0343,-6.0012,-5.9455,-5.921,0.0,0.0,-5.8393,-5.8177,-5.8177,-5.8177,-5.8731,-5.9408,0.0,0.0,0.0,0.0,0.0,0.0,0.0,0.0,0.0,0.0,0.0,0.0,0.0,0.0,0.0,-6.8889,-6.9259,-6.9628,-6.9874,-7.0982,-7.1903,-7.2755,-7.2861,-7.4445,-7.7291,-7.6021,-7.6789,-7.8992,-7.72,-7.6627,-7.7044,-7.7318,-7.7495,0.0,-7.9395,-7.9981,-7.9786,-8.0039,-8.0209,-8.0209,-8.0209,-7.9734,-7.9079,0.0,0.0,0.0,0.0,0.0,-3.698,-3.8722,-3.8973,-3.9459,-4.088,-4.135,-4.1272,-4.0488,-4.0278,-3.9625,-3.8266,-3.7612,0.0,0.0,0.0,0.0,0.0,0.0,0.0,0.0,0.0,-3.8606,-3.8972,-3.9573,-3.986,0.0,0.0,-4.0122,-4.0122,0.0,0.0,0.0,0.0,0.0,0.0,0.0,0.0,0.0,0.0,0.0,0.0,0.0,0.0,0.0,0.0,0.0,0.0,0.0,0.0,0.0,0.0,-5.87,-5.9485,-5.9693,-5.9633,-5.9543,-5.9994,-5.9603,-5.9153,0.0,0.0,0.0,-5.7715,-5.7469,-5.7469,-5.7469,-5.8177,-5.8947,0.0,0.0,-6.224,0.0,0.0,0.0,0.0,0.0,0.0,0.0,0.0,0.0,0.0,0.0,0.0,-6.9166,-6.9813,-7.0182,-7.0182,-7.1352,-7.2091,-7.2275,-7.2737,-7.3995,-7.6053,-7.5019,-7.5684,-7.7643,-7.5471,-7.4799,-7.5108,-7.5819,-7.62,0.0,-7.876,-7.9561,-7.9405,-8.0037,-7.9972,-7.9632,-7.9632,-7.8836,-7.7839,0.0,0.0,0.0,0.0,0.0,0.0,-3.8282,-3.9485,-4.0409,-4.0435,-4.1428,-4.1716,-4.054,-3.9939,-3.9364,-3.8762,-3.8214,0.0,0.0,0.0,0.0,0.0,0.0,0.0,0.0,0.0,-3.9599,-3.9599,-4.0148,-4.0409,-4.0409,-4.101,-4.1298,-4.1298,0.0,0.0,0.0,0.0,0.0,0.0,0.0,0.0,0.0,0.0,0.0,0.0,0.0,0.0,0.0,0.0,0.0,0.0,0.0,-5.5888,-5.6819,0.0,-5.7124,-5.8141,-5.8141,-5.862,-5.9099,-5.9099,-5.8834,-5.8384,0.0,0.0,0.0,-5.6915,-5.6761,-5.6761,-5.6761,-5.7869,-5.8793,-5.8793,0.0,0.0,0.0,0.0,0.0,0.0,0.0,0.0,0.0,0.0,0.0,0.0,0.0,0.0,-6.9843,-7.0521,-7.089,-7.089,-7.1598,-7.2306,-7.2952,-7.2983,-7.3661,-7.4771,-7.4075,-7.4072,-7.4593,-7.4593,-7.3815,-7.2541,-7.607,-7.6848,0.0,-7.9056,-8.0024,-7.9405,-8.0037,-7.9528,-7.8411,-7.8411,-7.7621,-7.6508,0.0,0.0,0.0,0.0,0.0,0.0,0.0,-3.9529,-4.0148,-4.0932,-4.135,-4.1455,-4.1063,-4.0174,-3.9677,-3.986,-3.8658,0.0,0.0,0.0,0.0,0.0,0.0,0.0,0.0,-3.9886,-4.0174,-4.0174,-4.1141,-4.1611,-4.1611,-4.2213,-4.2265,-4.1899,-4.2678,-4.3709,0.0,0.0,0.0,0.0,0.0,0.0,0.0,0.0,0.0,0.0,0.0,0.0,0.0,0.0,0.0,0.0,0.0,0.0,0.0,-5.6083,-5.6847,-5.7767,-5.7976,-5.8022,-5.8068,-5.8278,-5.8334,-5.8308,-5.7638,0.0,0.0,-5.6915,-5.6761,-5.6761,-5.6761,-5.7869,-5.8793,-5.8793,-6.0301,0.0,0.0,0.0,0.0,0.0,0.0,0.0,0.0,0.0,0.0,0.0,0.0,0.0,-6.9874,-7.1013,-7.1629,-7.1629,-7.2306,-7.2768,-7.2983,-7.2983,-7.3443,-7.4075,-7.3089,-7.3011,-7.3739,-7.2578,-7.2233,-7.2602,-7.4382,-7.5149,-7.5365,-7.7142,-7.7864,-7.766,-7.7748,-7.7511,-7.718,-7.718,-7.6395,-7.5359,0.0,0.0,0.0,0.0,0.0,0.0,0.0,-3.9468,-3.9939,-4.0853,-4.135,-4.1559,-4.1324,-4.0671,-4.0305,-4.0409,-3.9259,0.0,0.0,0.0,0.0,0.0,0.0,0.0,-3.9913,-4.0671,-4.1089,-4.1089,-4.203,-4.2605,-4.2814,-4.2944,-4.3152,-4.3482,-4.3849,-4.4606,0.0,0.0,0.0,0.0,0.0,0.0,-5.0272,0.0,0.0,0.0,0.0,0.0,0.0,0.0,0.0,0.0,0.0,0.0,0.0,0.0,-5.6555,-5.7152,-5.7395,-5.7565,-5.7643,-5.7849,-5.7973,0.0,0.0,0.0,0.0,0.0,-5.6761,-5.6761,-5.6761,-5.7869,-5.8854,-5.9131,-6.064,0.0,0.0,0.0,0.0,0.0,0.0,0.0,0.0,0.0,0.0,0.0,0.0,0.0,-7.0244,-7.1352,-7.2091,-7.2337,-7.2768,-7.2983,-7.2983,-7.2983,-7.323,-7.3459,-7.2148,-7.2039,-7.2857,-7.1236,-7.1247,-7.2401,-7.3571,-7.4368,0.0,-7.6274,-7.6856,-7.682,-7.6714,-7.6281,-7.5938,-7.5938,-7.5125,-7.4116,0.0,0.0,0.0,0.0,0.0,0.0,0.0,-3.9207,-3.973,-4.0278,-4.135,-4.1847,-4.1298,-4.1246,-4.1036,-4.0514,-3.9991,0.0,0.0,0.0,0.0,0.0,0.0,0.0,-4.054,-4.1638,-4.2239,-4.2291,-4.2866,-4.3415,-4.3912,-4.3389,-4.3912,-4.5375,-4.4983,-4.5409,0.0,0.0,0.0,0.0,-5.0062,-5.0301,0.0,0.0,0.0,0.0,0.0,0.0,0.0,0.0,0.0,0.0,0.0,0.0,0.0,0.0,0.0,0.0,0.0,-5.7314,-5.783,-5.78,-5.7547,-5.7289,-5.7289,0.0,0.0,0.0,0.0,-5.6761,-5.6823,-5.7931,-5.907,-5.9747,-6.104,0.0,0.0,0.0,0.0,0.0,0.0,0.0,0.0,0.0,0.0,0.0,0.0,0.0,-7.0859,-7.1629,-7.2337,-7.2952,-7.2983,-7.2983,-7.2983,-7.2983,-7.2922,-7.2829,-7.1506,-7.1229,-7.1783,-7.0582,-7.0798,0.0,-7.3537,-7.4522,0.0,-7.6244,-7.6644,-7.6608,-7.6548,-7.5739,-7.4652,-7.4652,-7.3995,-7.2983,0.0,0.0,0.0,0.0,0.0,0.0,0.0,0.0,0.0,0.0,-4.0409,-4.0775,-4.0644,-4.0618,-4.0749,0.0,0.0,0.0,0.0,0.0,0.0,0.0,0.0,0.0,-4.1742,-4.2448,-4.3023,-4.3467,-4.4042,-4.4408,-4.4513,-4.4382,-4.4254,-4.4388,-4.5825,-4.7429,0.0,0.0,0.0,0.0,-5.093,-5.099,0.0,0.0,0.0,0.0,-5.1787,-5.2063,0.0,0.0,0.0,0.0,0.0,0.0,0.0,0.0,-5.6567,-5.6695,-5.6849,0.0,-5.6831,-5.7027,-5.7002,-5.691,0.0,-5.6884,-5.6761,0.0,0.0,0.0,0.0,-5.8639,-5.9778,0.0,0.0,0.0,0.0,0.0,0.0,0.0,0.0,0.0,0.0,0.0,0.0,0.0,0.0,0.0,-7.089,-7.2091,-7.2829,-7.2983,-7.2983,-7.2983,-7.2983,-7.2983,-7.246,-7.1383,-7.1075,-7.0705,-7.0398,-7.1136,-7.2244,-7.3599,-7.4953,-7.5907,-7.6492,-7.6325,-7.5957,-7.5368,-7.478,-7.4128,-7.3447,-7.3447,-7.32,-7.2983,0.0,0.0,0.0,0.0,0.0,0.0,0.0,0.0,0.0,0.0,-4.054,-4.101,-4.0461,-4.0906,-4.1246,0.0,0.0,0.0,0.0,0.0,0.0,0.0,0.0,-4.2239,-4.2552,-4.3389,-4.3964,-4.4278,-4.5114,-4.5532,-4.5532,-4.5532,-4.5546,-4.5475,-4.6818,-4.8379,0.0,0.0,0.0,-5.1229,-5.1229,0.0,0.0,0.0,0.0,0.0,-5.2063,-5.2155,0.0,-5.2306,-5.2368,-5.267,0.0,0.0,0.0,0.0,-5.6664,-5.6761,-5.6761,-5.6664,-5.6664,-5.6761,-5.6761,-5.6761,-5.6761,-5.7008,-5.7315,0.0,0.0,0.0,0.0,0.0,0.0,0.0,0.0,0.0,0.0,0.0,0.0,0.0,0.0,0.0,0.0,0.0,0.0,0.0,0.0,0.0,-7.1383,-7.2398,-7.2983,-7.2983,-7.2983,-7.2829,-7.2521,-7.2829,-7.2275,-7.089,-7.1229,-7.1352,-7.1352,-7.2091,-7.3353,-7.4953,-7.5692,-7.64,-7.6954,-7.6277,-7.56,-7.4922,-7.4245,-7.3568,-7.2983,-7.2983,-7.2983,-7.2983,0.0,0.0,0.0,0.0,0.0,0.0,0.0,0.0,0.0,0.0,0.0,0.0,0.0,0.0,0.0,0.0,0.0,0.0,0.0,0.0,0.0,0.0,-4.3154,-4.3101,-4.3284,-4.433,-4.4957,-4.5114,-4.6107,-4.6604,-4.6604,-4.6525,-4.68,-4.7455,-4.7838,-4.8696,-4.9805,-4.9805,-5.0412,-5.1229,-5.1199,0.0,0.0,0.0,0.0,0.0,0.0,0.0,0.0,-5.2215,-5.2033,-5.1999,-5.3833,0.0,0.0,0.0,0.0,0.0,-5.6761,-5.6823,-5.6884,-5.6792,-5.6761,-5.6792,-5.6884,-5.7346,0.0,0.0,0.0,0.0,0.0,-6.0621,0.0,0.0,0.0,0.0,0.0,0.0,0.0,0.0,0.0,0.0,0.0,0.0,0.0,0.0,0.0,0.0,-7.1937,-7.2614,-7.2983,-7.2983,-7.2983,-7.2645,-7.1998,-7.2645,-7.2337,-7.1075,-7.169,-7.2337,-7.2983,-7.3076,-7.4184,-7.6031,0.0,0.0,-7.6985,-7.64,-7.5723,-7.4953,-7.4368,-7.366,-7.2983,-7.2983,-7.2983,-7.2983,0.0,0.0,0.0,0.0,0.0,0.0,0.0,0.0,0.0,0.0,0.0,0.0,0.0,0.0,0.0,0.0,0.0,0.0,0.0,0.0,0.0,-4.5192,-4.3807,-4.3467,-4.4434,-4.514,-4.595,-4.6944,-4.7127,-4.7205,-4.7179,-4.6708,-4.7213,-4.8582,-4.8173,-4.9092,-5.0917,-5.0917,-5.1011,-5.1229,-5.1479,0.0,0.0,0.0,0.0,0.0,0.0,0.0,0.0,-5.2397,-5.2215,-5.2459,-5.3896,0.0,0.0,0.0,0.0,0.0,-5.6567,-5.6868,-5.7174,-5.6915,-5.6761,-5.6915,-5.75,0.0,0.0,0.0,0.0,0.0,0.0,-6.105,-6.1322,0.0,0.0,0.0,0.0,0.0,0.0,0.0,0.0,0.0,0.0,0.0,0.0,0.0,0.0,0.0,-7.1937,-7.2614,-7.2983,-7.2983,-7.2983,-7.2645,-7.1998,-7.2645,-7.2583,-7.1813,-7.1937,-7.2337,-7.3014,-7.3568,-7.4645,-7.6031,0.0,-7.6923,-7.7016,-7.6892,-7.6123,-7.4984,-7.4892,-7.4091,-7.2983,-7.2983,-7.2983,-7.2983,0.0,0.0,0.0,0.0,0.0,0.0,0.0,0.0,0.0,0.0,0.0,0.0,0.0,0.0,0.0,0.0,0.0,0.0,0.0,0.0,-4.4591,-4.5114,-4.4382,-4.4487,-4.5663,-4.6238,-4.6813,-4.7336,-4.7649,-4.7623,-4.7336,-4.6734,-4.718,-4.8452,-4.8471,-4.9209,-5.0412,-5.0917,-5.1229,-5.1229,0.0,0.0,0.0,0.0,0.0,0.0,0.0,0.0,0.0,0.0,-5.2033,-5.2184,-5.3802,0.0,0.0,0.0,0.0,0.0,-5.6664,-5.6684,-5.6831,-5.699,-5.7266,-5.7534,-5.7739,0.0,0.0,0.0,0.0,0.0,0.0,0.0,0.0,-6.2875,0.0,0.0,0.0,0.0,0.0,0.0,0.0,0.0,0.0,0.0,0.0,0.0,0.0,0.0,-7.246,-7.2829,-7.2983,-7.2983,-7.2983,-7.2829,-7.2521,-7.2829,-7.246,-7.1413,-7.2152,-7.286,-7.3537,-7.4214,-7.5261,-7.6585,0.0,-7.7016,-7.7016,-7.7016,-7.6215,-7.5015,-7.5015,-7.4184,-7.2983,-7.2983,-7.2983,-7.3045,0.0,0.0,0.0,0.0,0.0,0.0,0.0,0.0,0.0,0.0,0.0,0.0,0.0,0.0,0.0,0.0,0.0,0.0,0.0,-4.4487,-4.4853,-4.5114,-4.5009,-4.5428,-4.6447,-4.6917,-4.7336,-4.7728,-4.8041,-4.7963,-4.7519,-4.6944,-4.7224,-4.811,-4.868,-4.9193,-4.9611,-5.0728,-5.1229,-5.1229,0.0,0.0,0.0,0.0,0.0,0.0,0.0,0.0,0.0,0.0,0.0,0.0,0.0,0.0,0.0,-5.5984,-5.6638,-5.6761,-5.6664,-5.6684,-5.6854,-5.7142,-5.7436,0.0,0.0,0.0,0.0,0.0,0.0,0.0,0.0,0.0,0.0,0.0,0.0,0.0,0.0,0.0,0.0,0.0,0.0,0.0,0.0,0.0,0.0,0.0,0.0,0.0,-7.2922,-7.2983,-7.2983,-7.2983,-7.2983,-7.2983,-7.2983,-7.2983,-7.246,-7.1413,-7.246,-7.3414,-7.4245,-7.4769,-7.5754,-7.7016,-7.7016,-7.7016,-7.7016,-7.7016,-7.6215,-7.5015,-7.5015,-7.4184,-7.2983,-7.2983,-7.3076,-7.3291,0.0,0.0,0.0,0.0,0.0,0.0,0.0,0.0,0.0,0.0,0.0,0.0,0.0,0.0,0.0,0.0,0.0,0.0,0.0,-4.4696,-4.5218,-4.629,-4.5846,-4.5846,-4.6473,-4.6525,-4.7336,-4.8956,-4.8433,-4.8172,-4.812,-4.7545,-4.751,-4.811,-4.868,-4.9193,-4.9611,-5.0728,-5.1229,-5.1229,-5.1479,0.0,0.0,0.0,0.0,0.0,0.0,0.0,0.0,0.0,0.0,0.0,0.0,0.0,-5.4507,-5.5337,-5.6076,-5.6664,-5.6176,-5.6889,-5.7728,-5.7213,-5.6998,0.0,-5.8589,-5.8923,0.0,-6.0623,-6.1195,0.0,0.0,0.0,0.0,0.0,0.0,0.0,0.0,0.0,0.0,0.0,0.0,0.0,0.0,0.0,0.0,0.0,0.0,0.0,-7.2952,-7.2983,-7.2983,-7.2983,-7.2983,-7.2983,-7.2983,-7.2983,-7.2922,-7.2829,-7.2922,-7.366,-7.4922,-7.4984,-7.5754,-7.7016,-7.7016,-7.7016,-7.7016,-7.7016,-7.6215,-7.5015,-7.5015,-7.4184,-7.2983,-7.2983,-7.3383,-7.3937,0.0,0.0,0.0,0.0,0.0,0.0,0.0,0.0,0.0,0.0,0.0,-4.4722,-4.4722,0.0,0.0,0.0,0.0,0.0,0.0,-4.4722,-4.4931,-4.5375,-4.5532,-4.5898,-4.6473,-4.7179,-4.8041,-4.9087,-4.8486,-4.8172,-4.8172,-4.7963,-4.8332,-4.9107,-4.9308,-5.0068,-5.1195,-5.119,-5.1439,-5.1798,-5.166,-5.1572,0.0,0.0,0.0,0.0,0.0,0.0,0.0,0.0,-5.1695,-5.197,-5.2544,-5.3239,-5.4031,-5.4891,-5.5932,-5.6854,-5.6655,-5.7152,-5.7855,-5.846,-5.879,0.0,0.0,-5.9693,-6.0325,-6.0385,-6.0846,-6.1635,0.0,0.0,0.0,0.0,0.0,0.0,0.0,0.0,0.0,0.0,0.0,0.0,0.0,0.0,0.0,0.0,0.0,0.0,0.0,-7.2983,-7.2983,-7.2983,-7.2983,-7.2983,-7.2983,-7.2983,-7.2983,-7.2983,-7.3414,-7.4091,-7.5015,-7.5446,-7.6154,-7.7016,-7.7016,-7.7016,-7.7016,-7.7016,-7.6215,-7.4922,-7.4091,-7.3445,-7.2983,-7.2983,-7.3414,-7.4061,0.0,0.0,0.0,0.0,0.0,0.0,0.0,0.0,-4.4722,0.0,0.0,0.0,0.0,-4.4722,0.0,0.0,0.0,0.0,-4.4722,-4.4905,-4.5009,-4.5009,-4.5584,-4.6264,-4.6996,-4.778,-4.8486,-4.9087,-4.8669,-4.8381,-4.8172,-4.8337,-4.8696,-4.9214,-4.9756,-5.0572,-5.1647,-5.1309,-5.1588,-5.2127,-5.1656,-5.1479,0.0,0.0,0.0,0.0,0.0,0.0,0.0,0.0,-5.1479,-5.1755,-5.2021,-5.2868,-5.3778,-5.4425,-5.5637,-5.692,-5.6819,-5.7432,-5.8249,-5.8941,0.0,0.0,-5.9608,-6.0446,-6.1224,-6.0535,-6.1104,-6.2151,-6.3468,0.0,0.0,0.0,0.0,0.0,0.0,0.0,0.0,0.0,0.0,0.0,0.0,0.0,0.0,0.0,0.0,0.0,0.0,-7.2983,-7.2983,-7.2983,-7.2983,-7.2983,-7.2983,-7.2983,-7.2983,-7.2983,-7.3876,-7.4553,-7.5015,-7.5692,-7.6369,-7.7016,-7.7016,-7.7016,-7.7016,-7.7016,-7.6215,-7.4861,-7.3506,-7.2983,-7.3014,-7.3229,-7.3722,-7.4399,0.0,0.0,0.0,0.0,0.0,0.0,0.0,0.0,-4.4722,-4.4722,-4.4722,0.0,0.0,0.0,0.0,0.0,0.0,0.0,-4.4722,-4.5297,-4.5611,-4.5611,-4.6159,-4.6996,-4.8146,-4.8172,-4.8486,-4.9087,-4.9061,-4.8773,-4.8289,-4.8798,-4.8735,-4.8219,-4.9819,-5.0569,-5.0639,-5.1024,-5.1618,-5.2157,-5.1498,-5.1229,-5.1229,0.0,0.0,0.0,0.0,0.0,0.0,0.0,-5.1787,-5.191,-5.1416,-5.2507,-5.3975,-5.3688,-5.5175,-5.6819,-5.6677,-5.8022,-5.9272,0.0,0.0,0.0,-6.0416,-6.1164,-6.1912,-6.1253,-6.2181,-6.3079,-6.3109,-6.4156,0.0,0.0,0.0,0.0,0.0,0.0,0.0,0.0,0.0,0.0,0.0,0.0,0.0,0.0,0.0,0.0,0.0,-7.2983,-7.2983,-7.2983,-7.2983,-7.2983,-7.2983,-7.2983,-7.2983,-7.3014,-7.4368,-7.5015,-7.5015,-7.5723,-7.64,-7.7016,-7.7016,-7.7016,-7.7016,-7.7016,-7.6215,-7.4861,-7.3506,-7.2983,-7.3076,-7.3753,-7.443,-7.5107,0.0,0.0,0.0,0.0,0.0,0.0,0.0,0.0,-4.4722,-4.4722,-4.4722,0.0,0.0,0.0,0.0,0.0,0.0,0.0,-4.4722,-4.4905,-4.5009,-4.5009,-4.5558,-4.6212,-4.697,-4.778,-4.8927,-5.03,-5.0758,-5.0878,-5.0685,-4.9554,-4.9829,-5.1071,-5.0342,-5.1164,-5.3139,-5.2778,-5.2725,-5.2845,-5.2187,-5.1618,-5.1229,0.0,0.0,0.0,0.0,0.0,0.0,0.0,0.0,0.0,-5.1229,-5.2222,-5.3368,-5.3368,-5.511,-5.7002,-5.6929,-5.8038,0.0,-6.0027,0.0,0.0,0.0,-6.251,0.0,0.0,-6.281,-6.3498,-6.4874,0.0,0.0,0.0,0.0,0.0,0.0,0.0,0.0,0.0,0.0,0.0,0.0,0.0,0.0,0.0,0.0,0.0,0.0,-7.2983,-7.2983,-7.2983,-7.2983,-7.2983,-7.2983,-7.2983,-7.3229,-7.3691,-7.4584,-7.5015,-7.5046,-7.6184,-7.6831,-7.7016,-7.7016,-7.7016,-7.6954,-7.6,-7.5353,-7.4861,-7.3506,-7.2983,-7.3076,-7.3753,-7.443,-7.5169,0.0,0.0,0.0,0.0,0.0,0.0,-4.4722,-4.4722,-4.4722,-4.4722,-4.4722,-4.4722,0.0,0.0,0.0,-4.4722,-4.4722,-4.4722,-4.4722,-4.4957,-4.4983,-4.4748,-4.5741,-4.6473,-4.6813,-4.7687,-4.8766,-4.9766,-5.0099,-5.0157,-4.9911,-4.9776,-5.0314,-5.1299,-5.1235,-5.2281,-5.4162,-5.3204,-5.2935,-5.3084,-5.2187,-5.1558,-5.1229,0.0,0.0,0.0,0.0,0.0,0.0,0.0,0.0,0.0,-5.1139,-5.2127,-5.3234,-5.3503,-5.5239,-5.7154,-5.7423,-5.8471,0.0,-6.0505,-6.1403,-6.2271,-6.2929,0.0,0.0,0.0,0.0,-6.4126,-6.5054,0.0,0.0,0.0,0.0,0.0,0.0,0.0,0.0,0.0,0.0,0.0,0.0,0.0,0.0,0.0,0.0,0.0,0.0,-7.2983,-7.2983,-7.2983,-7.2983,-7.2983,-7.2983,-7.2983,-7.3322,-7.3999,-7.4676,-7.5138,-7.5446,-7.6523,-7.7016,-7.7016,-7.7016,-7.7016,-7.6923,-7.5569,-7.5015,-7.4861,-7.3506,-7.2983,-7.3137,-7.4338,-7.5046,-7.563,0.0,0.0,0.0,0.0,0.0,0.0,-4.4722,-4.4722,-4.4722,-4.4722,-4.4722,-4.4722,0.0,0.0,0.0,-4.4643,-4.4696,-4.4696,-4.4643,-4.5218,-4.5297,-4.4748,-4.629,-4.7179,-4.7179,-4.7775,-4.8056,-4.8056,-4.8266,-4.81,-4.7573,-4.9611,-5.0382,-5.0029,-5.2188,-5.3525,-5.4132,-5.2905,-5.2695,-5.3084,-5.1828,-5.1259,-5.1229,-5.1229,0.0,0.0,0.0,0.0,0.0,0.0,0.0,0.0,-5.093,-5.2007,-5.3144,-5.3892,-5.5478,-5.7154,-5.7842,0.0,0.0,-6.0146,-6.1194,0.0,-6.2929,-6.3109,-6.3169,-6.3169,0.0,0.0,0.0,0.0,0.0,0.0,0.0,0.0,0.0,0.0,0.0,0.0,0.0,0.0,0.0,0.0,0.0,0.0,0.0,0.0,0.0,0.0,-7.2983,-7.2983,-7.2983,-7.2983,-7.2983,-7.2983,-7.3353,-7.4091,-7.4707,-7.5384,-7.6123,-7.6739,-7.7016,-7.7016,-7.7016,-7.6985,-7.6831,-7.5538,-7.4953,-7.4769,-7.3476,-7.3014,-7.3322,-7.5199,-7.6,-7.64,0.0,0.0,0.0,0.0,0.0,0.0,-4.4722,-4.4722,-4.4722,-4.4722,-4.4722,-4.4722,-4.4722,-4.4722,0.0,-4.4095,-4.446,-4.4539,-4.4095,-4.4591,-4.4853,-4.4748,-4.5532,-4.6003,-4.6003,-4.6514,-4.6895,-4.6895,-4.8736,-4.9546,-4.9408,-4.9939,-5.0512,-5.1222,-5.2253,-5.3314,-5.4192,-5.3892,-5.3533,-5.3114,-5.2306,-5.1678,-5.1229,-5.1229,-5.09,0.0,0.0,0.0,0.0,0.0,0.0,0.0,-5.0242,-5.099,-5.1887,-5.3054,-5.482,-5.6496,0.0,-5.8291,0.0,0.0,-6.1882,-6.2899,-6.3049,-6.3468,-6.3797,-6.3797,0.0,0.0,0.0,0.0,0.0,0.0,0.0,0.0,0.0,0.0,0.0,0.0,0.0,0.0,0.0,0.0,0.0,0.0,0.0,0.0,0.0,0.0,-7.2983,-7.2983,-7.2983,-7.2983,-7.2983,-7.2983,-7.3599,0.0,-7.4922,-7.563,-7.68,-7.6954,-7.7016,-7.7016,-7.7016,-7.6708,-7.6154,-7.5353,-7.4676,-7.4122,-7.3291,-7.3322,-7.3907,-7.4861,-7.5877,-7.7016,0.0,0.0,0.0,0.0,0.0,0.0,0.0,0.0,-4.5062,-4.4774,-4.4722,-4.4617,-4.4356,-4.433,0.0,0.0,-4.399,-4.4068,-4.3493,-4.4251,-4.4853,-4.514,-4.5192,-4.5323,-4.5611,-4.5637,-4.5967,-4.6488,-4.7722,-4.8387,-4.8692,-4.8969,-4.9888,-5.1191,-5.2151,-5.3229,-5.4221,-5.4221,-5.3803,-5.3114,-5.2456,-5.1798,-5.1229,-5.1229,-5.102,-5.0661,-5.0361,0.0,0.0,0.0,0.0,0.0,0.0,0.0,-5.1558,-5.3174,-5.464,0.0,0.0,0.0,0.0,0.0,0.0,-6.3079,-6.3079,-6.3558,-6.4096,0.0,0.0,0.0,0.0,0.0,0.0,0.0,0.0,0.0,0.0,0.0,0.0,0.0,0.0,0.0,0.0,0.0,0.0,0.0,0.0,0.0,0.0,-7.2859,-7.2983,-7.2983,-7.2983,-7.2983,-7.2983,-7.2983,-7.366,-7.5015,-7.5015,-7.5723,-7.7016,-7.6677,-7.6708,-7.7016,-7.6677,-7.6338,-7.5969,-7.5292,-7.4799,-7.4399,-7.3722,-7.3876,-7.4584,-7.56,-7.64,-7.7262,0.0,0.0,0.0,0.0,0.0,0.0,0.0,0.0,0.0,-4.48,-4.4722,-4.4513,-4.3938,-4.3859,-4.3598,0.0,0.0,0.0,-4.2918,-4.3938,-4.4909,-4.5516,-4.504,-4.4957,-4.5454,-4.4983,-4.5127,-4.6058,-4.6058,-4.6621,-4.7725,-4.8349,-4.919,-5.0427,-5.2107,-5.3331,-5.4221,-5.4221,-5.3892,-5.3294,-5.2636,-5.1977,-5.1379,-5.1379,-5.1259,-5.096,-5.0421,-4.9823,-4.9254,-4.9134,0.0,0.0,0.0,0.0,-5.1259,-5.3144,-5.4311,0.0,0.0,0.0,0.0,0.0,0.0,0.0,0.0,-6.3647,0.0,0.0,0.0,0.0,0.0,0.0,0.0,0.0,0.0,0.0,0.0,0.0,0.0,0.0,0.0,0.0,0.0,0.0,0.0,0.0,0.0,0.0,-7.2134,-7.2734,-7.2983,-7.2983,-7.2983,-7.2983,-7.2983,-7.3106,-7.3722,-7.483,-7.5076,-7.5815,-7.6985,-7.6308,-7.6369,-7.6985,-7.6308,-7.5938,-7.5784,-7.523,-7.4922,-7.4769,-7.4214,-7.4399,-7.5138,-7.6123,-7.6708,-7.7262,0.0,0.0,0.0,0.0,0.0,0.0,0.0,0.0,0.0,0.0,-4.4722,-4.4513,-4.3938,-4.3859,-4.3441,-4.2369,-4.2814,-4.2892,-4.2317,0.0,0.0,-4.5439,-4.4916,-4.4774,-4.4853,-4.4774,-4.4722,-4.4938,-4.4938,-4.6518,-4.9631,-5.008,-4.9925,-4.9314,-5.257,-5.4092,-5.4221,-5.4221,-5.4162,-5.4012,-5.3324,-5.2665,-5.2067,-5.2067,-5.1379,-5.0361,-5.0272,-4.9823,-4.9164,-4.8596,-4.8356,0.0,0.0,0.0,-4.9793,-5.1199,-5.2905,0.0,0.0,0.0,0.0,0.0,0.0,0.0,0.0,0.0,0.0,0.0,0.0,0.0,0.0,0.0,0.0,0.0,0.0,0.0,0.0,0.0,0.0,0.0,0.0,0.0,0.0,0.0,0.0,0.0,0.0,0.0,-7.2859,-7.2983,-7.2983,-7.2983,-7.2983,-7.2983,-7.2983,-7.3568,-7.3968,-7.4153,-7.5323,-7.6277,-7.6985,-7.6308,-7.6369,-7.6985,-7.6308,-7.5692,-7.5138,-7.5046,-7.4645,-7.4122,-7.403,-7.4399,-7.4953,-7.4553,-7.5507,-7.7046,0.0,0.0,0.0,0.0,0.0,0.0,0.0,0.0,0.0,0.0,0.0,-4.4434,-4.3835,-4.3572,-4.2944,-4.1794,-4.1878,-4.2216,-4.2631,-4.2814,-4.3415,-4.4545,-4.4019,-4.3912,-4.4225,-4.3938,-4.4072,-4.4647,-4.4994,-4.611,0.0,-4.9098,-5.0443,-5.1874,-5.1744,-5.2674,-5.4221,-5.461,-5.476,-5.476,-5.482,-5.4461,-5.3862,-5.3862,-5.3503,-5.3025,-5.3025,-5.2097,-5.087,-5.0571,-4.9733,-4.8835,-4.8835,0.0,0.0,0.0,-5.2097,0.0,0.0,0.0,0.0,0.0,0.0,0.0,0.0,0.0,0.0,0.0,0.0,0.0,0.0,0.0,0.0,0.0,0.0,0.0,0.0,0.0,0.0,0.0,0.0,0.0,0.0,0.0,0.0,0.0,0.0,-7.2578,-7.2734,-7.2859,-7.2983,-7.2983,-7.2983,-7.2983,-7.2983,-7.366,-7.4368,-7.5138,-7.6123,-7.6739,-7.6985,-7.6308,-7.6184,-7.64,-7.5723,-7.5076,-7.4461,-7.4861,-7.4584,-7.403,-7.4399,-7.4738,-7.5015,-7.5076,-7.5692,-7.6554,0.0,0.0,0.0,0.0,0.0,0.0,0.0,0.0,0.0,0.0,0.0,-4.449,-4.394,0.0,0.0,0.0,-4.1331,-4.167,-4.2548,-4.2343,-4.2813,-4.4019,-4.3625,-4.3572,-4.3859,-4.3598,-4.3781,-4.4393,-4.5012,0.0,-4.6941,-4.7663,-5.0011,0.0,-5.1144,-5.1555,-5.4012,-5.485,-5.5179,-5.5269,-5.6077,-5.6017,-5.5448,-5.5448,-5.5448,-5.5418,-5.5239,-5.4341,-5.3114,-5.2426,-5.1229,-4.9912,-4.9434,-4.9613,0.0,0.0,0.0,0.0,0.0,0.0,0.0,0.0,0.0,0.0,0.0,0.0,0.0,0.0,0.0,0.0,0.0,0.0,0.0,0.0,0.0,0.0,0.0,0.0,0.0,0.0,0.0,0.0,0.0,0.0,0.0,0.0,0.0,-7.2608,-7.2608,-7.2859,-7.2983,-7.2983,-7.2983,-7.3076,-7.3229,-7.3907,-7.483,-7.6031,-7.6523,-7.6769,-7.6739,-7.6246,-7.5907,-7.5723,-7.523,-7.4707,-7.4307,-7.4984,-7.4861,-7.4307,-7.4799,-7.5015,-7.5046,-7.5384,-7.5723,-7.6154,0.0,0.0,0.0,0.0,0.0,0.0,0.0,0.0,0.0,0.0,0.0,-4.4702,-4.4676,-4.3624,-4.2552,-4.1402,-4.1324,-4.134,-4.1382,-4.2079,-4.3124,-4.4408,-4.4573,0.0,-4.3885,-4.4382,-4.4382,-4.3939,0.0,0.0,-4.8137,-4.6482,-4.7703,-5.1116,-5.1276,-5.2059,-5.3324,-5.464,-5.5179,-5.5299,-5.6555,-5.6675,-5.6137,-5.6137,-5.6137,-5.6047,-5.5418,-5.5538,-5.5568,-5.3054,-5.2127,-5.1708,-4.9853,-4.9284,-4.9434,0.0,0.0,0.0,0.0,0.0,0.0,0.0,0.0,0.0,0.0,0.0,0.0,0.0,0.0,0.0,0.0,0.0,0.0,0.0,0.0,0.0,0.0,0.0,0.0,0.0,0.0,0.0,0.0,0.0,0.0,0.0,0.0,-7.2983,-7.2983,-7.2983,-7.2983,-7.2983,-7.2983,-7.3291,-7.3937,-7.4615,-7.5292,-7.6,-7.6061,-7.6061,-7.6061,-7.6031,-7.5661,-7.5046,-7.5015,-7.4984,-7.5015,-7.5692,-7.5569,-7.4953,-7.4984,-7.5015,-7.4922,-7.4338,-7.4922,-7.6031,0.0,0.0,0.0,0.0,0.0,0.0,0.0,0.0,0.0,0.0,0.0,0.0,0.0,-4.3023,-4.1699,-4.1376,-4.1324,-4.1345,-4.1334,-4.2053,-4.2679,-4.3035,-4.3047,-4.2997,-4.2788,-4.2631,-4.2605,0.0,0.0,-4.4439,-4.6005,-4.5752,-4.6674,-4.8511,-4.8714,-4.9662,-5.1148,-5.2041,-5.3065,-5.4377,-5.5947,-5.6936,-5.7483,-5.7902,-5.8321,-5.865,-5.8411,-5.7932,-5.7214,-5.5807,-5.4521,-5.3047,-5.0353,-5.0218,-5.1016,-5.0022,-5.1973,0.0,0.0,0.0,0.0,0.0,0.0,0.0,0.0,0.0,0.0,0.0,0.0,0.0,0.0,0.0,0.0,0.0,0.0,0.0,0.0,0.0,0.0,0.0,0.0,0.0,0.0,0.0,0.0,0.0,0.0,0.0,-7.2983,-7.2983,-7.2983,-7.2983,-7.2983,-7.3506,-7.4615,-7.4892,-7.5569,-7.6646,-7.6646,-7.6431,-7.6,-7.6,-7.563,-7.5015,-7.5446,-7.5415,-7.5015,-7.5261,-7.4953,-7.4399,-7.483,-7.4738,-7.443,-7.5046,-7.56,-7.6061,0.0,0.0,0.0,0.0,0.0,0.0,0.0,0.0,-4.4713,-4.4707,0.0,0.0,0.0,0.0,-4.1256,-4.1331,-4.1276,-4.1324,-4.1324,-4.1823,-4.2188,-4.2496,-4.2345,-4.2319,-4.2315,-4.2369,-4.2369,0.0,0.0,0.0,0.0,-4.4774,-4.5444,-4.6062,-4.625,-4.7616,0.0,0.0,0.0,-5.3722,-5.5641,-5.7231,-5.8501,-5.8949,-5.9937,-6.1014,-6.0326,-5.9967,-5.9578,-5.8231,-5.6915,-5.5406,-5.2682,-5.2034,-5.1827,-4.9635,-5.0685,0.0,-5.2838,0.0,0.0,0.0,0.0,0.0,0.0,0.0,0.0,0.0,0.0,0.0,0.0,0.0,0.0,0.0,0.0,0.0,0.0,0.0,0.0,0.0,0.0,0.0,0.0,0.0,0.0,0.0,0.0,0.0,-7.2983,-7.2983,-7.3076,-7.3322,-7.3322,-7.3876,-7.4984,-7.523,-7.5784,-7.6677,-7.6892,-7.6677,-7.6,-7.6,-7.5784,-7.5353,-7.5815,-7.563,-7.5015,-7.523,-7.4953,-7.4368,-7.483,-7.4861,-7.4769,-7.5692,-7.6154,-7.64,0.0,0.0,0.0,0.0,0.0,0.0,0.0,0.0,-4.4712,-4.4771,0.0,0.0,0.0,0.0,0.0,-4.1337,-4.1305,-4.1324,-4.1324,-4.1286,-4.1802,-4.291,-4.2657,-4.2501,-4.2496,-4.3807,-4.3807,0.0,0.0,0.0,0.0,0.0,-4.3859,-4.3885,-4.446,-4.6196,-4.8958,0.0,-5.1648,-5.3453,0.0,-5.7496,-5.9099,-5.9129,-6.0775,-6.281,-6.0835,-6.1373,-6.266,-6.0027,-5.9159,-5.8662,-5.6721,-5.4392,-5.1696,-4.8816,-4.9238,-5.0859,0.0,0.0,0.0,0.0,0.0,0.0,0.0,0.0,0.0,0.0,0.0,0.0,0.0,0.0,0.0,0.0,0.0,0.0,0.0,0.0,0.0,0.0,0.0,0.0,0.0,0.0,0.0,0.0,0.0,-7.2608,-7.2983,-7.2983,-7.3291,-7.3937,-7.3968,-7.4307,-7.4984,-7.5661,-7.6,-7.6061,-7.6677,-7.6646,-7.5969,-7.6,-7.6,-7.5969,-7.6031,-7.5661,-7.5076,-7.5754,-7.56,-7.5015,-7.5015,-7.5446,-7.6,-7.6031,-7.6461,-7.7046,0.0,0.0,0.0,0.0,0.0,-4.629,-4.6282,-4.6152,-4.6047,0.0,0.0,0.0,-4.7176,-4.5122,-4.3152,-4.1491,-4.1284,-4.1357,-4.1324,-4.1284,-4.18,-4.2897,-4.2627,-4.2265,-4.1611,-4.203,-4.2239,-4.216,0.0,0.0,0.0,0.0,-4.3467,-4.3885,-4.4042,-4.5441,-4.774,-4.8172,0.0,-5.0628,-5.4234,-5.662,0.0,0.0,0.0,0.0,0.0,-6.1493,-6.2181,-6.0954,-5.9622,-5.7848,-5.4988,-5.2405,-5.0161,-4.8569,-4.8969,-4.9917,-4.9334,0.0,0.0,0.0,0.0,0.0,0.0,0.0,0.0,0.0,0.0,0.0,0.0,0.0,0.0,0.0,0.0,0.0,0.0,0.0,0.0,0.0,0.0,0.0,0.0,0.0,0.0,0.0,-7.2134,-7.2357,-7.2983,-7.2983,-7.3076,-7.326,-7.326,-7.3814,-7.4984,-7.5199,-7.5784,-7.6739,-7.6431,-7.5938,-7.5292,-7.5784,-7.5754,-7.5323,-7.6308,-7.6338,-7.5754,-7.5938,-7.56,-7.5046,-7.5538,-7.5846,-7.6061,-7.6554,-7.7169,-7.7754,0.0,0.0,-4.6839,-4.6839,-4.6839,-4.6917,-4.7153,-4.6804,-4.6699,0.0,0.0,0.0,-4.8212,-4.6166,-4.4203,-4.2788,-4.188,-4.1337,-4.1331,-4.1312,-4.1595,-4.2255,-4.2058,-4.1723,-4.1305,-4.1334,-4.1438,-4.1794,0.0,0.0,0.0,-4.2552,-4.284,-4.318,-4.3912,-4.5245,-4.7022,-4.7492,0.0,0.0,-5.3441,0.0,0.0,-5.9466,-6.1672,0.0,0.0,0.0,-6.2839,-6.245,-6.1023,-5.8754,-5.52,-5.265,-5.0655,-4.8659,-4.8403,-4.8599,-4.8288,-4.9189,-5.0679,-5.2456,0.0,0.0,0.0,0.0,0.0,0.0,0.0,0.0,0.0,0.0,0.0,0.0,0.0,0.0,0.0,0.0,0.0,0.0,0.0,0.0,0.0,0.0,0.0,-7.1552,-7.1552,-7.2052,-7.2952,-7.2983,-7.3106,-7.3383,-7.3137,-7.3783,-7.5415,-7.5138,-7.5538,-7.6585,-7.6215,-7.5661,-7.5015,-7.5692,-7.5784,-7.5476,-7.6554,-7.6646,-7.6031,-7.6308,-7.6031,-7.5476,-7.5846,-7.6184,-7.6523,-7.72,-7.7693,-7.8062,0.0,0.0,-4.744,-4.744,-4.744,-4.7597,-4.812,-4.734,-4.7017,0.0,-4.7974,-4.7819,-4.7745,-4.5915,-4.467,-4.4705,-4.2839,-4.1646,-4.1647,-4.1409,-4.1435,-4.1647,-4.1647,-4.157,-4.126,-4.1312,-4.1261,-4.1324,-4.2317,-4.2317,-4.1324,-4.1847,-4.2134,-4.2317,-4.3912,-4.5349,-4.6656,-4.7728,0.0,-5.098,-5.3076,-5.5652,0.0,0.0,-6.2151,-6.4665,-6.278,-6.2869,-6.3887,-6.377,-6.247,-6.0398,-5.6472,-5.4257,-5.2452,-4.9244,-4.8,-4.7634,-4.7963,-4.8094,-4.8563,-5.0793,-5.2712,0.0,0.0,0.0,0.0,0.0,0.0,0.0,0.0,0.0,0.0,0.0,0.0,0.0,0.0,0.0,0.0,0.0,0.0,0.0,0.0,0.0,-6.9406,-7.0793,-7.0979,-7.1472,-7.2706,-7.2829,-7.3137,-7.3753,-7.326,-7.3876,-7.5784,-7.5261,-7.5292,-7.5907,-7.5907,-7.5538,-7.4922,-7.56,-7.5907,-7.5938,-7.6708,-7.6677,-7.6184,-7.6769,-7.6615,-7.6031,-7.6092,-7.6492,-7.7108,-7.7785,-7.8093,-7.8247,-4.6917,-4.7545,-4.8015,-4.8015,-4.8015,-4.8041,-4.8172,-4.8041,-4.8015,-4.8172,-4.6604,-4.5348,-4.5391,-4.4995,-4.4701,-4.4731,-4.4309,-4.4045,-4.4072,-4.2344,-4.2136,-4.3914,-4.4067,-4.3198,-4.1388,-4.1282,-4.1328,-4.1324,-4.1533,-4.1533,-4.1324,-4.1428,-4.1797,-4.2502,-4.3518,-4.5192,-4.7205,-4.7885,0.0,-5.1081,-5.3951,0.0,-5.7904,-6.0077,-6.2271,-6.4006,-6.26,-6.26,-6.3142,-6.1997,-6.1083,-5.9792,-5.6335,-5.5441,-5.479,-5.0221,-4.9276,-4.926,-4.7801,-4.7492,-4.7649,-4.8679,-4.9811,0.0,0.0,0.0,0.0,0.0,0.0,0.0,0.0,0.0,0.0,0.0,0.0,0.0,0.0,0.0,0.0,0.0,0.0,0.0,0.0,0.0,-6.8685,-7.0095,-7.0618,-7.1046,-7.129,-7.1844,-7.2244,-7.2368,-7.2768,-7.3445,-7.4368,-7.4799,-7.5076,-7.5199,-7.5199,-7.483,-7.4214,-7.4892,-7.5199,-7.5261,-7.6492,-7.6954,-7.6831,-7.6954,-7.6615,-7.6061,-7.6615,-7.6892,-7.7108,-7.7785,-7.8401,-7.8986,-4.7283,-4.7806,-4.8172,-4.8172,-4.8172,-4.8172,-4.8172,-4.8172,-4.8172,-4.8172,-4.7134,-4.6424,-4.6386,-4.5901,-4.5382,-4.4692,-4.4722,-4.4722,-4.4722,-4.4699,-4.4699,-4.4722,-4.4705,-4.3599,-4.1338,-4.1284,-4.1253,-4.1324,-4.1324,-4.1324,-4.1324,-4.1279,-4.1544,-4.1996,-4.3666,-4.5219,-4.6759,0.0,-5.0054,-5.1872,-5.4414,0.0,-5.8597,-6.0005,-6.1792,-6.3295,-6.2057,-6.2496,-6.3324,-6.1553,-6.0594,-5.9655,-5.6584,-5.531,-5.4267,-5.118,-5.0405,-5.01,-4.8668,-4.8198,-4.8277,-4.8564,-4.9061,0.0,0.0,0.0,0.0,0.0,0.0,0.0,0.0,0.0,0.0,0.0,0.0,0.0,0.0,0.0,0.0,0.0,0.0,0.0,0.0,0.0,-6.7758,-6.9123,-7.028,-7.089,-7.089,-7.1598,-7.1967,-7.1967,-7.2645,-7.3322,-7.3968,-7.4338,-7.4491,-7.4491,-7.4491,-7.4338,-7.403,-7.4707,-7.5199,-7.5569,-7.6585,-7.7016,-7.7016,-7.7016,-7.6831,-7.6585,-7.7262,-7.7539,-7.7662,-7.8678,-7.9293,-7.9694,-4.7492,-4.7885,-4.8172,-4.8172,-4.8172,-4.8172,-4.8172,-4.8172,-4.8172,-4.8172,-4.8353,-4.8515,-4.8539,-4.7713,-4.6621,-4.5503,-4.5529,-4.5667,-4.5339,-4.7542,-4.7873,-4.5512,-4.4947,-4.3877,-4.2029,-4.1466,-4.131,-4.1302,-4.1302,-4.1276,-4.1324,-4.1334,-4.1491,-4.203,-4.4377,-4.569,0.0,0.0,0.0,-5.2786,0.0,-5.7192,-5.9388,-5.9743,-6.1091,-6.2563,-6.1206,-6.1844,-6.294,-6.1216,-6.0413,-5.9639,-5.7064,-5.5393,-5.4096,-5.2402,-5.1511,-5.0943,-4.9782,-4.9165,-4.893,-4.9061,-4.8982,-4.939,0.0,0.0,0.0,0.0,0.0,0.0,0.0,0.0,0.0,0.0,0.0,0.0,0.0,0.0,0.0,0.0,0.0,0.0,0.0,0.0,-6.7668,-6.8386,-7.0124,-7.0952,-7.0551,-7.1321,-7.1783,-7.1783,-7.2552,-7.326,-7.3783,-7.3937,-7.3937,-7.3814,-7.3937,-7.3937,-7.3814,-7.4645,-7.5292,-7.5846,-7.6677,-7.7016,-7.7016,-7.7016,-7.7108,-7.7262,-7.7662,-7.7908,-7.8185,-7.9447,-8.0001,-8.0217,-4.8094,-4.8146,-4.8172,-4.8172,-4.8172,-4.8172,-4.8172,-4.8172,-4.8172,-4.8172,-4.9035,-4.9732,-4.9738,-4.9546,-4.8996,-4.7859,-4.8695,-4.8891,-4.7859,-4.9955,-5.0191,-4.7911,-4.5797,-4.4539,-4.4358,-4.2285,-4.1338,-4.131,-4.131,-4.1282,-4.1324,-4.1334,-4.2345,-4.4467,-4.679,0.0,0.0,0.0,-5.0027,0.0,-5.5203,-5.7553,0.0,-5.9248,-6.0231,-6.161,-5.9962,-5.9832,-6.037,0.0,-5.9921,-5.9611,-5.8091,-5.7962,-5.7618,-5.4251,-5.2864,-5.2137,-5.097,-4.9479,-4.8407,-4.8956,-4.8669,-4.8433,-4.9272,0.0,-4.9639,-5.0352,0.0,0.0,0.0,0.0,0.0,0.0,0.0,0.0,0.0,0.0,0.0,0.0,0.0,0.0,0.0,0.0,0.0,-6.8539,-7.0615,-7.1044,-6.9228,-7.0336,-7.1013,-7.1013,-7.2306,-7.3014,-7.3106,-7.3691,-7.3691,-7.3106,-7.3722,-7.3691,-7.3137,-7.443,-7.5046,-7.5199,-7.6461,-7.7016,-7.7016,-7.7016,-7.7385,-7.7847,-7.7354,-7.7508,-7.8124,-7.8924,-7.9601,-8.0217,-4.8172,-4.8172,-4.8172,-4.8172,-4.8172,-4.8172,-4.8172,-4.8172,-4.8303,-4.8669,-4.9127,-4.9429,-4.939,-4.9666,-4.9599,-4.8837,-4.9113,-4.9389,0.0,-4.9075,-4.876,-4.825,-4.7827,-4.6784,-4.4739,-4.3764,-4.3306,-4.3256,-4.1931,-4.1286,-4.1261,-4.1286,-4.2548,-4.4779,-4.5731,0.0,-5.1363,0.0,-4.9706,0.0,0.0,0.0,0.0,-5.8557,-5.8824,-5.9429,-5.9016,-5.9311,-5.9766,0.0,-5.9236,0.0,-5.7304,-5.7358,-5.7678,-5.5208,-5.4445,-5.407,-5.2245,-5.1492,-5.0943,-4.9819,-4.9348,-4.9165,-4.9087,-4.8826,-4.8616,-4.8852,0.0,0.0,0.0,0.0,0.0,0.0,-5.4529,0.0,0.0,0.0,0.0,0.0,0.0,0.0,0.0,0.0,0.0,0.0,0.0,-7.0459,-6.8427,-6.9967,-7.089,-7.089,-7.2244,-7.2983,-7.2983,-7.326,-7.326,-7.2983,-7.326,-7.3476,-7.3599,-7.4553,-7.5199,-7.563,-7.6615,-7.7016,-7.7046,-7.7447,-7.7785,-7.8031,-7.8185,-7.8647,-7.9324,-8.0001,-8.0432,-8.0709,-4.7677,-4.7938,-4.8172,-4.8172,-4.8172,-4.825,-4.8407,-4.8433,-4.8643,-4.9218,-4.9453,-4.961,-4.9766,-5.0263,-5.0324,-4.9837,-5.0063,-5.0315,0.0,0.0,-4.8661,-4.8877,-4.9482,-4.8577,-4.5753,-4.6297,-4.6104,-4.5234,-4.3256,-4.2029,-4.1774,-4.276,-4.3976,-4.5243,-4.5563,-4.9229,-5.4909,0.0,0.0,-5.3067,-5.5332,-5.6907,-5.8071,-5.8366,-5.808,-5.7624,-5.8053,-5.8666,-5.916,-5.8697,-5.8349,0.0,-5.6731,-5.6745,-5.6928,-5.57,-5.5491,-5.5334,-5.3661,-5.3191,-5.2772,-5.123,-5.0368,-4.9819,-4.961,-4.8982,-4.8433,-4.8433,-4.8643,0.0,0.0,0.0,0.0,0.0,0.0,-5.3428,0.0,0.0,0.0,0.0,0.0,0.0,0.0,0.0,0.0,0.0,0.0,0.0,-6.8304,-6.972,-7.0644,-7.0644,-7.1967,-7.2706,-7.2706,-7.2891,-7.2983,-7.2983,-7.2983,-7.3229,-7.3753,-7.4615,-7.5261,-7.5784,-7.6646,-7.7016,-7.7077,-7.7754,-7.8154,-7.8401,-7.9109,-7.9786,-8.0402,-8.0709,-8.0925,-8.1079,-4.6225,-4.7324,-4.8172,-4.8172,-4.8172,-4.8381,-4.8956,-4.9061,-4.9244,0.0,0.0,0.0,0.0,0.0,-5.2178,-5.1589,0.0,-5.2775,-5.156,0.0,-5.1713,-5.0537,-5.0037,-4.927,-4.8172,-5.0264,-4.9793,-4.6463,-4.5245,-4.4084,0.0,-4.6381,-4.7374,-4.6541,-4.7665,-5.0684,-5.5058,-5.4961,-5.5389,-5.608,-5.6209,-5.6405,-5.7085,0.0,-5.8473,-5.6771,-5.6798,0.0,0.0,-5.7747,-5.7407,0.0,0.0,0.0,0.0,-5.5909,-5.5517,-5.5125,0.0,0.0,0.0,-5.3164,-5.157,-5.0028,-5.0603,-4.9871,-4.9061,-4.9061,-4.8616,-4.8381,-4.8982,-4.9139,-4.9165,-4.9139,-4.9191,0.0,0.0,0.0,0.0,0.0,0.0,0.0,0.0,0.0,0.0,0.0,0.0,0.0,-6.8925,-6.9536,-6.9936,-6.9936,-7.129,-7.1998,-7.1998,-7.2645,-7.2983,-7.2983,-7.2983,-7.2983,-7.3076,-7.4399,-7.5015,-7.5107,-7.6431,-7.7016,-7.7077,-7.7754,-7.8432,-7.9139,-7.9817,-8.0463,-8.0956,-8.0371,-8.0525,-8.1079,-4.6225,-4.7324,-4.8172,-4.8172,-4.8172,-4.8512,-4.9479,-4.9322,0.0,0.0,0.0,0.0,0.0,-5.2485,-5.2957,0.0,0.0,-5.3088,-5.2414,-5.2488,0.0,-5.2048,-5.1021,-4.9949,-4.8755,-4.9193,-4.8515,-4.6777,-4.537,0.0,0.0,0.0,0.0,-4.87,0.0,-5.0394,0.0,0.0,0.0,0.0,0.0,-5.7099,-5.7895,0.0,0.0,-5.7425,-5.7791,-5.7817,0.0,-5.766,-5.7791,-5.7765,-5.6798,-5.7033,-5.7399,-5.6249,-5.6066,-5.6144,0.0,0.0,-5.5229,-5.4654,0.0,0.0,-5.2642,-5.1596,-5.0655,-5.0289,-4.9453,-4.8852,-4.9035,-4.9087,-4.8956,-4.8564,-4.8826,-4.8956,0.0,0.0,0.0,0.0,0.0,0.0,0.0,0.0,0.0,0.0,0.0,0.0,0.0,-6.9289,-6.9905,-6.9905,-7.1259,-7.1967,-7.1967,-7.2645,-7.2983,-7.2983,-7.2983,-7.2983,-7.3045,-7.4399,-7.5015,-7.5076,-7.6431,-7.7016,-7.7077,-7.7754,-7.8462,-7.917,-7.9847,-8.0494,-8.1048,-8.0832,-8.0894,-8.1079,-4.4866,-4.6225,-4.7703,-4.8055,-4.8355,-4.8826,0.0,0.0,0.0,0.0,-5.1701,0.0,-5.2485,0.0,-5.3687,0.0,-5.3687,-5.3713,-5.3557,-5.3062,0.0,-5.3608,-5.2318,-5.1092,0.0,-4.9463,-4.8564,-4.7713,-4.6282,-4.5441,0.0,0.0,0.0,0.0,0.0,-5.0227,-5.3234,0.0,-5.5647,0.0,0.0,-5.7358,0.0,0.0,-5.7582,-5.8287,0.0,-5.8287,-5.7974,-5.7974,-5.8078,-5.8026,-5.6876,-5.7163,-5.7686,-5.6562,-5.651,-5.6719,-5.6327,-5.6223,0.0,-5.5804,-5.5255,0.0,-5.4367,-5.3373,-5.238,-5.1831,-5.0786,-5.0097,-5.0552,-4.9996,-4.9363,-4.9531,-4.9285,-4.8878,0.0,-4.8695,0.0,0.0,0.0,0.0,0.0,0.0,0.0,0.0,0.0,0.0,0.0,0.0,-6.9782,-6.9536,-7.089,-7.1475,-7.1229,-7.2152,-7.2614,-7.2645,-7.286,-7.2983,-7.3045,-7.4399,-7.5015,-7.5076,-7.6431,-7.7169,-7.7447,-7.8124,-7.8832,-7.954,-8.0186,-8.0709,-8.1079,-8.1079,-8.1079,-8.1079,-4.2316,-4.4422,-4.6636,-4.8016,-4.8721,0.0,0.0,0.0,-5.123,0.0,-5.2537,-5.3008,-5.4079,-5.4236,-5.4236,-5.4236,-5.4236,-5.4497,-5.5072,-5.4079,0.0,0.0,-5.3629,-5.2681,-5.2485,-5.1268,-5.0086,-4.9035,0.0,0.0,0.0,0.0,0.0,0.0,-4.8303,0.0,-5.2537,-5.3164,-5.4759,-5.685,-5.6824,-5.719,-5.7739,-5.7712,-5.8418,-5.9333,-5.8732,-5.8523,-5.8523,-5.8523,-5.8157,-5.7686,-5.766,-5.7294,-5.685,-5.6824,-5.6798,-5.6824,-5.685,-5.604,-5.5465,-5.6562,-5.5569,0.0,0.0,0.0,-5.4131,-5.3583,-5.2537,-5.2049,-5.3322,-5.1535,-5.0432,-5.1629,-5.0206,-4.8852,0.0,0.0,0.0,0.0,0.0,0.0,0.0,0.0,0.0,0.0,0.0,0.0,0.0,0.0,0.0,-6.892,-7.0151,-7.0551,-6.9905,-7.129,-7.1967,-7.1998,-7.2645,-7.2983,-7.3045,-7.4399,-7.5015,-7.5076,-7.6431,-7.7416,-7.8093,-7.877,-7.9478,-8.0155,-8.0771,-8.1048,-8.091,-8.1079,-8.1079,-8.1079,-4.2821,-4.4199,-4.6217,0.0,-4.9244,-4.9427,0.0,0.0,0.0,0.0,-5.3243,-5.387,-5.4158,-5.4602,-5.4863,-5.4863,-5.4863,0.0,0.0,0.0,0.0,-5.5099,-5.3922,-5.3005,-5.2511,-5.1648,-5.0437,-4.8407,0.0,0.0,-4.5637,0.0,0.0,0.0,0.0,0.0,-5.2563,-5.3556,-5.5334,-5.7399,-5.6981,-5.766,0.0,0.0,-5.8993,-5.9882,-5.8862,-5.8523,-5.8523,-5.8523,-5.8418,-5.8235,-5.7791,-5.7556,-5.7346,-5.6928,-5.6798,-5.6902,-5.732,-5.6928,-5.6536,-5.7268,-5.6798,-5.6223,0.0,0.0,0.0,0.0,-5.4053,-5.3398,-5.2912,-5.1898,-5.0987,-5.0484,-4.9298,-4.8512,0.0,0.0,0.0,0.0,0.0,0.0,0.0,0.0,0.0,0.0,0.0,0.0,0.0,0.0,0.0,-6.892,-6.972,-7.0059,-6.9905,-7.129,-7.1967,-7.1998,-7.2645,-7.2983,-7.3045,-7.4399,-7.5015,-7.5076,-7.6431,-7.7416,-7.8031,-7.8216,-7.9016,-8.0124,-8.0278,-7.9895,-7.9415,-8.0632,-8.1079,-8.091,-4.277,-4.3802,0.0,-4.8033,0.0,0.0,-5.0949,0.0,0.0,-5.353,-5.421,0.0,-5.4916,-5.5046,-5.5099,-5.5099,-5.5099,0.0,-5.5438,0.0,0.0,-5.5125,-5.4497,-5.387,-5.3269,-5.2171,-5.0969,-4.9688,0.0,0.0,-4.6003,0.0,0.0,0.0,0.0,-5.0106,0.0,-5.4262,-5.6144,-5.7974,-5.7137,0.0,0.0,-5.8627,-5.9072,-5.9777,-5.9124,-5.8889,-5.8889,-5.8889,-5.9045,-5.9202,-5.8889,-5.8784,-5.8706,-5.8392,-5.7948,-5.7634,-5.7948,-5.7425,-5.6928,-5.7529,-5.7425,-5.719,-5.719,-5.6928,-5.651,0.0,-5.536,-5.5129,0.0,0.0,0.0,0.0,-4.9897,-4.9348,-4.9427,0.0,0.0,0.0,0.0,0.0,0.0,0.0,0.0,0.0,0.0,0.0,0.0,0.0,0.0,-6.892,-7.0151,-7.0367,-6.9474,-7.1136,-7.1813,-7.1506,-7.2214,-7.286,-7.3445,-7.4522,-7.5169,-7.5507,-7.6862,-7.7847,-7.8524,-7.8832,-7.957,-8.0525,-7.9773,-7.9113,-7.8669,-7.8986,-7.8986,-7.8843,-4.2782,0.0,0.0,0.0,0.0,0.0,0.0,-5.2877,0.0,-5.4863,0.0,-5.5282,-5.5752,-5.5438,-5.5203,-5.5203,0.0,-5.5517,-5.5987,-5.604,-5.583,-5.5334,-5.5177,-5.4863,-5.4183,-5.2618,-5.1732,-5.1601,0.0,0.0,0.0,0.0,0.0,0.0,0.0,0.0,0.0,-5.5072,-5.6954,-5.8314,-5.7242,-5.7529,-5.8627,-5.8627,-5.8993,-5.9464,-5.9464,-5.9464,-5.9464,-5.9464,-5.9803,-6.0222,-6.0222,-6.0222,-6.0222,-6.0222,-5.9516,-5.8732,-5.8732,-5.7895,-5.7137,-5.7634,-5.766,-5.7556,-5.7634,-5.766,-5.7503,-5.6928,-5.651,-5.6955,-5.9256,0.0,0.0,0.0,0.0,0.0,-5.088,0.0,0.0,0.0,0.0,0.0,0.0,0.0,0.0,0.0,0.0,0.0,0.0,0.0,0.0,0.0,-7.0582,0.0,-6.8654,0.0,-7.1353,-7.077,-7.1537,-7.2675,-7.403,-7.4707,-7.5384,-7.6092,-7.7447,-7.8432,-7.9139,-7.9817,-8.0356,-8.0632,-7.8986,-7.8235,-7.7915,-7.6438,-7.5895,-7.583,-4.4619,0.0,0.0,0.0,0.0,-4.9414,-5.3417,-5.4078,-5.4131,-5.4341,-5.4785,-5.5151,-5.5229,-5.5569,-5.5778,-5.5778,-5.6223,0.0,0.0,0.0,0.0,-5.651,-5.5595,-5.4913,-5.4489,-5.3763,-5.2907,-5.1972,0.0,0.0,0.0,0.0,0.0,0.0,0.0,0.0,-5.4027,-5.5857,0.0,-5.7739,-5.7085,-5.7765,-5.9202,-5.9202,-5.9568,-6.0065,-6.0065,-6.0065,-6.0065,-6.0065,-6.0143,-6.0222,-6.0222,-6.0222,-6.0222,-6.0222,-6.0091,-5.9934,-5.9934,-5.9098,-5.8235,-5.834,-5.766,-5.7085,-5.7556,-5.766,-5.7503,-5.6928,-5.7477,-5.8138,-5.8363,0.0,0.0,0.0,0.0,0.0,0.0,0.0,0.0,0.0,0.0,0.0,0.0,0.0,0.0,0.0,0.0,0.0,0.0,0.0,0.0,0.0,0.0,0.0,0.0,0.0,-7.0251,-7.0043,-7.1382,-7.2675,-7.403,-7.4707,-7.5384,-7.6092,-7.7447,-7.8432,-7.9139,-7.9817,-7.9742,-7.8986,-7.7328,-7.5837,-7.4772,-7.4464,-7.3739,-7.3285,-4.5587,0.0,0.0,0.0,0.0,0.0,0.0,-5.1805,0.0,-5.4402,-5.5216,-5.5579,-5.5443,-5.5813,-5.5942,-5.5805,-5.6064,-5.6245,-5.6245,-5.6504,-5.6556,-5.6245,-5.5986,-5.5435,-5.4705,-5.4422,-5.3752,-5.2619,0.0,-5.1022,-4.9631,0.0,0.0,0.0,0.0,-5.2724,0.0,0.0,0.0,-5.766,-5.7686,-5.8366,-5.9385,-5.9699,-6.0169,-6.0692,-6.0692,-6.0875,-6.1084,-6.0797,-6.0875,-6.1136,-6.1136,-6.1136,-6.1136,-6.1136,-6.0927,-6.0692,-6.0692,-6.0065,-5.9411,-5.9411,-5.8993,-5.8575,-5.8549,-5.8314,-5.8026,-5.7739,-5.766,-5.765,-5.7435,-5.9078,0.0,0.0,0.0,0.0,0.0,0.0,-5.687,0.0,0.0,0.0,0.0,0.0,0.0,0.0,0.0,0.0,0.0,0.0,0.0,0.0,0.0,0.0,0.0,0.0,0.0,-7.0338,-7.1139,-7.2491,-7.4522,-7.4861,-7.5569,-7.6615,-7.8001,-7.877,-7.917,-7.9298,-7.8573,-7.7358,-7.5686,-7.4618,-7.3873,-7.296,-7.2606,-7.2532,0.0,-4.6158,0.0,0.0,-4.6677,0.0,-4.7332,-4.9795,-5.2297,-5.4214,-5.5391,-5.5864,-5.5688,-5.607,-5.6122,-5.5842,-5.597,-5.6021,-5.6021,-5.6457,-5.6482,-5.6047,-5.6329,-5.6047,-5.4883,-5.4756,-5.427,0.0,-5.2787,0.0,0.0,0.0,0.0,0.0,0.0,0.0,0.0,0.0,-5.719,-5.7529,-5.8235,-5.8941,-5.962,-6.0195,-6.0797,-6.1293,-6.1293,-6.1581,-6.1894,-6.145,-6.1607,-6.1973,-6.1973,-6.1973,-6.1973,-6.1973,-6.1659,-6.1293,-6.1293,-6.0875,-6.0405,-6.0405,-6.0326,-6.0091,-5.9647,-5.9098,-5.8653,-5.8549,-5.786,-5.7315,-5.7268,-5.9505,0.0,0.0,0.0,0.0,0.0,0.0,0.0,0.0,0.0,0.0,0.0,0.0,0.0,0.0,0.0,0.0,0.0,0.0,0.0,0.0,0.0,-6.9366,-6.7575,0.0,-7.0554,-7.074,-7.0984,-7.2491,-7.5015,-7.5138,-7.5877,-7.7108,-7.8493,-7.9097,-7.8994,-7.8107,-7.6885,-7.5715,-7.4169,-7.3628,-7.3498,-7.2257,-7.2233,-7.2749,0.0,0.0,0.0,0.0,0.0,0.0,-4.9467,-5.0791,-5.1726,-5.2625,-5.4012,-5.5099,-5.5611,-5.6124,-5.6431,-5.6431,-5.6918,-5.7226,-5.7226,-5.7277,-5.7277,-5.7226,-5.6764,-5.6059,-5.5025,-5.4543,-5.4264,0.0,-5.3554,-5.193,0.0,0.0,0.0,0.0,0.0,0.0,0.0,-5.6764,-5.732,-5.6981,-5.8078,-5.9176,-6.0195,-6.0797,-6.1398,-6.1894,-6.1894,-6.1921,-6.1973,-6.1894,-6.1921,-6.1973,-6.1973,-6.1973,-6.1973,-6.1973,-6.1921,-6.1894,-6.1894,-6.1476,-6.1032,-6.1032,-6.0614,-6.0195,-6.0143,-5.9699,-5.915,-5.8627,-5.8636,-5.8833,-5.9121,-5.9669,-6.0515,0.0,0.0,0.0,0.0,0.0,-6.1088,-6.0118,0.0,0.0,0.0,0.0,0.0,0.0,0.0,0.0,0.0,0.0,0.0,0.0,0.0,-6.7634,-6.6607,-6.8304,-6.9366,-6.9976,-7.1197,-7.2983,-7.5015,-7.563,-7.6338,-7.7108,-7.8493,-7.8902,-7.8519,-7.5628,-7.431,-7.4084,-7.2986,-7.2586,-7.2668,-7.2912,-7.3509,-7.3997,0.0,0.0,0.0,0.0,0.0,0.0,0.0,-4.8093,-4.9571,-5.1208,-5.378,-5.5522,-5.5441,-5.6259,-5.659,-5.6302,-5.6529,-5.6656,-5.6656,-5.6656,-5.6656,-5.6656,-5.6428,-5.5897,-5.4845,-5.4946,-5.4693,0.0,0.0,0.0,0.0,0.0,0.0,0.0,0.0,-5.5365,-5.565,-5.6799,-5.7572,-5.7921,-5.9072,-6.0039,-6.0823,-6.1398,-6.1764,-6.1973,-6.1973,-6.1973,-6.1973,-6.1973,-6.1973,-6.1973,-6.1973,-6.1973,-6.1973,-6.1973,-6.1973,-6.1973,-6.1973,-6.179,-6.1633,-6.1633,-6.145,-6.1267,-6.1267,-6.0535,-5.9803,-5.9594,-5.9435,-5.9237,-5.8491,-5.9747,-6.0919,-6.1189,0.0,0.0,0.0,0.0,0.0,-6.215,0.0,-6.3378,0.0,0.0,0.0,0.0,0.0,0.0,0.0,0.0,0.0,-6.6879,0.0,-6.809,-6.7216,-6.8729,-7.0065,-7.1164,-7.212,-7.363,-7.563,-7.5877,-7.6243,-7.6804,-7.6344,-7.6151,-7.5686,-7.4464,-7.3275,-7.2436,-7.245,-7.2369,-7.2396,-7.264,-7.3346,-7.4133,-4.6266,0.0,-4.6088,0.0,-4.5451,-4.5336,-4.5167,-4.7001,-4.8825,-5.0544,-5.3936,-5.593,-5.5641,-5.6283,-5.651,-5.6219,-5.6219,-5.6219,-5.6219,-5.6219,-5.6219,-5.6219,-5.6219,0.0,-5.4838,-5.5039,-5.4762,-5.3959,-5.4587,0.0,-5.3356,-5.3582,-5.4124,0.0,-5.4924,-5.5395,-5.6184,-5.7021,-5.7848,-5.8627,-5.996,-6.0744,-6.1189,-6.1764,-6.1973,-6.1973,-6.1973,-6.1973,-6.1973,-6.1973,-6.1973,-6.1973,-6.1973,-6.1973,-6.1973,-6.1973,-6.1973,-6.1973,-6.1973,-6.1973,-6.1973,-6.1973,-6.1973,-6.1973,-6.1973,-6.1058,-6.0117,-5.9777,-5.9448,-5.8853,-5.7939,-5.8997,-6.0119,-6.02,0.0,0.0,0.0,-6.2466,0.0,-6.3249,-6.4891,-6.5735,-6.474,0.0,0.0,0.0,0.0,0.0,0.0,0.0,0.0,0.0,0.0,0.0,0.0,-6.9215,-7.0582,-7.1998,-7.286,-7.3961,-7.5317,-7.5286,-7.5502,-7.5816,-7.4605,-7.3956,-7.3873,-7.3432,-7.2513,-7.1555,-7.2342,-7.264,-7.2695,-7.302,-7.3699,-7.4377,-4.6543,-4.63,-4.5995,-4.5221,-4.5002,-4.5147,-4.5602,-4.841,-5.0696,-5.1224,-5.4199,-5.6194,-5.6194,-5.6219,-5.6219,-5.6219,-5.6219,-5.6219,-5.6219,-5.6219,-5.6219,0.0,0.0,-5.5942,-5.539,-5.4863,-5.4561,-5.4561,0.0,0.0,-5.0469,-4.9916,-5.1423,-5.4536,-5.4429,-5.4759,-5.5791,-5.7294,-5.807,-5.8653,-6.0405,-6.111,-6.1189,-6.1764,-6.1973,-6.1973,-6.1973,-6.1973,-6.1973,-6.1973,-6.1973,-6.1973,-6.1973,-6.1973,-6.1973,-6.1973,-6.1973,-6.1973,-6.1973,-6.1973,-6.1973,-6.1973,-6.1973,-6.1973,-6.1973,-6.1058,-5.9908,-5.8758,-5.8078,-5.766,-5.766,-5.7216,-5.7399,-5.9072,0.0,0.0,-5.9721,-6.247,-6.412,-6.2668,-6.3325,-6.519,-6.8064,0.0,0.0,0.0,0.0,0.0,0.0,0.0,0.0,-6.8631,-6.8071,0.0,-6.8728,-6.9489,-7.0582,-7.1998,-7.3322,-7.3845,-7.3762,-7.3545,-7.3792,-7.443,-7.3302,-7.3311,-7.3717,-7.2222,-7.1474,-7.1609,-7.2803,-7.3292,-7.3427,-7.4567,-7.5001,-7.5001,-4.5387,-4.5366,-4.5429,-4.5436,-4.5457,-4.5623,-4.6057,-4.706,-4.8194,-4.9428,-5.1747,-5.3823,-5.4932,-5.5831,-5.6219,0.0,-5.6219,-5.6219,0.0,-5.6219,-5.6219,-5.6219,-5.6219,-5.5968,-5.539,-5.5214,-5.4938,-5.4561,0.0,0.0,0.0,-5.4361,-5.4461,-5.5114,-5.5081,-5.5761,-5.6867,-5.7369,-5.8626,-6.0352,-6.0605,-6.1048,-6.1711,-6.1594,-6.1823,-6.1973,-6.1973,-6.1973,-6.1973,-6.1973,-6.1973,-6.1973,-6.1973,-6.1973,-6.1973,-6.1973,-6.1973,-6.1973,-6.1973,-6.1973,-6.1973,-6.1973,-6.1973,-6.1973,-6.1973,-6.1058,-6.0013,-5.9255,-5.8653,-5.8235,-5.8235,-5.8104,-5.8157,-5.8706,-5.972,-6.0264,-5.972,-6.2399,-6.4133,-6.3837,-6.5548,-6.6755,0.0,-6.7565,0.0,0.0,0.0,0.0,0.0,0.0,0.0,0.0,-6.8388,0.0,-6.9415,-6.9586,-7.0945,-7.3353,-7.2637,-7.2464,-7.29,-7.217,-7.2176,-7.2651,-7.1823,-7.1673,-7.2222,-7.1796,-7.1718,-7.2152,-7.2966,-7.3536,-7.3943,-7.4323,-7.4703,-7.4974,-4.5726,-4.5768,-4.5892,-4.6368,-4.643,-4.6533,-4.6803,-4.7334,-4.8124,-4.9206,-5.1041,-5.264,-5.3754,-5.4391,0.0,-5.6698,-5.6846,-5.6846,-5.6846,-5.6846,-5.6846,-5.6846,-5.6846,-5.6595,-5.6018,-5.5792,0.0,-5.4888,-5.5365,-5.5767,-5.6093,-5.5742,-5.5516,-5.539,-5.5591,-5.6428,-5.7713,-5.8148,-5.9385,-6.1136,-6.1048,-6.1484,-6.1973,-6.1672,-6.1823,-6.1973,-6.1973,-6.1973,-6.1973,-6.1973,-6.1973,-6.1973,-6.1973,-6.1973,-6.1973,-6.1973,-6.1973,-6.1973,-6.1973,-6.1973,-6.1973,-6.1973,-6.1973,-6.1921,-6.1685,-6.0901,-6.0065,-5.949,-5.8915,-5.8523,-5.8523,-5.8523,-5.8523,-5.8523,-5.9387,-5.9996,-5.9778,-6.2337,-6.4309,-6.4624,-6.6314,0.0,0.0,-6.7894,-6.7888,0.0,0.0,0.0,0.0,0.0,0.0,-6.8427,-6.8789,0.0,-6.9714,-6.9714,-7.0649,-7.2601,-7.1546,-7.1223,-7.1654,-7.0941,-7.0796,-7.1058,-7.1028,-7.1148,-7.1474,-7.1474,-7.1826,-7.2423,-7.3048,-7.3672,-7.4214,-7.4404,-7.473,-7.4974,-4.6989,-4.7092,-4.7217,0.0,-4.7693,0.0,-4.7693,-4.8975,-4.9958,-4.9958,-5.1394,-5.2537,-5.2537,-5.256,-5.4006,-5.7371,0.0,0.0,0.0,-5.7901,-5.7901,-5.7901,-5.7901,-5.765,-5.7097,-5.6595,-5.6068,-5.5566,-5.5039,-5.4787,-5.4787,-5.4787,-5.5064,-5.5591,-5.6093,-5.7061,-5.8353,-5.943,-6.0392,-6.1215,-6.1764,-6.1973,-6.1973,-6.1973,-6.1973,-6.1973,-6.1973,-6.1973,-6.1973,-6.1973,-6.1973,-6.1973,-6.1973,-6.1973,-6.1973,-6.1973,-6.1973,-6.1973,-6.1973,-6.1973,-6.1973,-6.1973,-6.1973,-6.1842,-6.1293,-6.0692,-6.0065,-5.9542,-5.8941,-5.8523,-5.8523,-5.8523,-5.8523,-5.8523,-5.9707,-6.0566,-6.013,-6.2651,-6.4774,-6.5098,0.0,0.0,0.0,-6.8265,-6.821,0.0,0.0,0.0,0.0,0.0,-6.872,-6.9635,-6.9351,-6.9245,-6.9585,-6.9734,-6.9928,-7.0296,-7.0214,-7.022,-7.0007,-6.9762,-6.9737,-6.9846,-7.0985,-7.1474,-7.1474,-7.1528,-7.1881,-7.2505,-7.3129,-7.3726,-7.4296,-7.4838,-7.5028,-7.5028,0.0,0.0,-4.7568,-4.7672,-4.7693,-4.7693,-4.7693,-4.8004,-4.8336,-4.8336,-5.0076,-5.1419,-5.1419,-5.2895,-5.4257,-5.5061,-5.5638,-5.6461,-5.775,-5.7901,-5.7901,-5.7901,-5.7901,-5.7826,-5.77,-5.7575,-5.7449,-5.7298,-5.7173,-5.7097,-5.7097,-5.7097,-5.7173,-5.7298,-5.7449,-5.825,-5.9506,-5.9788,-6.0599,-6.179,-6.1594,-6.1672,-6.1973,-6.1646,-6.1672,-6.1973,-6.1973,-6.1973,-6.1973,-6.1973,-6.1973,-6.1973,-6.1973,-6.1973,-6.1973,-6.1973,-6.1973,-6.1973,-6.1973,-6.1973,-6.1973,-6.1973,-6.1973,-6.1921,-6.179,-6.0953,-6.0169,-6.0039,-5.9228,-5.8523,-5.8523,-5.8523,-5.8523,-5.8523,-6.0647,-6.232,-6.2361,-6.4872,-6.6813,0.0,-6.6931,-6.7096,-6.7145,-6.8001,-6.8732,0.0,0.0,0.0,0.0,-6.8194,-6.7184,-6.7546,-6.9976,-7.0274,-6.8093,-6.9553,-6.962,-6.8461,-6.9635,-6.9876,-6.9187,-6.9514,-6.9954,-7.0415,-7.1175,-7.1474,-7.1528,-7.1962,-7.2505,-7.3129,-7.3753,-7.4323,-7.4838,-7.4974,-7.5028,-7.5028,-4.7962,-4.8003,-4.8065,-4.8272,-4.8314,-4.8314,-4.8314,-4.8314,-4.8314,-4.8314,-4.9344,-5.0143,-5.0143,-5.1195,-5.216,-5.2988,-5.492,-5.6371,-5.7352,-5.8146,-5.8629,-5.8629,-5.8629,-5.8529,-5.8278,-5.8278,-5.8152,-5.7901,-5.7901,-5.7901,-5.7901,-5.7901,-5.8027,-5.8278,-5.8404,-5.9161,-6.0275,-6.0426,-6.1059,-6.1973,-6.1823,-6.1823,-6.1973,-6.1823,-6.1823,-6.1973,-6.1973,-6.1973,-6.1973,-6.1973,-6.1973,-6.1973,-6.1973,-6.1973,-6.1973,-6.1973,-6.1973,-6.1973,-6.1973,-6.1973,-6.1973,-6.1973,-6.1973,-6.1973,-6.1973,-6.1267,-6.0561,-6.0274,-5.9516,-5.8836,-5.8549,-5.8523,-5.8523,-5.8523,-6.0372,-6.1975,-6.2214,-6.4822,-6.6743,-6.6774,-6.6891,-6.7254,-6.803,-6.8219,-6.8654,-6.9645,-6.9712,0.0,-6.9786,-6.808,-6.7559,-6.813,-6.91,-6.9175,-6.8336,-6.8937,-6.8809,-6.7892,-6.8751,-6.9081,-6.8787,-6.9411,-7.0036,-7.0632,-7.1229,-7.1474,-7.1528,-7.2125,-7.2749,-7.3346,-7.3943,-7.4513,-7.5028,-7.5028,-7.5028,-7.5028,-4.8396,-4.8479,-4.8603,-4.8997,-4.9059,-4.9059,-4.9059,-4.9059,-4.9059,-4.9059,-4.9059,-4.9059,-4.9059,-4.9059,-4.9721,-5.1179,-5.4278,-5.6399,-5.69,-5.8344,-5.9173,-5.9508,-5.9483,-5.9282,-5.8855,-5.883,-5.8604,-5.8152,-5.8152,-5.8152,-5.8152,-5.8152,-5.8378,-5.883,-5.911,-5.982,-6.0737,-6.1193,-6.1495,-6.1973,-6.1973,-6.1973,-6.1973,-6.1973,-6.1973,-6.1973,-6.1973,-6.1973,-6.1973,-6.1973,-6.1973,-6.1973,-6.1973,-6.1973,-6.1973,-6.1973,-6.1973,-6.1973,-6.1973,-6.1973,-6.1973,-6.1973,-6.1973,-6.1973,-6.1973,-6.1529,-6.0953,-6.0352,-5.9777,-5.9202,-5.8627,-5.8523,-5.8601,-5.8862,-6.0007,-6.1111,-6.1576,-6.4152,-6.607,-6.6078,-6.6308,-6.745,-6.9684,-6.8796,-6.869,-7.0068,-7.0277,-6.9939,-6.8725,-6.8208,-6.8385,-6.9305,-6.786,-6.781,-6.9405,-6.8353,-6.7892,-6.7892,-6.7892,-6.8245,-6.8923,-6.9466,-7.009,-7.0741,-7.1257,-7.1528,-7.1664,-7.2261,-7.2858,-7.3482,-7.4079,-7.4594,-7.5028,-7.5028,-7.5028,-7.5028,-4.8955,-4.8955,-4.8976,-4.9059,-4.9059,-4.9059,-4.9059,-4.9059,-4.9059,-4.9059,-4.9059,-4.9059,-4.9059,-4.9059,-4.923,-4.9551,-5.1347,-5.3788,-5.6717,-5.7218,-5.8031,-5.9483,-5.9483,-5.9458,-5.9382,-5.9382,-5.9332,-5.9257,-5.9257,-5.9257,-5.9257,-5.9257,-5.9282,-5.9382,-5.9382,-5.987,-6.0737,-6.0737,-6.1193,-6.1973,-6.1973,-6.1973,-6.1973,-6.1973,-6.1973,-6.1973,-6.1973,-6.1973,-6.1973,-6.1973,-6.1973,-6.1973,-6.1973,-6.1973,-6.1973,-6.1973,-6.1973,-6.1973,-6.1973,-6.1973,-6.1973,-6.1973,-6.1973,-6.1973,-6.1973,-6.1529,-6.0953,-6.0352,-5.9777,-5.9202,-5.8627,-5.8523,-5.8993,-6.0483,-6.1874,-6.3012,-6.3666,-6.5647,-6.6645,-6.5685,-6.6141,-6.746,-7.0155,-7.0243,-7.0496,-7.1478,-7.2143,-7.1127,-6.7917,-6.7714,-6.7718,-6.7664,-6.8688,-6.9499,-7.0051,-6.8572,-6.7892,-6.7892,-6.7892,-6.8489,-6.9574,-6.9656,-7.0307,-7.1365,-7.1447,-7.1772,-7.2288,-7.2885,-7.3509,-7.4106,-7.4676,-7.4947,-7.5028,-7.5028,-7.5028,-7.5028,-4.9059,-4.9059,-4.9059,-4.9059,-4.9059,-4.9059,-4.9059,-4.9059,-4.9059,-4.9059,-4.9059,-4.9059,-4.9059,-4.9059,-4.9059,-4.9059,-4.9891,-5.1347,-5.3952,-5.4928,-5.6239,-5.8031,-5.8031,-5.8525,-5.9483,-5.9483,-5.9483,-5.9483,-5.9483,-5.9483,-5.9483,-5.9483,-5.9483,-5.9483,-5.9817,-5.9971,-6.0431,-6.0889,-6.1344,-6.1672,-6.1973,-6.1973,-6.1973,-6.1973,-6.1973,-6.1973,-6.1973,-6.1973,-6.1973,-6.1973,-6.1973,-6.1973,-6.1973,-6.1973,-6.1973,-6.1973,-6.1973,-6.1973,-6.1973,-6.1973,-6.1973,-6.1973,-6.1973,-6.1973,-6.1973,-6.1764,-6.1398,-6.0823,-6.0248,-5.9647,-5.9072,-5.8732,-5.8784,-5.9594,-6.1685,-6.3006,-6.2361,-6.524,-6.6795,-6.5526,-6.6651,-6.8441,-7.0778,-7.0773,-7.0995,-7.1685,-7.1707,-7.0679,-6.8218,-6.7736,-6.7609,-6.7744,-6.8445,-6.8762,-6.8902,-6.8323,-6.7892,-6.7892,-6.8217,-6.8842,-6.971,-7.0036,-7.066,-7.1501,-7.1826,-7.2098,-7.2451,-7.3373,-7.3943,-7.4241,-7.4784,-7.5028,-7.5028,-7.5028,-7.5028,-7.5028,-4.9059,-4.9059,-4.9059,-4.9059,-4.9059,-4.9059,-4.9059,-4.9059,-4.9059,-4.9059,-4.9059,-4.9059,-4.9059,-4.9059,-4.9059,-4.9059,-4.9059,-4.9721,-5.1032,-5.2326,-5.4115,-5.6239,-5.6717,-5.7534,-5.8837,-5.8837,-5.9173,-5.9483,-5.9173,-5.9173,-5.9483,-5.9483,-5.9483,-5.9508,-5.9971,-6.0125,-6.0125,-6.1041,-6.1344,-6.1495,-6.1823,-6.1973,-6.1973,-6.1973,-6.1973,-6.1973,-6.1973,-6.1973,-6.1973,-6.1973,-6.1973,-6.1973,-6.1973,-6.1973,-6.1973,-6.1973,-6.1973,-6.1973,-6.1973,-6.1973,-6.1973,-6.1973,-6.1973,-6.1973,-6.1973,-6.1973,-6.1816,-6.1241,-6.064,-6.0039,-5.9464,-5.8915,-5.8795,-5.9589,-6.1548,-6.2549,-6.1777,-6.4717,-6.6423,-6.5346,-6.7355,-6.9517,-7.1416,-7.1295,-7.1101,-7.1392,-7.1139,-6.9986,-6.7793,-6.7867,-6.7943,-6.8177,-6.7983,-6.7892,-6.7892,-6.7892,-6.7892,-6.7892,-6.8489,-6.9113,-6.9737,-7.0334,-7.0931,-7.1501,-7.2098,-7.2451,-7.2668,-7.3753,-7.4269,-7.4431,-7.4838,-7.5028,-7.5028,-7.5028,-7.5028,-7.5028,-4.9059,-4.9059,-4.9059,-4.9059,-4.9059,-4.9059,-4.9059,-4.9059,-4.9059,-4.9059,-4.9059,-4.9059,-4.9059,-4.9059,-4.9059,-4.9059,-4.9059,-4.923,-4.923,-4.9401,-5.1032,-5.4278,-5.6079,-5.69,-5.7059,-5.7059,-5.7873,-5.9483,-5.7873,-5.7873,-5.9483,-5.9483,-5.9483,-5.9508,-5.9971,-6.0125,-6.0125,-6.1041,-6.1344,-6.1495,-6.1823,-6.1973,-6.1973,-6.1973,-6.1973,-6.1973,-6.1973,-6.1973,-6.1973,-6.1973,-6.1973,-6.1973,-6.1973,-6.1973,-6.1973,-6.1973,-6.1973,-6.1973,-6.1973,-6.1973,-6.1973,-6.1973,-6.1973,-6.1973,-6.1973,-6.1973,-6.1816,-6.1241,-6.064,-6.0039,-5.9464,-5.8915,-5.9563,-6.2818,-6.2509,-6.2643,-6.4968,-6.5502,-6.553,-6.5162,-6.7551,-7.0047,-7.2169,-7.234,-7.1959,-7.0875,-7.1144,-6.965,-6.5591,-6.7697,-6.8762,-6.7882,-6.7838,-6.7892,-6.7892,-6.7892,-6.7892,-6.7892,-6.8489,-6.9113,-6.9737,-7.0334,-7.0931,-7.1501,-7.2098,-7.2695,-7.3265,-7.3916,-7.4486,-7.4947,-7.5001,-7.5028,-7.5028,-7.5028,-7.5028,-7.5028,-4.9059,-4.9059,-4.9059,-4.9059,-4.9059,-4.9059,-4.9059,-4.9059,-4.9059,-4.9059,-4.9059,-4.9059,-4.9059,-4.9059,-4.9059,-4.9059,-4.9059,-4.9059,-4.9059,-4.9059,-5.021,-5.2658,-5.4278,-5.5251,-5.5251,-5.6399,-5.6717,-5.6239,-5.6717,-5.7218,-5.7873,-5.7873,-5.8525,-5.9483,-5.9663,-5.9817,-6.0125,-6.0737,-6.1193,-6.1495,-6.1823,-6.1973,-6.1973,-6.1973,-6.1973,-6.1973,-6.1973,-6.1973,-6.1973,-6.1973,-6.1973,-6.1973,-6.1973,-6.1973,-6.1973,-6.1973,-6.1973,-6.1973,-6.1973,-6.1973,-6.1973,-6.1973,-6.1973,-6.1973,-6.1973,-6.1973,-6.1894,-6.1685,-6.0875,-6.0143,-5.9934,-5.9437,-5.9916,-6.231,-6.2729,-6.3418,-6.5,-6.5754,-6.5917,-6.5761,-6.7911,-6.981,-7.0988,-7.0703,-7.0447,-7.0362,-6.9849,-6.8698,-6.6984,-6.7873,-6.8229,-6.7892,-6.7892,-6.7892,-6.7892,-6.7892,-6.7892,-6.7892,-6.8896,-6.9493,-6.9737,-7.0714,-7.1257,-7.1528,-7.2505,-7.2858,-7.2803,-7.378,-7.4323,-7.4486,-7.4486,-7.4703,-7.5028,-7.5028,-7.5028,-7.5028,-4.9059,-4.9059,-4.9059,-4.9059,-4.9059,-4.9059,-4.9059,-4.9059,-4.9059,-4.9059,-4.9059,-4.9059,-4.9059,-4.9059,-4.9059,-4.9059,-4.8935,-4.8852,-4.8852,-4.8852,-4.9404,-5.0864,-5.2492,-5.346,-5.346,-5.4604,-5.4928,-5.4278,-5.4928,-5.5919,-5.6876,-5.6876,-5.7873,-5.9508,-5.9637,-5.9817,-6.0125,-6.0737,-6.1041,-6.1495,-6.1823,-6.1973,-6.1973,-6.1973,-6.1973,-6.1973,-6.1973,-6.1973,-6.1973,-6.1973,-6.1973,-6.1973,-6.1973,-6.1973,-6.1973,-6.1973,-6.1973,-6.1973,-6.1973,-6.1973,-6.1973,-6.1973,-6.1973,-6.1973,-6.1973,-6.1973,-6.1973,-6.1973,-6.1319,-6.0771,-6.0771,-6.0603,-6.0986,-6.2723,-6.3386,-6.4049,-6.5474,-6.6115,-6.6374,-6.6413,-6.8207,-6.9742,-7.0164,-6.9826,-6.9686,-6.9911,-6.8881,-6.802,-6.7838,-6.7892,-6.7892,-6.7892,-6.7892,-6.7892,-6.7892,-6.7892,-6.7892,-6.7919,-6.914,-6.971,-6.9764,-7.0931,-7.1474,-7.1555,-7.2776,-7.2939,-7.2478,-7.3862,-7.435,-7.4214,-7.4377,-7.4676,-7.5028,-7.5028,-7.5028,-7.5028,-4.9059,-4.9059,-4.9059,-4.9059,-4.9059,-4.9059,-4.9059,-4.9059,-4.9059,-4.9059,-4.9059,-4.9059,-4.9059,-4.9059,-4.9059,-4.9059,-4.8645,-4.8376,-4.8376,-4.8376,-4.8583,-4.9038,-5.0696,-5.1682,-5.1682,-5.1682,-5.2492,-5.4278,-5.2492,-5.346,-5.6876,-5.6876,-5.7849,-5.9483,-5.9946,-6.0125,-6.0125,-6.1041,-6.1344,-6.1495,-6.1823,-6.1973,-6.1973,-6.1973,-6.1973,-6.1973,-6.1973,-6.1973,-6.1973,-6.1973,-6.1973,-6.1973,-6.1973,-6.1973,-6.1973,-6.1973,-6.1973,-6.1973,-6.1973,-6.1973,-6.1973,-6.1973,-6.1973,-6.1973,-6.1973,-6.1973,-6.1973,-6.1973,-6.1973,-6.1973,-6.1973,-6.2422,-6.3259,-6.4895,-6.4401,-6.4673,-6.6954,-6.6579,-6.6345,-6.6942,-6.8816,-7.0192,-7.0192,-7.0192,-6.9939,-6.9349,-6.8421,-6.7892,-6.7892,-6.7892,-6.7892,-6.7892,-6.7892,-6.7892,-6.7892,-6.7892,-6.7892,-6.7919,-6.914,-6.971,-6.9764,-7.0931,-7.1474,-7.1555,-7.2776,-7.2939,-7.2505,-7.4269,-7.4676,-7.4241,-7.4784,-7.5028,-7.5028,-7.5028,-7.5028,-7.5028,-4.9059,-4.9059,-4.9059,-4.9059,-4.9059,-4.9059,-4.9059,-4.9059,-4.9059,-4.9059,-4.9059,-4.9059,-4.9059,-4.9059,-4.9059,-4.9059,-4.8645,-4.8376,-4.8376,-4.8686,-4.8914,-4.9059,-4.9551,-4.9891,-4.9891,-5.1032,-5.1347,-5.0696,-5.1347,-5.216,-5.3318,-5.3318,-5.4766,-5.7692,-5.8163,-5.9123,-6.0584,-6.1193,-6.1495,-6.1823,-6.1973,-6.1973,-6.1973,-6.1973,-6.1973,-6.1973,-6.1973,-6.1973,-6.1973,-6.1973,-6.1973,-6.1973,-6.1973,-6.1973,-6.1973,-6.1973,-6.1973,-6.1973,-6.1973,-6.226,-6.2469,-6.2077,-6.1973,-6.1973,-6.1973,-6.1973,-6.2077,-6.2496,-6.226,-6.2254,-6.2922,-6.3968,-6.5091,-6.6103,-6.6491,-6.6996,-6.7913,-6.7211,-6.6806,-6.6996,-6.7968,-6.8627,-6.8627,-6.8243,-6.8078,-6.8325,-6.8089,-6.7892,-6.7892,-6.7892,-6.7892,-6.7892,-6.7892,-6.7892,-6.7892,-6.7892,-6.8109,-6.8516,-6.933,-6.9927,-7.0361,-7.1121,-7.1474,-7.1555,-7.2776,-7.2939,-7.2478,-7.3862,-7.4323,-7.4214,-7.4377,-7.4676,-7.5028,-7.5028,-7.5028,-7.5028,-4.9059,-4.9059,-4.9059,-4.9059,-4.9059,-4.9059,-4.9059,-4.9059,-4.9059,-4.9059,-4.9059,-4.9059,-4.9059,-4.9059,-4.8997,-4.881,-4.821,-4.792,-4.8086,-4.8355,-4.8686,-4.9038,-4.9059,-4.9059,-4.9059,-5.004,-5.021,-4.9059,-5.021,-5.1032,-5.1682,-5.1682,-5.3624,-5.7194,-5.7352,-5.8787,-6.1041,-6.1344,-6.1672,-6.1973,-6.1973,-6.1973,-6.1973,-6.1973,-6.1973,-6.1973,-6.1973,-6.1973,-6.1973,-6.1973,-6.1973,-6.1973,-6.1973,-6.1973,-6.1973,-6.1973,-6.213,-6.2313,-6.2313,-6.2731,-6.3071,-6.2731,-6.2469,-6.2313,-6.2313,-6.2313,-6.2469,-6.3045,-6.3223,-6.368,-6.4727,-6.629,-6.746,-6.778,-6.8378,-6.863,-6.8244,-6.7709,-6.7376,-6.7376,-6.7675,-6.7892,-6.7892,-6.7566,-6.7512,-6.7865,-6.7892,-6.7892,-6.7892,-6.7892,-6.7892,-6.7892,-6.7892,-6.7892,-6.7892,-6.7892,-6.819,-6.8787,-6.9411,-7.0036,-7.0605,-7.1202,-7.1474,-7.1555,-7.2776,-7.2803,-7.2125,-7.359,-7.3889,-7.3509,-7.3997,-7.4377,-7.4703,-7.4947,-7.4893,-7.473,-4.9059,-4.9059,-4.9059,-4.9059,-4.9059,-4.9059,-4.9059,-4.9059,-4.9059,-4.9059,-4.9059,-4.9059,-4.9059,-4.9017,-4.8831,-4.8417,-4.7631,-4.7299,-4.7651,-4.7755,-4.8189,-4.9017,-4.9059,-4.9059,-4.9059,-4.9059,-4.9059,-4.9059,-4.9059,-4.9891,-5.1514,-5.1514,-5.346,-5.7035,-5.7194,-5.8787,-6.1193,-6.1344,-6.1672,-6.1973,-6.1973,-6.1973,-6.1973,-6.1973,-6.1973,-6.1973,-6.1973,-6.1973,-6.1973,-6.1973,-6.1973,-6.1973,-6.1973,-6.1973,-6.1973,-6.1973,-6.2365,-6.2835,-6.2835,-6.328,-6.375,-6.3698,-6.3332,-6.2966,-6.2914,-6.2914,-6.3071,-6.3646,-6.4479,-6.5595,-6.7189,-6.8733,-6.9747,-6.9597,-7.0044,-6.9774,-6.8198,-6.7892,-6.7892,-6.7892,-6.7892,-6.7892,-6.7892,-6.7892,-6.7892,-6.7892,-6.7892,-6.7892,-6.7892,-6.7892,-6.7892,-6.7892,-6.7892,-6.7892,-6.7892,-6.7946,-6.8272,-6.8869,-6.9439,-7.0036,-7.0687,-7.1229,-7.1474,-7.1555,-7.2776,-7.264,-7.1691,-7.3509,-7.359,-7.264,-7.3807,-7.4269,-7.4323,-7.4784,-7.4621,-7.4269,-4.9059,-4.9059,-4.9059,-4.9059,-4.9059,-4.9059,-4.9059,-4.9059,-4.9059,-4.9059,-4.9059,-4.9059,-4.9059,-4.8748,-4.8479,-4.8376,-4.8189,-4.7962,-4.7693,-4.8355,-4.8852,-4.9059,-4.9059,-4.9059,-4.9059,-4.9059,-4.9059,-4.9059,-4.9059,-4.923,-4.9721,-4.9721,-5.1032,-5.3505,-5.5228,-5.7145,-5.9433,-6.1167,-6.1973,-6.1973,-6.1973,-6.1973,-6.1973,-6.1973,-6.1973,-6.1973,-6.1973,-6.1973,-6.1973,-6.1973,-6.1973,-6.1973,-6.1973,-6.1973,-6.1973,-6.1973,-6.2365,-6.2835,-6.2835,-6.3567,-6.4247,-6.3776,-6.3933,-6.4038,-6.3593,-6.3489,-6.3646,-6.4221,-6.4768,-6.5882,-6.8188,-7.0142,-7.0988,-7.0192,-7.119,-7.1044,-6.8323,-6.7892,-6.7892,-6.7892,-6.7892,-6.7892,-6.7892,-6.7892,-6.7892,-6.7892,-6.7892,-6.7892,-6.7892,-6.7892,-6.7892,-6.7892,-6.7892,-6.7892,-6.7892,-6.8353,-6.8896,-6.952,-6.9656,-7.0253,-7.1284,-7.1419,-7.1474,-7.1555,-7.2776,-7.2858,-7.2315,-7.4106,-7.4404,-7.3862,-7.4567,-7.4838,-7.4784,-7.4486,-7.4296,-7.4214,-4.9059,-4.9059,-4.9059,-4.9059,-4.9059,-4.9059,-4.9059,-4.9059,-4.9059,-4.9059,-4.9059,-4.9059,-4.9059,-4.8645,-4.8293,-4.8065,-4.7858,-4.7817,-4.8003,-4.8459,-4.8831,-4.9059,-4.9059,-4.9059,-4.9059,-4.9059,-4.9059,-4.9059,-4.9059,-4.923,-4.9401,-4.9401,-5.0717,-5.3011,-5.4115,-5.6191,-5.9098,-6.0202,-6.1167,-6.1973,-6.1973,-6.1973,-6.1973,-6.1973,-6.1973,-6.1973,-6.1973,-6.1973,-6.1973,-6.1973,-6.1973,-6.2025,-6.2287,-6.2391,-6.2443,-6.2705,-6.3201,-6.3646,-6.3646,-6.4273,-6.4874,-6.456,-6.4717,-6.4796,-6.4221,-6.409,-6.4247,-6.4822,-6.5423,-6.6719,-6.943,-7.0521,-7.1162,-7.1335,-7.1335,-7.0606,-6.8171,-6.7892,-6.7892,-6.7892,-6.7892,-6.7892,-6.7892,-6.7892,-6.7892,-6.7892,-6.7892,-6.7892,-6.7892,-6.7892,-6.7892,-6.7892,-6.7892,-6.7892,-6.7892,-6.8489,-6.9086,-6.971,-7.0008,-7.0605,-7.1474,-7.1474,-7.1636,-7.1962,-7.2885,-7.3102,-7.2912,-7.4106,-7.4269,-7.3807,-7.4404,-7.4431,-7.4187,-7.4187,-7.3997,-7.3753,-4.9059,-4.9059,-4.9059,-4.9059,-4.9059,-4.9059,-4.9059,-4.9059,-4.9059,-4.9059,-4.9059,-4.9038,-4.8955,-4.8459,-4.7962,-4.7506,-4.7258,-4.7465,-4.821,-4.8396,-4.8666,-4.9038,-4.9059,-4.9059,-4.9059,-4.9059,-4.9059,-4.9059,-4.9059,-4.923,-4.9742,-4.9742,-5.0864,-5.3153,-5.3788,-5.5871,-5.8943,-5.9562,-6.0685,-6.1973,-6.1973,-6.1973,-6.1973,-6.1973,-6.1973,-6.1973,-6.1973,-6.1973,-6.1973,-6.1973,-6.2025,-6.2182,-6.2548,-6.2809,-6.3045,-6.341,-6.4012,-6.4534,-6.4534,-6.4953,-6.5371,-6.5371,-6.5371,-6.5266,-6.4796,-6.4665,-6.4822,-6.5292,-6.6316,-6.7963,-7.0639,-7.0842,-7.1044,-7.2314,-7.119,-6.9625,-6.8198,-6.7892,-6.7892,-6.7892,-6.7892,-6.7892,-6.7892,-6.7892,-6.7892,-6.7892,-6.7892,-6.7892,-6.7892,-6.7892,-6.7892,-6.7892,-6.7892,-6.7946,-6.8028,-6.8624,-6.9249,-6.9873,-7.047,-7.1012,-7.1474,-7.1474,-7.1799,-7.2396,-7.302,-7.3292,-7.3346,-7.4051,-7.3916,-7.3346,-7.3943,-7.3807,-7.3346,-7.3726,-7.3563,-7.3156,-4.9059,-4.9059,-4.9059,-4.9059,-4.9059,-4.9059,-4.9059,-4.9059,-4.9059,-4.9059,-4.9059,-4.8914,-4.8521,-4.7713,-4.703,-4.6575,-4.7175,-4.7651,-4.7775,-4.8521,-4.8997,-4.9059,-4.9059,-4.9059,-4.9059,-4.9059,-4.9059,-4.9059,-4.9059,-4.923,-4.9742,-4.9742,-5.0231,-5.158,-5.4604,-5.6375,-5.7352,-6.038,-6.1796,-6.1973,-6.1973,-6.1973,-6.1973,-6.1973,-6.1973,-6.1973,-6.1973,-6.1973,-6.1973,-6.1973,-6.2313,-6.2626,-6.2208,-6.2757,-6.3489,-6.3071,-6.3698,-6.4534,-6.4534,-6.4953,-6.5371,-6.5371,-6.5371,-6.5371,-6.5292,-6.5266,-6.5292,-6.5371,-6.7168,-6.9187,-7.0902,-7.1683,-7.2314,-7.2456,-7.119,-6.9625,-6.8198,-6.7892,-6.7892,-6.7892,-6.7892,-6.7892,-6.7892,-6.7892,-6.7892,-6.7892,-6.7892,-6.7892,-6.7892,-6.7892,-6.7892,-6.7892,-6.7892,-6.8136,-6.8652,-6.9276,-6.9873,-7.0497,-7.1067,-7.1392,-7.1474,-7.1474,-7.1799,-7.2396,-7.302,-7.3292,-7.3373,-7.4459,-7.4269,-7.3346,-7.3943,-7.3807,-7.3237,-7.2776,-7.2559,-7.2559,-4.9017,-4.9059,-4.9059,-4.9059,-4.9059,-4.9059,-4.9059,-4.9059,-4.9059,-4.9059,-4.9059,-4.8893,-4.8417,-4.7568,-4.6947,-4.674,-4.732,-4.7796,-4.8045,-4.8686,-4.9059,-4.9059,-4.9059,-4.9059,-4.9059,-4.9059,-4.9059,-4.9059,-4.9401,-4.9742,-5.0061,-5.0422,-5.076,-5.1623,-5.3056,-5.4951,-5.7035,-5.8476,-6.0227,-6.1973,-6.1973,-6.1973,-6.1973,-6.1973,-6.1973,-6.1973,-6.1973,-6.1973,-6.1973,-6.1973,-6.213,-6.2417,-6.2809,-6.328,-6.375,-6.4142,-6.4613,-6.5005,-6.5005,-6.5188,-6.5371,-6.5371,-6.5371,-6.5371,-6.5371,-6.5555,-6.5713,-6.5713,-6.7449,-6.9486,-7.1221,-7.1423,-7.148,-7.2314,-7.0459,-6.86,-6.8045,-6.7892,-6.7892,-6.7892,-6.7892,-6.7892,-6.7892,-6.7892,-6.7892,-6.7892,-6.7892,-6.7892,-6.7892,-6.7892,-6.7892,-6.7892,-6.7892,-6.819,-6.876,-6.9384,-7.0008,-7.0605,-7.1202,-7.1474,-7.1474,-7.1474,-7.1989,-7.2912,-7.3183,-7.3672,-7.4296,-7.4811,-7.454,-7.3807,-7.4079,-7.3617,-7.2695,-7.2098,-7.2071,-7.2451]},{"header":{"parameterUnit":"m.s-1","parameterCategory":1,"la1":30.6,"la2":28.766,"lo1":-90.7593,"lo2":-88.6598,"dx":0.0162,"dy":0.0183,"nx":116,"ny":114,"refTime":"2023-01-08T06:00:00:Z","depth":0,"parameterNumber":3,"parameterNumberName":"V-component_of_WINDS"},"data":[0.0,0.0,0.0,0.0,0.0,0.0,0.0,0.0,0.0,0.0,0.0,0.0,0.0,0.0,0.0,0.0,0.0,0.0,0.0,0.0,0.0,0.0,0.0,0.0,0.0,0.0,0.0,0.0,0.0,0.0,0.0,0.0,0.0,0.0,0.0,0.0,0.0,0.0,0.0,0.0,0.0,0.0,0.0,0.0,0.0,0.0,0.0,0.0,0.0,0.0,0.0,0.0,0.0,0.0,0.0,0.0,0.0,0.0,0.0,0.0,0.0,0.0,0.0,0.0,0.0,0.0,0.0,0.0,0.0,0.0,0.0,0.0,0.0,0.0,0.0,0.0,0.0,0.0,0.0,0.0,0.0,0.0,0.0,0.0,0.0,0.0,0.0,0.0,0.0,0.0,0.0,0.0,0.0,0.0,0.0,0.0,0.0,0.0,0.0,0.0,0.0,0.0,0.0,0.0,0.0,0.0,0.0,0.0,0.0,0.0,0.0,0.0,0.0,0.0,0.0,0.0,0.0,0.0,0.0,0.0,0.0,0.0,0.0,0.0,0.0,0.0,0.0,0.0,0.0,0.0,0.0,0.0,0.0,0.0,0.0,0.0,0.0,0.0,0.0,0.0,0.0,0.0,0.0,0.0,0.0,0.0,0.0,0.0,0.0,0.0,0.0,0.0,0.0,0.0,0.0,0.0,0.0,0.0,0.0,0.0,0.0,0.0,0.0,0.0,0.0,0.0,0.0,0.0,0.0,0.0,0.0,0.0,0.0,0.0,0.0,0.0,0.0,0.0,0.0,0.0,0.0,0.0,0.0,0.0,0.0,0.0,0.0,0.0,0.0,0.0,0.0,0.0,0.0,0.0,0.0,0.0,0.0,0.0,0.0,0.0,0.0,0.0,0.0,0.0,0.0,0.0,0.0,0.0,0.0,0.0,0.0,0.0,0.0,0.0,0.0,0.0,0.0,0.0,0.0,0.0,0.0,0.0,0.0,0.0,0.0,0.0,0.0,0.0,0.0,0.0,0.0,0.0,0.0,0.0,0.0,0.0,0.0,0.0,0.0,0.0,0.0,0.0,0.0,0.0,0.0,0.0,0.0,0.0,0.0,0.0,0.0,0.0,0.0,0.0,0.0,0.0,0.0,0.0,0.0,0.0,0.0,0.0,0.0,0.0,0.0,0.0,0.0,0.0,0.0,0.0,0.0,0.0,0.0,0.0,0.0,0.0,0.0,0.0,0.0,0.0,0.0,0.0,0.0,0.0,0.0,0.0,0.0,0.0,0.0,0.0,0.0,0.0,0.0,0.0,0.0,0.0,0.0,0.0,0.0,0.0,0.0,0.0,0.0,0.0,0.0,0.0,0.0,0.0,0.0,0.0,0.0,0.0,0.0,0.0,0.0,0.0,0.0,0.0,0.0,0.0,0.0,0.0,0.0,0.0,0.0,0.0,0.0,0.0,0.0,0.0,0.0,0.0,0.0,0.0,0.0,0.0,0.0,0.0,0.0,0.0,0.0,0.0,0.0,0.0,0.0,0.0,0.0,0.0,0.0,0.0,0.0,0.0,0.0,0.0,0.0,0.0,0.0,0.0,0.0,0.0,0.0,0.0,0.0,0.0,0.0,0.0,0.0,0.0,0.0,0.0,0.0,0.0,0.0,0.0,0.0,0.0,0.0,0.0,0.0,0.0,0.0,0.0,0.0,0.0,0.0,0.0,0.0,0.0,0.0,0.0,0.0,0.0,0.0,0.0,0.0,0.0,0.0,0.0,0.0,0.0,0.0,0.0,0.0,0.0,0.0,0.0,0.0,0.0,0.0,0.0,0.0,0.0,0.0,0.0,0.0,0.0,0.0,0.0,0.0,0.0,0.0,0.0,0.0,0.0,0.0,0.0,0.0,0.0,0.0,0.0,0.0,0.0,0.0,0.0,0.0,0.0,0.0,0.0,0.0,0.0,0.0,0.0,0.0,0.0,0.0,0.0,0.0,0.0,0.0,0.0,0.0,0.0,0.0,0.0,0.0,0.0,0.0,0.0,0.0,0.0,0.0,0.0,0.0,0.0,0.0,0.0,0.0,0.0,0.0,0.0,0.0,0.0,0.0,0.0,0.0,0.0,0.0,0.0,0.0,0.0,0.0,0.0,0.0,0.0,0.0,0.0,0.0,0.0,0.0,0.0,0.0,0.0,0.0,0.0,0.0,0.0,0.0,0.0,0.0,0.0,0.0,0.0,0.0,0.0,0.0,0.0,0.0,0.0,0.0,0.0,0.0,0.0,0.0,0.0,0.0,0.0,0.0,0.0,0.0,0.0,0.0,0.0,0.0,0.0,0.0,0.0,0.0,0.0,0.0,0.0,0.0,0.0,0.0,0.0,0.0,0.0,0.0,0.0,0.0,0.0,0.0,0.0,0.0,0.0,0.0,0.0,0.0,0.0,0.0,0.0,0.0,0.0,0.0,0.0,0.0,0.0,0.0,0.0,0.0,0.0,0.0,0.0,0.0,0.0,0.0,0.0,0.0,0.0,0.0,0.0,0.0,0.0,0.0,0.0,0.0,0.0,0.0,0.0,0.0,0.0,0.0,0.0,0.0,0.0,0.0,0.0,0.0,0.0,0.0,0.0,0.0,0.0,0.0,0.0,0.0,0.0,0.0,0.0,0.0,0.0,0.0,0.0,0.0,0.0,0.0,0.0,0.0,0.0,0.0,0.0,0.0,0.0,0.0,0.0,0.0,0.0,0.0,0.0,0.0,0.0,0.0,0.0,0.0,0.0,0.0,0.0,0.0,0.0,0.0,0.0,0.0,0.0,0.0,0.0,0.0,0.0,0.0,0.0,0.0,0.0,0.0,0.0,0.0,0.0,0.0,0.0,0.0,0.0,0.0,0.0,0.0,0.0,0.0,0.0,0.0,0.0,0.0,0.0,0.0,0.0,0.0,0.0,0.0,0.0,0.0,0.0,0.0,0.0,0.0,0.0,0.0,0.0,0.0,0.0,0.0,0.0,0.0,0.0,0.0,0.0,0.0,0.0,0.0,0.0,0.0,0.0,0.0,0.0,0.0,0.0,0.0,0.0,0.0,0.0,0.0,0.0,0.0,0.0,0.0,0.0,0.0,0.0,0.0,0.0,0.0,0.0,0.0,0.0,0.0,0.0,0.0,0.0,0.0,0.0,0.0,0.0,0.0,0.0,0.0,0.0,0.0,0.0,0.0,0.0,0.0,0.0,0.0,0.0,0.0,0.0,0.0,0.0,0.0,0.0,0.0,0.0,0.0,0.0,0.0,0.0,0.0,0.0,0.0,0.0,0.0,0.0,0.0,0.0,0.0,0.0,0.0,0.0,0.0,0.0,0.0,0.0,0.0,0.0,0.0,0.0,0.0,0.0,0.0,0.0,0.0,0.0,0.0,0.0,0.0,0.0,0.0,0.0,0.0,0.0,0.0,0.0,0.0,0.0,0.0,0.0,0.0,0.0,0.0,0.0,0.0,0.0,0.0,0.0,0.0,0.0,0.0,0.0,0.0,0.0,0.0,0.0,0.0,0.0,0.0,0.0,0.0,0.0,0.0,0.0,0.0,0.0,0.0,0.0,0.0,0.0,0.0,0.0,0.0,0.0,0.0,0.0,0.0,0.0,0.0,0.0,0.0,0.0,0.0,0.0,0.0,0.0,0.0,0.0,0.0,0.0,0.0,0.0,0.0,0.0,0.0,0.0,0.0,0.0,0.0,0.0,0.0,0.0,0.0,0.0,0.0,0.0,0.0,0.0,0.0,0.0,0.0,0.0,0.0,0.0,0.0,0.0,0.0,0.0,0.0,0.0,0.0,0.0,0.0,0.0,0.0,0.0,0.0,0.0,0.0,0.0,0.0,0.0,0.0,0.0,0.0,0.0,0.0,0.0,0.0,0.0,0.0,0.0,0.0,0.0,0.0,0.0,0.0,0.0,0.0,0.0,0.0,0.0,0.0,0.0,0.0,0.0,0.0,0.0,0.0,0.0,0.0,0.0,0.0,0.0,0.0,0.0,0.0,0.0,0.0,0.0,0.0,0.0,0.0,0.0,0.0,0.0,0.0,0.0,0.0,0.0,0.0,0.0,0.0,0.0,0.0,0.0,0.0,0.0,0.0,0.0,0.0,0.0,0.0,0.0,0.0,0.0,0.0,0.0,0.0,0.0,0.0,0.0,0.0,0.0,0.0,0.0,0.0,0.0,0.0,0.0,0.0,0.0,0.0,0.0,0.0,0.0,0.0,0.0,0.0,0.0,0.0,0.0,0.0,0.0,0.0,0.0,0.0,0.0,0.0,0.0,0.0,0.0,0.0,0.0,0.0,0.0,0.0,0.0,0.0,0.0,0.0,0.0,0.0,0.0,0.0,0.0,0.0,0.0,0.0,0.0,0.0,0.0,0.0,0.0,0.0,0.0,0.0,0.0,0.0,0.0,0.0,0.0,0.0,0.0,0.0,0.0,0.0,0.0,0.0,0.0,0.0,0.0,0.0,0.0,0.0,0.0,0.0,0.0,0.0,0.0,0.0,0.0,0.0,0.0,0.0,0.0,0.0,0.0,0.0,0.0,0.0,0.0,0.0,0.0,0.0,0.0,0.0,0.0,0.0,0.0,0.0,0.0,0.0,0.0,0.0,0.0,0.0,0.0,0.0,0.0,0.0,0.0,0.0,0.0,0.0,0.0,0.0,0.0,0.0,0.0,0.0,0.0,0.0,0.0,0.0,0.0,0.0,0.0,0.0,0.0,0.0,0.0,0.0,0.0,0.0,0.0,0.0,0.0,0.0,0.0,0.0,0.0,0.0,0.0,0.0,0.0,0.0,0.0,0.0,0.0,0.0,0.0,0.0,0.0,0.0,0.0,0.0,0.0,0.0,0.0,0.0,0.0,0.0,0.0,0.0,0.0,0.0,0.0,0.0,0.0,0.0,0.0,0.0,0.0,0.0,0.0,0.0,0.0,0.0,0.0,0.0,0.0,0.0,0.0,0.0,0.0,0.0,0.0,0.0,0.0,0.0,0.0,0.0,0.0,0.0,0.0,0.0,0.0,0.0,0.0,0.0,0.0,0.0,0.0,0.0,0.0,0.0,0.0,0.0,0.0,0.0,0.0,0.0,0.0,0.0,0.0,0.0,0.0,0.0,0.0,0.0,0.0,0.0,0.0,0.0,0.0,0.0,0.0,0.0,0.0,0.0,0.0,0.0,0.0,0.0,0.0,0.0,0.0,0.0,0.0,0.0,0.0,0.0,0.0,0.0,0.0,0.0,0.0,0.0,0.0,0.0,0.0,0.0,0.0,0.0,0.0,0.0,0.0,0.0,0.0,0.0,0.0,0.0,0.0,0.0,0.0,0.0,0.0,0.0,0.0,0.0,0.0,0.0,0.0,0.0,0.0,0.0,0.0,0.0,0.0,0.0,0.0,0.0,0.0,0.0,0.0,0.0,0.0,0.0,0.0,0.0,0.0,0.0,0.0,0.0,0.0,0.0,0.0,0.0,0.0,0.0,0.0,0.0,0.0,0.0,0.0,0.0,0.0,0.0,0.0,0.0,0.0,0.0,0.0,0.0,0.0,0.0,0.0,0.0,0.0,0.0,0.0,0.0,0.0,0.0,0.0,0.0,0.0,0.0,0.0,0.0,0.0,0.0,0.0,0.0,0.0,0.0,0.0,0.0,0.0,0.0,0.0,0.0,0.0,0.0,0.0,0.0,0.0,0.0,0.0,0.0,0.0,0.0,0.0,0.0,0.0,0.0,0.0,0.0,0.0,0.0,0.0,0.0,0.0,0.0,0.0,0.0,0.0,0.0,0.0,0.0,0.0,0.0,0.0,0.0,0.0,0.0,0.0,0.0,0.0,0.0,0.0,0.0,0.0,0.0,0.0,0.0,0.0,0.0,0.0,0.0,0.0,0.0,0.0,0.0,0.0,0.0,0.0,0.0,0.0,0.0,0.0,0.0,0.0,0.0,0.0,0.0,0.0,0.0,0.0,0.0,0.0,0.0,0.0,0.0,0.0,0.0,0.0,0.0,0.0,0.0,0.0,0.0,0.0,0.0,0.0,0.0,0.0,0.0,0.0,0.0,0.0,0.0,0.0,0.0,0.0,0.0,0.0,0.0,0.0,-3.1855,0.0,0.0,0.0,0.0,0.0,0.0,0.0,0.0,0.0,0.0,0.0,0.0,0.0,0.0,0.0,0.0,0.0,0.0,0.0,0.0,0.0,0.0,0.0,0.0,-3.8711,-3.8544,-3.8408,-3.8408,0.0,0.0,0.0,0.0,0.0,0.0,0.0,0.0,0.0,0.0,-3.6945,-3.7168,-3.7755,-3.8687,-3.7558,-3.6703,-3.609,0.0,0.0,0.0,0.0,0.0,0.0,0.0,0.0,0.0,0.0,0.0,0.0,0.0,0.0,0.0,0.0,0.0,0.0,0.0,0.0,0.0,0.0,0.0,0.0,0.0,0.0,0.0,0.0,0.0,0.0,0.0,0.0,0.0,0.0,0.0,0.0,0.0,0.0,0.0,0.0,0.0,0.0,0.0,0.0,0.0,0.0,0.0,0.0,0.0,0.0,0.0,0.0,0.0,0.0,0.0,0.0,0.0,0.0,0.0,0.0,0.0,0.0,0.0,0.0,0.0,0.0,0.0,0.0,0.0,0.0,0.0,-3.2559,0.0,0.0,0.0,0.0,0.0,0.0,0.0,0.0,0.0,0.0,0.0,0.0,0.0,0.0,0.0,0.0,0.0,0.0,0.0,0.0,0.0,-3.904,-3.8985,-3.8893,-3.8821,-3.8764,-3.8764,-3.8764,-3.8764,-3.8667,0.0,0.0,0.0,0.0,0.0,0.0,0.0,0.0,-3.8399,-3.9737,-4.1331,-4.0858,-4.0097,-3.8974,-3.74,0.0,0.0,0.0,0.0,0.0,0.0,0.0,0.0,0.0,0.0,0.0,0.0,0.0,0.0,0.0,0.0,0.0,0.0,0.0,0.0,0.0,0.0,0.0,0.0,0.0,0.0,0.0,0.0,0.0,0.0,0.0,0.0,0.0,0.0,0.0,0.0,0.0,0.0,0.0,0.0,0.0,0.0,0.0,0.0,0.0,0.0,0.0,0.0,0.0,0.0,0.0,0.0,0.0,0.0,0.0,0.0,0.0,0.0,0.0,0.0,0.0,0.0,0.0,-3.3848,-3.4219,-3.4316,-3.5059,-3.5273,-3.5,-3.4297,-3.4062,-3.416,-3.3789,0.0,0.0,0.0,0.0,0.0,0.0,0.0,0.0,0.0,0.0,0.0,0.0,0.0,0.0,0.0,0.0,0.0,0.0,0.0,-4.0051,-3.9795,-4.0271,-4.0515,-4.028,-4.0221,-4.0221,-4.0221,-3.9671,0.0,0.0,0.0,0.0,0.0,0.0,0.0,0.0,0.0,-4.2396,-4.3738,-4.3291,-4.3188,-4.3441,-4.0575,0.0,0.0,0.0,0.0,0.0,0.0,0.0,0.0,0.0,0.0,0.0,0.0,0.0,0.0,0.0,0.0,0.0,0.0,0.0,0.0,0.0,0.0,0.0,0.0,0.0,0.0,0.0,0.0,0.0,0.0,0.0,0.0,0.0,0.0,0.0,0.0,0.0,0.0,0.0,0.0,0.0,0.0,0.0,-2.9277,-2.9394,0.0,0.0,0.0,0.0,0.0,0.0,0.0,0.0,0.0,0.0,0.0,0.0,0.0,-3.3066,-3.3809,-3.3867,-3.4082,-3.4453,-3.457,-3.4824,-3.5215,-3.5351,-3.5762,-3.6406,-3.6289,0.0,-3.4609,-3.4551,0.0,0.0,0.0,0.0,0.0,0.0,0.0,0.0,0.0,0.0,0.0,0.0,0.0,0.0,0.0,0.0,0.0,0.0,0.0,0.0,0.0,-4.1559,-4.1996,-4.2261,-4.227,-4.2013,-4.1682,-4.0956,0.0,0.0,0.0,0.0,0.0,0.0,0.0,0.0,-4.4037,-4.4486,-4.531,-4.5279,-4.5204,-4.4874,-4.3891,-4.2149,-3.9929,-3.8974,0.0,0.0,0.0,0.0,0.0,0.0,0.0,0.0,0.0,0.0,0.0,0.0,0.0,0.0,0.0,0.0,0.0,0.0,0.0,0.0,0.0,0.0,0.0,0.0,0.0,0.0,0.0,0.0,0.0,0.0,0.0,0.0,0.0,0.0,0.0,0.0,0.0,0.0,0.0,-2.9219,-2.9746,-3.0254,-3.0312,-3.0664,0.0,0.0,0.0,0.0,0.0,0.0,0.0,0.0,0.0,-3.3516,-3.375,-3.418,-3.4805,-3.4805,-3.5019,-3.5449,-3.5684,-3.5918,-3.6133,-3.6855,-3.7246,-3.7383,-3.7637,-3.7266,-3.6504,-3.625,-3.6152,-3.6211,0.0,0.0,0.0,0.0,-3.6816,-3.6875,0.0,0.0,0.0,0.0,0.0,0.0,0.0,0.0,0.0,0.0,0.0,0.0,-4.2458,-4.326,-4.401,-4.4755,-4.4541,-4.415,-4.3719,-4.2908,0.0,0.0,0.0,0.0,0.0,0.0,0.0,0.0,-4.5595,-4.5809,-4.6595,-4.6764,-4.6627,-4.6083,-4.6701,-4.5352,-4.2486,-4.1418,-4.0238,-3.9002,0.0,0.0,0.0,0.0,0.0,0.0,0.0,0.0,0.0,0.0,0.0,0.0,0.0,0.0,0.0,0.0,0.0,0.0,0.0,0.0,0.0,0.0,0.0,0.0,0.0,0.0,0.0,0.0,0.0,0.0,0.0,0.0,0.0,0.0,0.0,0.0,0.0,-3.0,-3.0391,-3.1269,-3.1289,-3.168,0.0,0.0,0.0,0.0,0.0,0.0,-3.3281,-3.4004,-3.4414,-3.4414,-3.4824,-3.5254,-3.5723,-3.582,-3.6094,-3.6504,-3.6953,-3.7207,-3.7344,-3.8301,-3.8613,-3.8437,-3.8769,-3.873,-3.8379,-3.7617,-3.7305,-3.7324,-3.7637,-3.7773,-3.7773,-3.7773,-3.7832,-3.7988,0.0,0.0,0.0,0.0,0.0,0.0,0.0,0.0,0.0,0.0,0.0,-4.4154,-4.4128,-4.5832,-4.716,-4.7734,-4.7184,-4.673,-4.6666,-4.595,-4.4596,-4.2469,0.0,0.0,0.0,0.0,0.0,-4.5895,-4.5595,-4.6268,-4.7783,-4.7616,-4.7631,-4.8021,-4.8612,-4.7516,-4.5099,-4.4453,-4.3469,-4.2177,-4.0378,0.0,0.0,0.0,0.0,0.0,0.0,0.0,0.0,0.0,0.0,0.0,0.0,0.0,0.0,0.0,0.0,0.0,0.0,0.0,0.0,0.0,0.0,0.0,0.0,0.0,0.0,0.0,0.0,0.0,0.0,0.0,0.0,0.0,0.0,0.0,0.0,0.0,0.0,-3.2598,-3.2344,0.0,0.0,0.0,0.0,-3.3945,-3.4004,-3.418,-3.459,-3.5059,-3.5332,-3.5332,-3.5742,-3.6172,-3.6601,-3.6992,-3.7402,-3.7832,-3.8262,-3.8691,-3.9082,-3.9141,-3.9394,-3.9805,-3.9824,-3.9824,-3.9668,-3.7988,-3.7305,-3.7305,-3.7324,-3.7324,-3.7324,-3.7324,-3.7578,-3.7988,0.0,0.0,0.0,-4.0514,-3.9752,-3.9288,-3.9288,-3.9918,-4.0713,-4.164,-4.2828,-4.4227,-4.6029,-4.7167,-4.8161,-4.9256,-4.9042,-4.8572,-4.8126,-4.784,-4.6982,-4.5122,0.0,0.0,0.0,0.0,-4.7303,-4.8333,-4.8451,-4.8505,-4.8595,-4.9092,-4.907,-4.8752,-4.937,-4.9145,-4.8246,-4.7235,-4.5442,-4.319,-4.2532,-4.0268,0.0,0.0,0.0,0.0,0.0,0.0,0.0,0.0,0.0,0.0,0.0,0.0,0.0,0.0,0.0,0.0,0.0,0.0,0.0,0.0,0.0,0.0,0.0,0.0,0.0,0.0,0.0,0.0,0.0,0.0,0.0,0.0,0.0,0.0,0.0,0.0,0.0,-3.3105,-3.3066,0.0,-3.457,-3.4277,-3.4375,-3.5254,-3.5078,-3.5098,-3.5527,-3.5976,-3.6348,-3.6601,-3.7031,-3.7578,-3.8301,-3.8437,-3.875,-3.9199,-3.9355,-3.9512,-3.9668,-3.9922,-4.0137,-4.0293,-4.0293,-4.0293,-4.0234,-3.9336,-3.8965,-3.8965,-3.8965,-3.8965,-3.8965,-3.8965,-3.9238,-3.9648,0.0,-4.174,0.0,-4.0183,-3.9587,-3.9355,-3.962,-4.0249,-4.1243,-4.27,-4.3887,-4.5472,-4.7861,-4.892,-5.0001,-5.1426,-5.1257,-5.0802,-5.0324,-5.0292,-4.9519,0.0,0.0,0.0,0.0,-4.7346,-4.8391,-4.9669,-4.9907,-5.0025,-4.9982,-5.0805,-5.0889,-5.0403,-5.1051,-5.0617,-4.9681,-4.9186,-4.7383,-4.4753,-4.3942,-4.1663,-3.8566,0.0,0.0,0.0,0.0,0.0,0.0,0.0,0.0,0.0,0.0,0.0,0.0,0.0,0.0,0.0,0.0,0.0,0.0,0.0,0.0,0.0,0.0,0.0,0.0,0.0,0.0,0.0,0.0,0.0,0.0,0.0,0.0,0.0,0.0,0.0,-3.291,-3.375,-3.3984,-3.4492,-3.5508,-3.5332,-3.5449,-3.6191,-3.6113,-3.623,-3.6641,-3.7207,-3.7656,-3.793,-3.8359,-3.8867,-3.9434,-3.957,-3.9805,-4.0098,-4.0254,-4.0332,-4.0332,-4.0605,-4.0742,-4.0742,-4.0742,-4.0742,-4.0723,-4.0586,-4.0527,-4.0488,-4.0059,-3.998,-4.0098,-4.0098,-4.0469,-4.1016,-4.1707,-4.1409,-4.0978,-3.952,-3.9288,-3.952,-4.0282,-4.0978,-4.1972,-4.3403,-4.5797,-4.7959,-4.9398,-5.1132,-5.2754,-5.4211,-5.3725,-5.3337,-5.3258,-5.3369,-5.2188,0.0,0.0,0.0,-4.7811,-4.784,-4.8478,-4.9727,-4.9785,-5.0643,-5.2214,-5.2501,-5.2807,-5.3213,-5.3501,-5.1932,-4.9196,-5.0363,-4.9409,-4.6948,-4.457,-4.3202,-4.2397,0.0,0.0,0.0,0.0,0.0,0.0,0.0,0.0,0.0,0.0,0.0,0.0,0.0,0.0,0.0,0.0,0.0,0.0,0.0,0.0,0.0,0.0,0.0,0.0,0.0,0.0,0.0,0.0,0.0,0.0,0.0,0.0,0.0,-3.2812,-3.3184,-3.3789,-3.4648,-3.5156,-3.5605,-3.6016,-3.6074,-3.6269,-3.6699,-3.7129,-3.7539,-3.7969,-3.8769,-3.9238,-3.9238,-3.9687,-3.9922,-3.9941,-4.0332,-4.0547,-4.0547,-4.0976,-4.1172,-4.1172,-4.1172,-4.1172,-4.1172,-4.1172,-4.1172,-4.1211,-4.1621,-4.1777,-4.166,-4.0449,-4.0215,-4.0586,-4.0566,-4.1094,-4.1855,-4.1707,-4.1409,-4.0978,-3.952,-3.9288,-3.952,-4.0282,-4.1409,-4.2675,-4.4042,-4.6028,-4.7926,-4.9257,-5.0635,-5.1815,-5.2721,-5.311,-5.3182,-5.3063,-5.3648,-5.3145,0.0,0.0,0.0,-4.8449,-4.9407,-5.0278,-5.1091,-5.1815,-5.2665,-5.351,-5.3599,-5.3777,-5.3836,-5.3698,-5.2653,-5.0898,-5.0377,-4.8956,-4.6975,-4.5501,-4.3576,-4.1594,0.0,0.0,0.0,0.0,0.0,0.0,0.0,0.0,0.0,0.0,0.0,0.0,0.0,0.0,0.0,0.0,0.0,0.0,0.0,0.0,0.0,0.0,0.0,0.0,0.0,0.0,0.0,0.0,0.0,0.0,0.0,0.0,-3.3242,-3.3242,-3.3887,-3.4668,-3.5547,-3.6055,-3.6484,-3.6894,-3.7226,-3.7578,-3.8027,-3.8437,-3.8867,-3.9336,-3.957,-3.9844,-4.0156,-4.0273,-4.0508,-4.082,-4.0937,-4.0996,-4.0996,-4.1113,-4.1172,-4.1172,-4.1172,-4.1172,-4.1172,-4.1172,-4.1172,-4.1191,-4.1308,-4.1348,-4.1367,-4.1621,-4.1797,-4.1875,-4.1562,-4.1601,-4.1816,-4.2104,-4.1872,-4.1442,-3.9984,-3.9719,-3.9984,-4.0713,-4.1773,-4.3105,-4.4673,-4.6684,-4.8453,-4.9642,-5.1187,-5.241,-5.3078,-5.379,-5.4066,-5.3787,-5.3844,0.0,0.0,0.0,-5.0367,-4.9553,-5.0801,-5.1788,-5.2426,-5.3492,-5.4446,-5.4944,-5.4766,-5.4713,-5.4685,-5.3385,-5.2212,-5.0777,-4.9551,-4.8027,-4.6488,-4.5872,-4.4279,-4.2134,-4.1774,-4.0739,-3.9465,-3.932,-3.8864,-3.8334,-3.8334,0.0,0.0,0.0,0.0,0.0,0.0,0.0,0.0,0.0,0.0,0.0,0.0,0.0,0.0,0.0,0.0,0.0,0.0,0.0,0.0,0.0,0.0,0.0,0.0,-3.4004,-3.4316,-3.4492,-3.4941,-3.5508,-3.6211,-3.6992,-3.7559,-3.7812,-3.8379,-3.8848,-3.9101,-3.9512,-3.9883,-4.0156,-4.0332,-4.0547,-4.0781,-4.0801,-4.0918,-4.1172,-4.1172,-4.1172,-4.1172,-4.1172,-4.1172,-4.1172,-4.1172,-4.1172,-4.1191,-4.1367,-4.1426,-4.1465,-4.1816,-4.1973,0.0,0.0,0.0,0.0,0.0,-4.2324,-4.2363,-4.2667,-4.2535,-4.2071,-4.0647,-4.0448,-4.0713,-4.1309,-4.2104,-4.337,-4.5332,-4.7408,-4.9046,-5.0156,-5.2107,-5.3493,-5.3842,-5.4583,-5.5024,-5.4813,-5.3586,0.0,-5.2157,-5.1736,-5.1352,-5.0801,-5.202,-5.2978,-5.3617,-5.4807,-5.5707,-5.6287,-5.5702,-5.5366,-5.5224,-5.2895,-5.1014,-4.9672,-4.8477,-4.7107,-4.5838,-4.5838,-4.4972,-4.3529,-4.2086,-4.1172,-4.0523,-3.9537,-3.9128,-3.908,-3.908,0.0,0.0,0.0,0.0,0.0,0.0,0.0,0.0,0.0,0.0,0.0,0.0,0.0,0.0,0.0,0.0,0.0,0.0,0.0,0.0,0.0,0.0,0.0,0.0,-3.5,-3.5723,-3.623,-3.6309,-3.6445,-3.6836,-3.7969,-3.873,-3.873,-3.9473,-3.9961,-3.9961,-4.0351,-4.0586,-4.0586,0.0,0.0,0.0,0.0,-4.1172,-4.1172,-4.1172,-4.1172,-4.1172,-4.1172,-4.1191,-4.125,-4.125,-4.1269,-4.1328,-4.1699,-4.1875,-4.1933,-4.2695,-4.3008,-4.291,-4.1855,-4.166,-4.2031,-4.2793,-4.3086,-4.3125,-4.2667,-4.2535,-4.2071,-4.0647,-4.0845,-4.1276,-4.1409,-4.2535,-4.4131,-4.609,-4.7276,-4.825,-4.9288,-5.0865,-5.1508,-5.0622,-5.2261,-5.349,-5.374,0.0,-5.2276,-5.2157,-5.1736,-5.1556,-5.1439,-5.2688,-5.3646,-5.4313,-5.5039,-5.5474,-5.5591,-5.4931,-5.4709,-5.4597,-5.2729,-5.1014,-4.9672,-4.8477,-4.6884,-4.5285,-4.5285,-4.5092,-4.4732,-4.401,-4.3144,-4.2206,-4.1581,-4.1076,-4.0739,-4.0739,-4.0162,-3.9537,-3.9946,-3.9056,0.0,0.0,0.0,0.0,0.0,0.0,0.0,0.0,0.0,0.0,0.0,0.0,0.0,0.0,0.0,0.0,0.0,0.0,0.0,-3.5566,-3.6074,-3.6816,-3.793,-3.8086,-3.8105,-3.8203,-3.9062,-3.9648,-3.9648,-4.0098,-4.041,-4.041,-4.0801,-4.1055,-4.1055,-4.1133,-4.1172,-4.1172,-4.1172,-4.1172,-4.1172,-4.1172,-4.1172,-4.1172,0.0,0.0,-4.168,-4.168,-4.1855,-4.2187,-4.2266,-4.2305,-4.2324,-4.248,-4.2558,-4.2598,-4.3047,-4.3066,-4.2851,-4.3008,-4.3086,-4.3086,-4.3131,-4.2767,-4.217,-4.1077,-4.1177,-4.1409,-4.1409,-4.2667,-4.4197,-4.5826,-4.7012,-4.7825,-4.8041,-5.0112,-5.0807,-4.9254,-5.0882,-5.206,0.0,-5.2055,-5.1739,-5.1414,-5.1858,-5.2107,-5.2107,-5.3646,-5.4633,-5.4952,-5.5591,-5.5736,-5.5416,-5.4443,-5.3862,-5.3444,-5.1278,-4.9928,-4.9132,-4.778,-4.6938,-4.6319,-4.6319,-4.615,-4.5814,-4.4756,-4.401,-4.3457,-4.2663,-4.2206,-4.1894,-4.1365,-4.1172,-4.1172,-4.1172,-4.0619,-3.9874,0.0,0.0,0.0,0.0,0.0,0.0,0.0,0.0,0.0,0.0,0.0,0.0,0.0,0.0,-3.4121,0.0,0.0,-3.584,-3.6269,-3.707,-3.7851,-3.8476,-3.9141,-3.9473,-3.9258,-3.9805,-4.0215,-4.0215,-4.0605,-4.084,-4.084,-4.1055,-4.1172,-4.1172,-4.1172,-4.1172,-4.1172,-4.1172,-4.1172,-4.1172,-4.1387,-4.1484,-4.1484,-4.1699,-4.1914,-4.2109,-4.2109,-4.2226,-4.2441,-4.2656,-4.2754,-4.2773,-4.2988,-4.3066,-4.3105,-4.3535,-4.3574,-4.3359,-4.3164,-4.3359,-4.373,-4.3429,-4.28,-4.2104,-4.1508,-4.164,-4.174,-4.1442,-4.2667,-4.4065,-4.5395,-4.6419,-4.7006,-4.6875,-4.8987,-4.9841,-4.8481,-4.9403,0.0,0.0,-5.1121,-5.1091,-5.0685,-5.1788,-5.2397,-5.2397,-5.4255,-5.5242,-5.5242,-5.5881,-5.5939,-5.5387,-5.4237,-5.3218,-5.2333,-5.0126,-4.8884,-4.8409,-4.7053,-4.68,-4.7185,-4.7185,-4.6944,-4.6415,-4.514,-4.4539,-4.4202,-4.3144,-4.276,-4.2639,-4.1774,-4.2062,-4.2711,-4.2375,-4.2206,-4.1942,-4.098,-4.0643,0.0,0.0,0.0,0.0,0.0,0.0,0.0,0.0,0.0,-3.3711,-3.3887,-3.4473,-3.5098,-3.5566,-3.6113,-3.6641,-3.6992,-3.8047,-3.8867,-3.8945,-3.9863,-4.043,-4.0176,-4.0449,-4.0644,-4.0644,-4.0976,-4.1172,-4.1172,-4.1172,-4.1172,-4.1172,-4.1172,-4.1172,-4.1172,-4.125,-4.1289,-4.1289,-4.1719,-4.1914,-4.1933,-4.2266,-4.248,-4.2558,-4.2558,-4.2598,-4.2695,-4.3047,-4.3203,-4.3223,-4.3555,-4.3711,-4.3711,-4.3808,-4.3887,-4.3906,-4.3496,-4.3887,-4.4648,-4.2767,-4.2038,-4.1508,-4.1442,-4.2502,-4.2932,-4.1607,-4.2667,-4.4158,-4.5616,-4.526,-4.5212,-4.6022,-4.6434,-4.685,-4.7322,-4.6815,0.0,-4.9718,-4.9941,-5.0162,-5.0656,-5.1352,-5.173,-5.173,-5.3617,-5.4604,-5.4604,-5.5213,-5.5474,-5.5387,-5.4454,-5.344,-5.2476,-5.088,-4.9282,-4.7833,-4.6494,-4.6054,-4.6102,-4.6102,-4.6054,-4.6006,-4.5814,-4.5164,-4.4202,-4.3144,-4.276,-4.2735,-4.2615,-4.2663,-4.2832,-4.3216,-4.3024,-4.2543,-4.1966,-4.1461,-4.0631,-3.8498,-3.6736,0.0,-3.4211,-3.4219,-3.459,0.0,0.0,-3.4785,-3.5566,-3.5801,-3.6016,-3.6445,-3.75,-3.8301,-3.8359,-3.9141,-3.9883,-4.0254,-4.043,-4.0644,-4.0996,-4.1074,-4.1094,-4.1094,-4.1152,-4.1172,-4.1172,-4.1172,-4.1172,-4.1172,-4.1172,-4.1172,-4.1172,-4.1543,-4.1738,-4.1738,-4.2148,-4.2363,-4.2363,-4.2402,-4.2637,-4.3008,-4.3008,-4.3203,-4.3574,-4.3613,-4.3633,-4.3633,-4.3691,-4.3711,-4.375,-4.416,-4.4551,-4.4824,-4.4394,-4.4805,-4.5527,-4.2667,-4.227,-4.1905,-4.1475,-4.1939,-4.2137,-4.1508,-4.2667,-4.3992,-4.5019,-4.464,-4.4334,-4.44,-4.4065,-4.4467,-4.5987,-4.5962,-4.633,-4.7404,-4.8508,-4.9262,-4.9524,-5.054,-5.1236,-5.1614,-5.2775,-5.3384,-5.3384,-5.3994,-5.4313,-5.4313,-5.4108,-5.3387,-5.2181,-5.1349,-4.9858,-4.7838,-4.7345,-4.6979,-4.6848,-4.6848,-4.6655,-4.6343,-4.6054,-4.5453,-4.4659,-4.3577,-4.3,0.0,-4.2399,-4.2495,-4.2856,-4.3361,-4.3361,-4.3096,-4.2591,-4.2279,-4.1567,-3.9349,0.0,0.0,0.0,-3.5156,-3.5449,-3.541,-3.5625,-3.5957,-3.6328,-3.6777,-3.7266,-3.7695,-3.8418,-3.9023,0.0,-3.9863,-4.0332,-4.0508,-4.0742,-4.0976,-4.1152,-4.1172,-4.1172,-4.1172,-4.1172,-4.1172,-4.1172,-4.1172,-4.1172,-4.1172,-4.1172,-4.1289,-4.1523,-4.1699,-4.1914,-4.2168,-4.2598,-4.2812,-4.2812,-4.3047,-4.3262,-4.3437,-4.3437,-4.3535,-4.3711,-4.3711,-4.3711,-4.3711,-4.3711,-4.3711,-4.375,-4.4219,-4.4648,-4.5,-4.4824,-4.5156,-4.5644,-4.2369,-4.2071,-4.1773,-4.121,-4.1276,-4.1409,-4.1409,-4.2667,-4.3794,-4.4324,-4.4146,-4.3686,-4.2925,-4.2166,-4.2415,-4.4288,-4.4701,-4.514,-4.5837,-4.7172,-4.8188,-4.8711,-4.964,-5.0423,-5.1062,-5.1904,-5.231,-5.231,-5.2949,-5.3355,-5.353,-5.3288,-5.2491,-5.1213,-5.0764,-4.9328,-4.728,-4.728,-4.7223,-4.7109,-4.7109,-4.6867,-4.648,-4.599,-4.5411,-4.4736,-4.3962,-4.3505,-4.3144,-4.276,-4.2784,-4.3024,-4.3385,-4.3505,-4.3385,-4.2735,-4.2639,-4.2279,-4.0256,0.0,0.0,-3.5989,-3.6055,-3.6445,-3.6016,-3.6582,-3.7187,-3.7187,-3.7773,-3.8379,-3.8691,-3.9199,-3.9687,-4.0019,-4.043,-4.0703,-4.0703,-4.0976,-4.1172,-4.1172,-4.1618,-4.1618,-4.1172,-4.1172,-4.1172,-4.1172,-4.1172,-4.123,-4.1348,-4.1348,-4.1543,-4.1953,-4.209,-4.2305,-4.2598,-4.3027,-4.3242,-4.3262,-4.3555,-4.3711,-4.3711,-4.3828,-4.3887,-4.3906,-4.4023,-4.4062,-4.4062,-4.4062,-4.4062,-4.4121,-4.457,-4.4941,-4.5215,-4.5332,-4.5566,-4.5801,-4.1607,-4.0912,-4.0448,-4.0415,-4.0978,-4.1409,-4.1409,-4.2667,-4.3628,-4.3661,-4.3542,-4.3002,-4.179,-4.0755,-4.0699,-4.2117,-4.2179,-4.3253,-4.5721,-4.5924,-4.6795,-4.8653,-4.8769,-4.9088,-4.9727,-5.1004,-5.1643,-5.1643,-5.2281,-5.292,-5.35,-5.1811,-5.0408,-4.9388,-4.8353,-4.6874,-4.5257,-4.5257,-4.5576,-4.6091,-4.6091,-4.6066,-4.6066,-4.5792,-4.4986,-4.4111,-4.4253,-4.4323,-4.4299,-4.4275,-4.3914,-4.3481,-4.3505,-4.3505,-4.3313,-4.2303,-4.2351,-4.235,0.0,0.0,-3.9944,-3.6754,-3.6934,-3.7754,-3.7344,-3.791,-3.8516,-3.8516,-3.8867,-3.916,-3.918,-3.9902,-4.0488,-4.0508,-4.0879,-4.1152,-4.1152,-4.1172,-4.1172,-4.1172,-4.2503,-4.279,0.0,-4.1172,-4.1172,-4.1172,-4.1172,-4.1348,-4.1758,-4.1777,-4.1973,-4.2402,-4.2812,-4.3047,-4.3066,-4.3476,-4.3691,-4.3691,-4.3691,-4.3711,-4.373,-4.418,-4.4375,-4.4394,-4.4805,-4.498,-4.498,-4.498,-4.498,-4.5019,-4.5469,-4.5644,-4.5703,-4.6113,-4.6269,-4.6289,-4.2303,-4.1972,-4.1806,-4.1806,-4.2005,-4.2137,-4.2137,-4.2999,-4.3628,-4.3628,-4.3052,0.0,0.0,0.0,0.0,0.0,-4.1831,-4.2615,-4.3892,-4.5169,-4.6156,-4.6824,-4.8043,-4.8827,-4.903,-4.9901,-5.0336,-5.0336,-5.1004,-5.1643,-5.2252,-5.1279,-5.0462,-4.9675,-4.8532,-4.7154,-4.555,-4.555,-4.5551,-4.5454,-4.5454,-4.5576,-4.5429,-4.4841,-4.4573,-4.4402,0.0,-4.3577,-4.3337,-4.3673,-4.3433,-4.3144,-4.3842,-4.3577,-4.3024,-4.3,-4.2753,-4.2246,0.0,0.0,-3.9878,-3.9388,-3.8866,-3.8668,-3.9941,-3.948,-3.8984,-3.8984,-3.9965,-4.0776,-4.0776,-4.138,-4.1988,-4.1988,-4.1475,-4.1172,-4.1172,-4.2062,-4.281,-4.281,-4.4138,0.0,0.0,0.0,0.0,-4.1327,-4.1426,-4.166,-4.1797,-4.207,-4.2422,-4.2851,-4.41,-4.4301,-4.3496,-4.4742,-4.4822,-4.3711,-4.4023,-4.416,-4.418,-4.4609,-4.4824,-4.4824,-4.4961,-4.5019,-4.5019,-4.5019,-4.5019,-4.5058,-4.5508,-4.5683,-4.5723,-4.6152,-4.6308,-4.6269,-4.2601,-4.2303,-4.2204,-4.2469,-4.2535,0.0,0.0,0.0,0.0,0.0,0.0,0.0,0.0,0.0,0.0,0.0,0.0,-4.1744,-4.2615,-4.4037,-4.5169,-4.5866,-4.7056,-4.7927,-4.8391,-4.8798,-4.9001,-4.9001,-4.9669,-4.9994,-4.9968,-4.9511,-4.8816,-4.7989,-4.6865,-4.577,-4.4768,-4.4768,-4.5196,-4.5772,-4.4981,-4.5154,-4.5625,-4.4132,-4.3573,0.0,-4.2855,-4.2351,-4.211,-4.3385,-4.3337,-4.288,-4.3553,-4.3168,-4.2735,-4.3986,-4.3844,0.0,0.0,-4.1711,-4.0709,-4.0751,-3.9694,-3.9287,-4.1131,-4.0898,-4.0412,-4.0651,-4.1897,-4.275,-4.2411,-4.2668,-4.3097,-4.3697,-4.3055,-4.2651,-4.3412,-4.4336,-4.4926,-4.4926,-4.6289,-4.7038,0.0,0.0,0.0,-4.2456,-4.2561,-4.2546,-4.2246,-4.3121,-4.3779,-4.4239,-4.5809,-4.6114,-4.4658,-4.5779,-4.5556,-4.3965,-4.4258,-4.4473,-4.4629,-4.5058,-4.5254,-4.5273,-4.541,-4.5488,-4.5488,-4.5488,-4.5488,-4.5508,-4.5801,-4.5898,-4.5937,-4.6211,-4.6211,-4.6055,-4.2568,-4.2005,-4.174,0.0,0.0,0.0,0.0,0.0,0.0,0.0,0.0,0.0,0.0,0.0,0.0,0.0,0.0,0.0,-4.1947,-4.2615,0.0,-4.5663,-4.5808,-4.6417,-4.7666,-4.7724,-4.7753,-4.7782,-4.8391,-4.8172,-4.7066,-4.6613,-4.5713,-4.4699,-4.3526,-4.2997,-4.2886,-4.2886,-4.4418,-4.6652,-4.4543,-4.4853,-4.614,-4.3703,-4.207,-4.095,-4.1094,-4.086,-4.086,0.0,0.0,0.0,-4.2808,-4.2495,-4.2639,-4.5188,-4.5597,-4.5047,-4.4712,-4.3802,-4.2644,-4.0885,-3.9878,-3.977,-4.1379,-4.2001,-4.246,-4.3413,-4.4473,-4.4823,0.0,0.0,-4.4205,-4.5766,-4.5103,-4.5111,-4.7269,-4.751,-4.7662,0.0,0.0,0.0,0.0,0.0,0.0,-4.4782,0.0,-4.4065,-4.3352,-4.4803,-4.5969,-4.6405,-4.7985,-4.8143,-4.6405,-4.6447,-4.5718,-4.4562,-4.4433,-4.4668,-4.5078,-4.5508,-4.5703,-4.5723,-4.6133,-4.6308,-4.6308,-4.6308,-4.6308,-4.6308,-4.6308,-4.6308,-4.6308,-4.6308,-4.6055,-4.5762,0.0,0.0,0.0,0.0,0.0,0.0,0.0,0.0,0.0,0.0,0.0,0.0,0.0,0.0,0.0,0.0,0.0,0.0,-4.1279,-4.1976,0.0,0.0,0.0,0.0,0.0,0.0,0.0,-4.7782,-4.7927,-4.792,-4.7635,-4.6658,-4.5623,-4.4609,-4.3389,-4.2485,-4.1756,-4.1756,-4.2158,-4.276,-4.2183,-4.2559,-4.32,-4.1892,-4.1756,-4.1952,-4.1233,-4.1347,0.0,0.0,0.0,0.0,0.0,-4.3794,-4.4539,-4.5621,-4.6102,-4.599,-4.4388,-4.434,-4.4433,-4.3633,-4.2985,-4.2985,-4.4923,-4.4244,-4.3336,-4.3633,-4.4531,-4.5322,0.0,0.0,0.0,-4.7377,-4.647,0.0,-4.7378,-4.8575,0.0,-4.9351,0.0,-5.1503,-5.106,-5.1503,0.0,0.0,-4.7838,-4.7018,-4.6805,-4.7619,-4.8014,-4.8143,-4.9719,-4.9875,-4.8143,-4.7223,-4.666,-4.631,-4.5678,-4.541,-4.5527,-4.5957,-4.6152,-4.6152,-4.625,-4.6308,-4.6308,-4.6308,-4.6308,-4.6308,-4.6308,-4.6308,-4.6308,-4.6308,-4.623,-4.6152,0.0,0.0,0.0,0.0,0.0,0.0,0.0,0.0,0.0,0.0,0.0,0.0,0.0,0.0,0.0,0.0,0.0,0.0,0.0,-4.0873,0.0,0.0,0.0,0.0,0.0,0.0,0.0,0.0,0.0,0.0,-4.7491,-4.622,-4.5302,-4.4455,-4.3359,-4.2578,-4.1945,-4.1544,-4.1907,0.0,0.0,-4.1848,-4.2538,-4.113,-4.0641,-4.0635,-4.0233,0.0,0.0,0.0,0.0,-4.3337,-4.3433,-4.4061,-4.4808,-4.591,0.0,-4.6574,-4.6151,-4.5851,-4.5599,-4.531,-4.4657,-4.4339,-4.5804,-4.5322,-4.4703,-4.5256,-4.6055,0.0,0.0,0.0,0.0,0.0,0.0,0.0,-4.973,-5.0932,-5.1545,0.0,-5.2488,0.0,-5.2956,-5.2956,-5.2607,0.0,-5.0193,-4.8919,-4.8361,-4.9407,-4.9875,-4.9875,-5.1447,-5.1254,-4.9082,-4.7596,-4.6639,-4.64,-4.5944,-4.5781,-4.5957,-4.6191,-4.6308,-4.6308,0.0,-4.6308,-4.6308,-4.6308,-4.6308,-4.6308,-4.6308,-4.6308,-4.6308,-4.6308,-4.6308,-4.6308,0.0,0.0,0.0,0.0,0.0,0.0,0.0,0.0,0.0,-4.2037,-4.09,-3.9949,-3.9444,-3.8722,0.0,0.0,0.0,0.0,0.0,0.0,0.0,0.0,0.0,0.0,0.0,0.0,0.0,0.0,0.0,-4.5441,-4.6671,-4.5504,-4.4705,-4.4094,-4.3296,-4.2837,-4.2527,-4.169,-4.2318,-4.379,-4.1882,-4.1763,-4.2725,0.0,-3.9495,-3.8697,0.0,0.0,0.0,0.0,-4.2798,-4.3238,-4.3651,-4.4038,-4.462,-4.6247,-4.6872,-4.7233,-4.8403,-4.7648,-4.6356,-4.6151,-4.5529,-4.4954,-4.5506,-4.582,-4.6358,-4.7364,0.0,-4.8074,-4.7666,-4.7534,-4.8075,-4.9787,0.0,-5.0764,-5.2808,-5.351,-5.3822,-5.3822,-5.3822,-5.3822,-5.3822,-5.3822,-5.3822,-5.3822,-5.199,-5.0528,-4.954,-5.083,-5.1601,-5.1601,-5.3091,-5.2564,-4.9795,-4.8478,-4.7195,-4.6009,-4.6068,-4.6111,-4.6308,-4.625,-4.625,-4.6289,-4.625,-4.625,-4.6308,-4.6308,-4.6308,-4.6308,-4.6308,-4.6308,-4.6308,-4.6308,-4.6308,-4.6308,0.0,0.0,0.0,0.0,0.0,0.0,0.0,0.0,0.0,0.0,-4.1455,-4.089,0.0,0.0,0.0,0.0,0.0,0.0,0.0,0.0,0.0,0.0,0.0,0.0,0.0,0.0,0.0,-4.4472,-4.424,-4.4269,-4.4527,-4.4296,-4.3706,-4.2767,-4.3176,-4.2358,-4.0754,-4.1123,-4.0978,-4.0526,-4.0124,-4.0149,-4.027,-3.9869,0.0,0.0,0.0,0.0,0.0,0.0,-4.3032,-4.3454,-4.4766,-4.5416,-4.5766,-4.6992,-4.7666,-4.7877,-4.7445,-4.7501,-4.7447,-4.6744,-4.6941,-4.7436,-4.7497,-4.734,0.0,0.0,-4.7569,-4.7738,-4.8098,-4.7734,-4.8212,-5.0263,0.0,0.0,0.0,0.0,-5.3822,0.0,0.0,0.0,0.0,0.0,0.0,0.0,0.0,-5.31,-5.2869,-5.3195,-5.3346,-5.3346,-5.4079,-5.3554,-5.1581,-5.2081,-5.0786,-4.7827,-4.8196,-4.7753,-4.6289,-4.5937,-4.5976,-4.6289,-4.5937,0.0,-4.6308,-4.6308,-4.6308,-4.6308,-4.6308,-4.6308,-4.6308,-4.6308,-4.6308,-4.6308,0.0,0.0,0.0,0.0,0.0,0.0,0.0,-4.3001,-4.2581,-4.3031,-4.2909,-4.2056,-4.0313,-3.9828,-3.9683,0.0,0.0,0.0,0.0,0.0,0.0,0.0,0.0,0.0,0.0,0.0,-4.2528,-4.4472,0.0,-4.3689,-4.4966,-4.395,-4.3373,-4.3253,-4.2975,-4.2251,-4.1037,-4.0841,-4.0284,-3.9697,-3.9697,-3.9697,-3.9697,0.0,0.0,0.0,0.0,0.0,0.0,0.0,-4.3487,-4.3668,-4.5037,-4.5719,-4.6275,-4.7375,-4.7823,-4.7964,-4.8606,-4.8564,-4.8428,-4.826,-4.856,-4.8788,-4.7967,0.0,0.0,0.0,-4.7088,-4.7161,-4.7425,-4.7497,0.0,0.0,0.0,0.0,0.0,0.0,0.0,0.0,0.0,0.0,0.0,0.0,0.0,0.0,0.0,-5.3822,-5.3822,-5.3822,-5.3822,-5.3822,-5.4327,-5.3945,-5.2441,-5.3199,-5.1893,-4.8666,-4.8893,-4.7986,-4.6289,-4.5859,-4.5898,-4.6289,-4.5859,-4.5918,-4.6308,-4.6308,-4.6308,-4.6308,-4.6308,-4.6308,-4.6308,-4.6308,-4.6308,-4.6308,0.0,0.0,0.0,0.0,0.0,0.0,0.0,-4.3379,-4.326,-4.3972,-4.418,-4.3311,-4.096,-4.0728,-4.0612,0.0,0.0,0.0,0.0,0.0,0.0,0.0,0.0,0.0,0.0,0.0,0.0,-4.4298,-4.2934,0.0,0.0,0.0,0.0,0.0,-4.3279,-4.2544,-4.1775,-4.1073,-4.043,0.0,0.0,-3.9697,0.0,0.0,0.0,0.0,0.0,0.0,0.0,0.0,-4.3919,-4.4003,-4.5011,-4.5773,-4.6483,-4.7719,-4.7967,-4.8222,-4.9874,-4.9596,-4.9047,-4.9609,-4.9742,-4.9331,-4.7846,-4.8011,0.0,0.0,-4.6535,-4.6535,-4.6535,-4.6968,-4.7497,0.0,0.0,0.0,0.0,0.0,0.0,0.0,0.0,0.0,0.0,0.0,0.0,0.0,0.0,0.0,-5.3822,-5.3822,-5.387,-5.3991,-5.4496,-5.4206,-5.2946,-5.3818,-5.2444,-4.8997,-4.9318,-4.8442,-4.6152,-4.582,-4.5801,-4.6016,-4.5879,-4.5937,-4.6191,-4.6367,-4.6387,-4.6308,-4.6308,-4.6308,-4.6308,-4.6308,-4.6308,-4.6308,0.0,0.0,0.0,0.0,0.0,0.0,0.0,-4.3691,-4.3972,-4.3504,-4.4182,-4.4269,-4.2876,-4.2731,-4.2266,0.0,0.0,0.0,0.0,0.0,0.0,0.0,0.0,0.0,0.0,0.0,0.0,-4.2353,-4.2731,0.0,0.0,0.0,0.0,0.0,0.0,-4.3602,-4.1802,-4.237,0.0,0.0,0.0,0.0,0.0,0.0,0.0,0.0,0.0,0.0,0.0,0.0,0.0,-4.4519,-4.5134,-4.6044,-4.7101,-4.8101,0.0,0.0,-4.994,-4.9569,-4.9141,-4.9686,-4.9544,-4.8868,-4.7936,0.0,0.0,-4.6102,-4.6006,-4.6006,-4.6006,-4.6439,0.0,0.0,0.0,0.0,0.0,0.0,0.0,0.0,0.0,0.0,0.0,0.0,0.0,0.0,0.0,0.0,-5.3822,-5.3822,-5.4039,-5.452,-5.5049,-5.4775,-5.3498,-5.5522,-5.4138,-4.8997,-5.0674,-4.9448,-4.5723,-4.5703,-4.5488,-4.5176,-4.5918,-4.6055,0.0,-4.6562,-4.6641,-4.6308,-4.6308,-4.6308,-4.6308,-4.6308,-4.6308,-4.6464,0.0,0.0,0.0,0.0,0.0,0.0,-4.3632,-4.3734,-4.3974,-4.4792,-4.5258,-4.514,-4.424,-4.4124,-4.3456,-4.1831,0.0,0.0,0.0,0.0,0.0,0.0,0.0,0.0,0.0,0.0,-4.2005,-4.2644,-4.3282,0.0,0.0,0.0,0.0,0.0,0.0,-4.3409,-4.1775,-4.2114,0.0,0.0,0.0,0.0,0.0,0.0,0.0,0.0,0.0,0.0,0.0,0.0,0.0,0.0,-4.5303,-4.6216,0.0,0.0,-4.8453,-4.9018,-4.9801,-4.9512,-4.9197,-4.9743,-4.947,-4.8794,-4.7734,0.0,0.0,-4.5621,-4.5453,-4.5453,-4.5453,-4.5886,-4.6415,0.0,0.0,0.0,0.0,0.0,0.0,0.0,0.0,0.0,0.0,0.0,0.0,0.0,0.0,0.0,-5.3822,-5.4111,-5.4399,-5.4592,-5.5458,-5.5673,-5.5074,-5.6415,-5.4835,-5.0674,-5.2492,-5.0585,-4.5836,-4.754,-4.765,-4.6522,-4.8314,-4.9132,0.0,-4.8892,-4.8534,-4.8177,-4.6911,-4.6308,-4.6308,-4.6308,-4.6967,-4.7986,0.0,0.0,0.0,0.0,0.0,-4.2541,-4.3767,-4.3858,-4.421,-4.5401,-4.5924,-4.5837,-4.4966,-4.4734,-4.4008,-4.2498,-4.1773,0.0,0.0,0.0,0.0,0.0,0.0,0.0,0.0,0.0,-4.2876,-4.3282,-4.395,-4.4269,0.0,0.0,-4.456,-4.456,0.0,0.0,0.0,0.0,0.0,0.0,0.0,0.0,0.0,0.0,0.0,0.0,0.0,0.0,0.0,0.0,0.0,0.0,0.0,0.0,0.0,0.0,-4.8174,-4.8818,-4.9426,-4.9376,-4.9302,-4.9675,-4.9352,-4.8546,0.0,0.0,0.0,-4.5092,-4.49,-4.49,-4.49,-4.5453,-4.6054,0.0,0.0,-4.8628,0.0,0.0,0.0,0.0,0.0,0.0,0.0,0.0,0.0,0.0,0.0,0.0,-5.4039,-5.4544,-5.4832,-5.4832,-5.5746,-5.6323,-5.6468,-5.6828,-5.5506,-5.2514,-5.3511,-5.1532,-4.7115,-4.9246,-4.9274,-4.808,-5.0422,-5.1398,0.0,-5.0418,-4.9957,-4.9618,-4.7145,-4.6638,-4.7141,-4.7141,-4.8311,-4.9828,0.0,0.0,0.0,0.0,0.0,0.0,-4.327,-4.4239,-4.4879,-4.4908,-4.6011,-4.633,-4.5024,-4.4356,-4.3718,-4.305,-4.244,0.0,0.0,0.0,0.0,0.0,0.0,0.0,0.0,0.0,-4.3979,-4.3979,-4.4589,-4.4879,-4.4879,-4.5547,-4.5866,-4.5866,0.0,0.0,0.0,0.0,0.0,0.0,0.0,0.0,0.0,0.0,0.0,0.0,0.0,0.0,0.0,0.0,0.0,0.0,0.0,-4.5257,-4.6217,0.0,-4.7933,-4.8786,-4.8786,-4.9188,-4.959,-4.959,-4.8932,-4.8128,0.0,0.0,0.0,-4.4467,-4.4347,-4.4347,-4.4347,-4.5213,-4.5934,-4.5934,0.0,0.0,0.0,0.0,0.0,0.0,0.0,0.0,0.0,0.0,0.0,0.0,0.0,0.0,-5.4568,-5.5097,-5.5385,-5.5385,-5.5938,-5.6492,-5.6997,-5.7021,-5.6013,-5.4324,-5.3819,-5.2349,-5.0077,-5.0077,-4.9555,-4.8929,-5.131,-5.1834,0.0,-5.0607,-5.0248,-4.9618,-4.7145,-4.7314,-4.8997,-4.8997,-5.0167,-5.1849,0.0,0.0,0.0,0.0,0.0,0.0,0.0,-4.4094,-4.4589,-4.5459,-4.5924,-4.604,-4.5605,-4.4618,-4.4066,-4.4269,-4.2934,0.0,0.0,0.0,0.0,0.0,0.0,0.0,0.0,-4.4298,-4.4618,-4.4618,-4.5692,-4.6214,-4.6214,-4.6882,-4.694,-4.6534,-4.5767,-4.4674,0.0,0.0,0.0,0.0,0.0,0.0,0.0,0.0,0.0,0.0,0.0,0.0,0.0,0.0,0.0,0.0,0.0,0.0,0.0,-4.5822,-4.6861,-4.7832,-4.7579,-4.783,-4.8081,-4.7827,-4.7449,-4.6797,-4.626,0.0,0.0,-4.4467,-4.4347,-4.4347,-4.4347,-4.5213,-4.5934,-4.5934,-4.7112,0.0,0.0,0.0,0.0,0.0,0.0,0.0,0.0,0.0,0.0,0.0,0.0,0.0,-5.4592,-5.5482,-5.5963,-5.5963,-5.6492,-5.6852,-5.7021,-5.7021,-5.5848,-5.3819,-5.4827,-5.329,-4.9737,-5.249,-5.2964,-5.1787,-5.4789,-5.6116,-5.6022,-5.4772,-5.4016,-5.3624,-5.0974,-5.0336,-5.0843,-5.0843,-5.2015,-5.3505,0.0,0.0,0.0,0.0,0.0,0.0,0.0,-4.3834,-4.4356,-4.5372,-4.5924,-4.6156,-4.5895,-4.5169,-4.4763,-4.4879,-4.3602,0.0,0.0,0.0,0.0,0.0,0.0,0.0,-4.4327,-4.5169,-4.5634,-4.5634,-4.6679,-4.7317,-4.755,-4.7695,-4.7507,-4.6833,-4.6005,-4.4997,0.0,0.0,0.0,0.0,0.0,0.0,-4.2183,0.0,0.0,0.0,0.0,0.0,0.0,0.0,0.0,0.0,0.0,0.0,0.0,0.0,-4.5798,-4.6488,-4.6685,-4.7033,-4.7307,-4.7055,-4.6528,0.0,0.0,0.0,0.0,0.0,-4.4347,-4.4347,-4.4347,-4.5213,-4.5982,-4.6199,-4.7377,0.0,0.0,0.0,0.0,0.0,0.0,0.0,0.0,0.0,0.0,0.0,0.0,0.0,-5.488,-5.5746,-5.6323,-5.6516,-5.6852,-5.7021,-5.7021,-5.7021,-5.6191,-5.4854,-5.5612,-5.4532,-5.1968,-5.4169,-5.467,-5.4311,-5.6709,-5.8103,0.0,-5.6698,-5.5839,-5.5557,-5.2724,-5.2182,-5.268,-5.268,-5.3834,-5.5345,0.0,0.0,0.0,0.0,0.0,0.0,0.0,-4.3544,-4.4124,-4.4734,-4.5924,-4.6475,-4.5866,-4.5808,-4.5576,-4.4995,-4.4414,0.0,0.0,0.0,0.0,0.0,0.0,0.0,-4.5024,-4.6243,-4.6911,-4.6969,-4.7608,-4.8217,-4.8769,-4.8188,-4.7712,-4.7193,-4.6378,-4.5409,0.0,0.0,0.0,0.0,-4.2007,-4.2208,0.0,0.0,0.0,0.0,0.0,0.0,0.0,0.0,0.0,0.0,0.0,0.0,0.0,0.0,0.0,0.0,0.0,-4.6412,-4.683,-4.6806,-4.6186,-4.557,-4.557,0.0,0.0,0.0,0.0,-4.4347,-4.4395,-4.5261,-4.615,-4.668,-4.769,0.0,0.0,0.0,0.0,0.0,0.0,0.0,0.0,0.0,0.0,0.0,0.0,0.0,-5.5361,-5.5963,-5.6516,-5.6997,-5.7021,-5.7021,-5.7021,-5.7021,-5.6973,-5.69,-5.5866,-5.565,-5.6083,-5.5145,-5.5313,0.0,-5.7454,-5.8223,0.0,-5.6934,-5.6197,-5.5915,-5.3103,-5.3033,-5.4487,-5.4487,-5.5506,-5.7021,0.0,0.0,0.0,0.0,0.0,0.0,0.0,0.0,0.0,0.0,-4.4879,-4.5285,-4.514,-4.5111,-4.5256,0.0,0.0,0.0,0.0,0.0,0.0,0.0,0.0,0.0,-4.6359,-4.7143,-4.7782,-4.8275,-4.8914,-4.932,-4.9436,-4.9291,-4.8934,-4.8229,-4.6428,-4.4617,0.0,0.0,0.0,0.0,-4.2735,-4.2785,0.0,0.0,0.0,0.0,-4.2312,-4.1972,0.0,0.0,0.0,0.0,0.0,0.0,0.0,0.0,-4.4594,-4.4495,-4.4615,0.0,-4.5205,-4.4957,-4.4736,-4.4663,0.0,-4.4443,-4.4347,0.0,0.0,0.0,0.0,-4.5814,-4.6704,0.0,0.0,0.0,0.0,0.0,0.0,0.0,0.0,0.0,0.0,0.0,0.0,0.0,0.0,0.0,-5.5385,-5.6323,-5.69,-5.7021,-5.7021,-5.7021,-5.7021,-5.7021,-5.6612,-5.577,-5.553,-5.5241,-5.5001,-5.5578,-5.6444,-5.7502,-5.856,-5.9305,-5.9762,-5.8831,-5.8284,-5.7832,-5.6864,-5.6368,-5.6358,-5.6358,-5.6678,-5.7021,0.0,0.0,0.0,0.0,0.0,0.0,0.0,0.0,0.0,0.0,-4.5024,-4.5547,-4.4937,-4.543,-4.5808,0.0,0.0,0.0,0.0,0.0,0.0,0.0,0.0,-4.6911,-4.7259,-4.8188,-4.8827,-4.9175,-5.0104,-5.0569,-5.0569,-5.0569,-4.9923,-4.8766,-4.6818,-4.4917,0.0,0.0,0.0,-4.2986,-4.2986,0.0,0.0,0.0,0.0,0.0,-4.1972,-4.1859,0.0,-4.1606,-4.203,-4.2651,0.0,0.0,0.0,0.0,-4.447,-4.4347,-4.4347,-4.447,-4.447,-4.4347,-4.4347,-4.4347,-4.4347,-4.4539,-4.478,0.0,0.0,0.0,0.0,0.0,0.0,0.0,0.0,0.0,0.0,0.0,0.0,0.0,0.0,0.0,0.0,0.0,0.0,0.0,0.0,0.0,-5.577,-5.6564,-5.7021,-5.7021,-5.7021,-5.69,-5.666,-5.69,-5.6468,-5.5385,-5.565,-5.5746,-5.5746,-5.6323,-5.7309,-5.856,-5.9137,-5.969,-6.0123,-5.9594,-5.9065,-5.8536,-5.8007,-5.7478,-5.7021,-5.7021,-5.7021,-5.7021,0.0,0.0,0.0,0.0,0.0,0.0,0.0,0.0,0.0,0.0,0.0,0.0,0.0,0.0,0.0,0.0,0.0,0.0,0.0,0.0,0.0,0.0,-4.7927,-4.7869,-4.8072,-4.9233,-4.993,-5.0104,-5.1207,-5.1759,-5.1759,-5.1672,-5.0628,-4.8714,-4.701,-4.5608,-4.4453,-4.4453,-4.3823,-4.2986,-4.2961,0.0,0.0,0.0,0.0,0.0,0.0,0.0,0.0,-4.172,-4.1948,-4.2485,-4.3013,0.0,0.0,0.0,0.0,0.0,-4.4347,-4.4395,-4.4443,-4.4371,-4.4347,-4.4371,-4.4443,-4.4804,0.0,0.0,0.0,0.0,0.0,-4.822,0.0,0.0,0.0,0.0,0.0,0.0,0.0,0.0,0.0,0.0,0.0,0.0,0.0,0.0,0.0,0.0,-5.6203,-5.6732,-5.7021,-5.7021,-5.7021,-5.6756,-5.6251,-5.6756,-5.6516,-5.553,-5.6011,-5.6516,-5.7021,-5.7093,-5.7959,-5.9402,0.0,0.0,-6.0147,-5.969,-5.9161,-5.856,-5.8103,-5.755,-5.7021,-5.7021,-5.7021,-5.7021,0.0,0.0,0.0,0.0,0.0,0.0,0.0,0.0,0.0,0.0,0.0,0.0,0.0,0.0,0.0,0.0,0.0,0.0,0.0,0.0,0.0,-5.0191,-4.8653,-4.8275,-4.9349,-5.0133,-5.1033,-5.2136,-5.2339,-5.2426,-5.2397,-5.1875,-5.0189,-4.7534,-4.6723,-4.5182,-4.3295,-4.3295,-4.3184,-4.2986,-4.2625,0.0,0.0,0.0,0.0,0.0,0.0,0.0,0.0,-4.1492,-4.172,-4.1915,-4.2871,0.0,0.0,0.0,0.0,0.0,-4.4594,-4.5033,-4.5275,-4.4467,-4.4347,-4.4467,-4.4924,0.0,0.0,0.0,0.0,0.0,0.0,-4.8998,-4.9657,0.0,0.0,0.0,0.0,0.0,0.0,0.0,0.0,0.0,0.0,0.0,0.0,0.0,0.0,0.0,-5.6203,-5.6732,-5.7021,-5.7021,-5.7021,-5.6756,-5.6251,-5.6756,-5.6708,-5.6107,-5.6203,-5.6516,-5.7045,-5.7478,-5.8319,-5.9402,0.0,-6.0099,-6.0171,-6.0075,-5.9474,-5.8584,-5.8512,-5.7886,-5.7021,-5.7021,-5.7021,-5.7021,0.0,0.0,0.0,0.0,0.0,0.0,0.0,0.0,0.0,0.0,0.0,0.0,0.0,0.0,0.0,0.0,0.0,0.0,0.0,0.0,-4.9524,-5.0104,-4.9291,-4.9407,-5.0714,-5.1352,-5.1991,-5.2572,-5.292,-5.2891,-5.2572,-5.1904,-5.0595,-4.8664,-4.7425,-4.5688,-4.3823,-4.3295,-4.2986,-4.2986,0.0,0.0,0.0,0.0,0.0,0.0,0.0,0.0,0.0,0.0,-4.1948,-4.2258,-4.2988,0.0,0.0,0.0,0.0,0.0,-4.447,-4.4887,-4.5205,-4.513,-4.5348,-4.5764,-4.6134,0.0,0.0,0.0,0.0,0.0,0.0,0.0,0.0,-5.183,0.0,0.0,0.0,0.0,0.0,0.0,0.0,0.0,0.0,0.0,0.0,0.0,0.0,0.0,-5.6612,-5.69,-5.7021,-5.7021,-5.7021,-5.69,-5.666,-5.69,-5.6612,-5.5794,-5.6371,-5.6925,-5.7454,-5.7983,-5.88,-5.9834,0.0,-6.0171,-6.0171,-6.0171,-5.9546,-5.8608,-5.8608,-5.7959,-5.7021,-5.7021,-5.7021,-5.7069,0.0,0.0,0.0,0.0,0.0,0.0,0.0,0.0,0.0,0.0,0.0,0.0,0.0,0.0,0.0,0.0,0.0,0.0,0.0,-4.9407,-4.9814,-5.0104,-4.9988,-5.0452,-5.1585,-5.2107,-5.2572,-5.3007,-5.3355,-5.3268,-5.2775,-5.2136,-5.1087,-4.982,-4.8047,-4.6277,-4.467,-4.3517,-4.2986,-4.2986,0.0,0.0,0.0,0.0,0.0,0.0,0.0,0.0,0.0,0.0,0.0,0.0,0.0,0.0,0.0,-4.4135,-4.4251,-4.4347,-4.447,-4.4887,-4.5427,-4.6066,-4.6511,0.0,0.0,0.0,0.0,0.0,0.0,0.0,0.0,0.0,0.0,0.0,0.0,0.0,0.0,0.0,0.0,0.0,0.0,0.0,0.0,0.0,0.0,0.0,0.0,0.0,-5.6973,-5.7021,-5.7021,-5.7021,-5.7021,-5.7021,-5.7021,-5.7021,-5.6612,-5.5794,-5.6612,-5.7357,-5.8007,-5.8416,-5.9185,-6.0171,-6.0171,-6.0171,-6.0171,-6.0171,-5.9546,-5.8608,-5.8608,-5.7959,-5.7021,-5.7021,-5.7093,-5.7261,0.0,0.0,0.0,0.0,0.0,0.0,0.0,0.0,0.0,0.0,0.0,0.0,0.0,0.0,0.0,0.0,0.0,0.0,0.0,-4.964,-5.022,-5.141,-5.0917,-5.0917,-5.1614,-5.1672,-5.2572,-5.4371,-5.3791,-5.35,-5.3442,-5.2804,-5.1621,-4.982,-4.8047,-4.6277,-4.467,-4.3517,-4.2986,-4.2986,-4.2625,0.0,0.0,0.0,0.0,0.0,0.0,0.0,0.0,0.0,0.0,0.0,0.0,0.0,-4.3357,-4.382,-4.4207,-4.447,-4.5086,-4.6068,-4.6956,-4.7583,-4.6985,0.0,-4.7445,-4.7715,0.0,-4.9092,-4.9998,0.0,0.0,0.0,0.0,0.0,0.0,0.0,0.0,0.0,0.0,0.0,0.0,0.0,0.0,0.0,0.0,0.0,0.0,0.0,-5.6997,-5.7021,-5.7021,-5.7021,-5.7021,-5.7021,-5.7021,-5.7021,-5.6973,-5.69,-5.6973,-5.755,-5.8536,-5.8584,-5.9185,-6.0171,-6.0171,-6.0171,-6.0171,-6.0171,-5.9546,-5.8608,-5.8608,-5.7959,-5.7021,-5.7021,-5.7333,-5.7766,0.0,0.0,0.0,0.0,0.0,0.0,0.0,0.0,0.0,0.0,0.0,-4.9669,-4.9669,0.0,0.0,0.0,0.0,0.0,0.0,-4.9669,-4.9901,-5.0394,-5.0569,-5.0975,-5.1614,-5.2397,-5.3355,-5.4517,-5.3849,-5.35,-5.35,-5.3268,-5.1604,-4.8893,-4.8244,-4.6485,-4.4112,-4.3336,-4.3162,-4.3463,-4.2775,-4.2513,0.0,0.0,0.0,0.0,0.0,0.0,0.0,0.0,-4.2425,-4.2273,-4.293,-4.3498,-4.3949,-4.4252,-4.489,-4.5427,-4.5674,-4.6488,-4.748,-4.8405,-4.8679,0.0,0.0,-4.9426,-4.9949,-4.9999,-5.0605,-5.1489,0.0,0.0,0.0,0.0,0.0,0.0,0.0,0.0,0.0,0.0,0.0,0.0,0.0,0.0,0.0,0.0,0.0,0.0,0.0,-5.7021,-5.7021,-5.7021,-5.7021,-5.7021,-5.7021,-5.7021,-5.7021,-5.7021,-5.7357,-5.7886,-5.8608,-5.8945,-5.9498,-6.0171,-6.0171,-6.0171,-6.0171,-6.0171,-5.9546,-5.8536,-5.7886,-5.7381,-5.7021,-5.7021,-5.7357,-5.7862,0.0,0.0,0.0,0.0,0.0,0.0,0.0,0.0,-4.9669,0.0,0.0,0.0,0.0,-4.9669,0.0,0.0,0.0,0.0,-4.9669,-4.9872,-4.9988,-4.9988,-5.0627,-5.1381,-5.2194,-5.3065,-5.3849,-5.4517,-5.4052,-5.3733,-5.35,-5.2982,-5.1314,-4.8786,-4.7839,-4.6341,-4.4306,-4.3437,-4.3288,-4.374,-4.2962,-4.2625,0.0,0.0,0.0,0.0,0.0,0.0,0.0,0.0,-4.2625,-4.2475,-4.3074,-4.3581,-4.4135,-4.4269,-4.5255,-4.6093,-4.6217,-4.7133,-4.823,-4.8803,0.0,0.0,-5.0017,-5.072,-5.1373,-5.0795,-5.1272,-5.2151,-5.3256,0.0,0.0,0.0,0.0,0.0,0.0,0.0,0.0,0.0,0.0,0.0,0.0,0.0,0.0,0.0,0.0,0.0,0.0,-5.7021,-5.7021,-5.7021,-5.7021,-5.7021,-5.7021,-5.7021,-5.7021,-5.7021,-5.7718,-5.8247,-5.8608,-5.9137,-5.9666,-6.0171,-6.0171,-6.0171,-6.0171,-6.0171,-5.9546,-5.8488,-5.743,-5.7021,-5.7045,-5.7213,-5.7598,-5.8127,0.0,0.0,0.0,0.0,0.0,0.0,0.0,0.0,-4.9669,-4.9669,-4.9669,0.0,0.0,0.0,0.0,0.0,0.0,0.0,-4.9669,-5.0307,-5.0656,-5.0656,-5.1265,-5.2194,-5.3471,-5.35,-5.3849,-5.4517,-5.4487,-5.4168,-5.3395,-5.1648,-5.0466,-4.9715,-4.6865,-4.5532,-4.5396,-4.3771,-4.3313,-4.3765,-4.3212,-4.2986,-4.2986,0.0,0.0,0.0,0.0,0.0,0.0,0.0,-4.2312,-4.2224,-4.2762,-4.3283,-4.3708,-4.406,-4.508,-4.6217,-4.6514,-4.783,-4.9078,0.0,0.0,0.0,-5.0695,-5.1322,-5.195,-5.1398,-5.2176,-5.2929,-5.2955,-5.3833,0.0,0.0,0.0,0.0,0.0,0.0,0.0,0.0,0.0,0.0,0.0,0.0,0.0,0.0,0.0,0.0,0.0,-5.7021,-5.7021,-5.7021,-5.7021,-5.7021,-5.7021,-5.7021,-5.7021,-5.7045,-5.8103,-5.8608,-5.8608,-5.9161,-5.969,-6.0171,-6.0171,-6.0171,-6.0171,-6.0171,-5.9546,-5.8488,-5.743,-5.7021,-5.7093,-5.7622,-5.8151,-5.868,0.0,0.0,0.0,0.0,0.0,0.0,0.0,0.0,-4.9669,-4.9669,-4.9669,0.0,0.0,0.0,0.0,0.0,0.0,0.0,-4.9669,-4.9872,-4.9988,-4.9988,-5.0598,-5.1323,-5.2165,-5.3065,-5.3395,-5.3238,-5.1877,-5.11,-5.0906,-5.0869,-4.9829,-4.8043,-4.7564,-4.6678,-4.5385,-4.4483,-4.4242,-4.4342,-4.379,-4.3313,-4.2986,0.0,0.0,0.0,0.0,0.0,0.0,0.0,0.0,0.0,-4.2986,-4.3626,-4.4386,-4.4386,-4.5835,-4.7408,-4.7558,-4.8484,0.0,-5.0368,0.0,0.0,0.0,-5.2452,0.0,0.0,-5.2703,-5.3281,-5.4436,0.0,0.0,0.0,0.0,0.0,0.0,0.0,0.0,0.0,0.0,0.0,0.0,0.0,0.0,0.0,0.0,0.0,0.0,-5.7021,-5.7021,-5.7021,-5.7021,-5.7021,-5.7021,-5.7021,-5.7213,-5.7574,-5.8271,-5.8608,-5.8632,-5.9522,-6.0027,-6.0171,-6.0171,-6.0171,-6.0123,-5.9378,-5.8872,-5.8488,-5.743,-5.7021,-5.7093,-5.7622,-5.8151,-5.8728,0.0,0.0,0.0,0.0,0.0,0.0,-4.9669,-4.9669,-4.9669,-4.9669,-4.9669,-4.9669,0.0,0.0,0.0,-4.9669,-4.9669,-4.9669,-4.9669,-4.993,-4.9959,-4.9698,-5.0801,-5.1614,-5.1991,-5.2041,-5.1839,-5.1534,-5.1428,-5.1263,-5.1012,-5.0432,-4.9228,-4.7628,-4.6948,-4.6254,-4.5447,-4.4644,-4.4418,-4.4543,-4.379,-4.3263,-4.2986,0.0,0.0,0.0,0.0,0.0,0.0,0.0,0.0,0.0,-4.2911,-4.374,-4.4669,-4.4895,-4.6351,-4.7958,-4.8184,-4.9063,0.0,-5.077,-5.1523,-5.2251,-5.2804,0.0,0.0,0.0,0.0,-5.3808,-5.4587,0.0,0.0,0.0,0.0,0.0,0.0,0.0,0.0,0.0,0.0,0.0,0.0,0.0,0.0,0.0,0.0,0.0,0.0,-5.7021,-5.7021,-5.7021,-5.7021,-5.7021,-5.7021,-5.7021,-5.7285,-5.7814,-5.8343,-5.8704,-5.8945,-5.9786,-6.0171,-6.0171,-6.0171,-6.0171,-6.0099,-5.9041,-5.8608,-5.8488,-5.743,-5.7021,-5.7141,-5.8079,-5.8632,-5.9089,0.0,0.0,0.0,0.0,0.0,0.0,-4.9669,-4.9669,-4.9669,-4.9669,-4.9669,-4.9669,0.0,0.0,0.0,-4.9582,-4.964,-4.964,-4.9582,-5.022,-5.0307,-4.9698,-5.141,-5.2397,-5.2397,-5.0787,-4.9981,-4.9981,-5.1986,-5.2722,-5.2145,-5.0046,-4.8653,-4.7893,-4.5768,-4.5112,-4.5422,-4.4392,-4.4217,-4.4543,-4.3489,-4.3011,-4.2986,-4.2986,0.0,0.0,0.0,0.0,0.0,0.0,0.0,0.0,-4.2735,-4.3639,-4.4593,-4.5221,-4.6552,-4.7958,-4.8535,0.0,0.0,-5.0469,-5.1348,0.0,-5.2804,-5.2955,-5.3005,-5.3005,0.0,0.0,0.0,0.0,0.0,0.0,0.0,0.0,0.0,0.0,0.0,0.0,0.0,0.0,0.0,0.0,0.0,0.0,0.0,0.0,0.0,0.0,-5.7021,-5.7021,-5.7021,-5.7021,-5.7021,-5.7021,-5.7309,-5.7886,-5.8367,-5.8897,-5.9474,-5.9955,-6.0171,-6.0171,-6.0171,-6.0147,-6.0027,-5.9017,-5.856,-5.8416,-5.7405,-5.7045,-5.7285,-5.8752,-5.9378,-5.969,0.0,0.0,0.0,0.0,0.0,0.0,-4.9669,-4.9669,-4.9669,-4.9669,-4.9669,-4.9669,-4.9669,-4.9669,0.0,-4.8972,-4.9378,-4.9465,-4.8972,-4.9524,-4.9814,-4.9698,-5.0569,-5.1091,-5.1091,-5.1208,-5.1177,-5.1177,-4.9811,-4.9116,-4.8978,-4.8437,-4.7725,-4.6731,-4.6638,-4.6141,-4.5472,-4.5221,-4.492,-4.4568,-4.389,-4.3363,-4.2986,-4.2986,-4.271,0.0,0.0,0.0,0.0,0.0,0.0,0.0,-4.2158,-4.2785,-4.3539,-4.4518,-4.5999,-4.7405,0.0,-4.8912,0.0,0.0,-5.1925,-5.2779,-5.2904,-5.3256,-5.3532,-5.3532,0.0,0.0,0.0,0.0,0.0,0.0,0.0,0.0,0.0,0.0,0.0,0.0,0.0,0.0,0.0,0.0,0.0,0.0,0.0,0.0,0.0,0.0,-5.7021,-5.7021,-5.7021,-5.7021,-5.7021,-5.7021,-5.7502,0.0,-5.8536,-5.9089,-6.0003,-6.0123,-6.0171,-6.0171,-6.0171,-5.9931,-5.9498,-5.8872,-5.8343,-5.7911,-5.7261,-5.7285,-5.7742,-5.8488,-5.9281,-6.0171,0.0,0.0,0.0,0.0,0.0,0.0,0.0,0.0,-5.0046,-4.9727,-4.9669,-4.9553,-4.9262,-4.9233,0.0,0.0,-4.8856,-4.8943,-4.8304,-4.9146,-4.9814,-5.0133,-5.0191,-5.0336,-5.0656,-5.0685,-5.0385,-4.9852,-4.8562,-4.8177,-4.848,-4.8755,-4.7758,-4.5891,-4.6752,-4.6476,-4.5497,-4.5497,-4.5146,-4.4568,-4.4016,-4.3463,-4.2986,-4.2986,-4.2811,-4.2509,-4.2258,0.0,0.0,0.0,0.0,0.0,0.0,0.0,-4.3263,-4.4618,-4.5849,0.0,0.0,0.0,0.0,0.0,0.0,-5.2929,-5.2929,-5.3331,-5.3783,0.0,0.0,0.0,0.0,0.0,0.0,0.0,0.0,0.0,0.0,0.0,0.0,0.0,0.0,0.0,0.0,0.0,0.0,0.0,0.0,0.0,0.0,-5.718,-5.7021,-5.7021,-5.7021,-5.7021,-5.7021,-5.7021,-5.755,-5.8608,-5.8608,-5.9161,-6.0171,-5.9907,-5.9931,-6.0171,-5.9907,-5.9642,-5.9353,-5.8824,-5.844,-5.8127,-5.7598,-5.7718,-5.8271,-5.9065,-5.969,-6.0364,0.0,0.0,0.0,0.0,0.0,0.0,0.0,0.0,0.0,-4.9756,-4.9669,-4.9436,-4.8798,-4.8711,-4.842,0.0,0.0,0.0,-4.7666,-4.8798,-4.9658,-5.0109,-4.9803,-4.993,-5.0481,-4.9959,-4.9248,-4.8324,-4.8324,-4.8489,-4.8778,-4.8986,-4.7918,-4.5805,-4.6508,-4.636,-4.5497,-4.5497,-4.5221,-4.4719,-4.4166,-4.3614,-4.3112,-4.3112,-4.3011,-4.276,-4.2308,-4.1806,-4.1329,-4.1229,0.0,0.0,0.0,0.0,-4.3011,-4.4593,-4.5573,0.0,0.0,0.0,0.0,0.0,0.0,0.0,0.0,-5.3406,0.0,0.0,0.0,0.0,0.0,0.0,0.0,0.0,0.0,0.0,0.0,0.0,0.0,0.0,0.0,0.0,0.0,0.0,0.0,0.0,0.0,0.0,-5.8153,-5.7339,-5.7021,-5.7021,-5.7021,-5.7021,-5.7021,-5.7117,-5.7598,-5.8464,-5.8656,-5.9233,-6.0147,-5.9618,-5.9666,-6.0147,-5.9618,-5.9329,-5.9209,-5.8776,-5.8536,-5.8416,-5.7983,-5.8127,-5.8704,-5.9474,-5.9931,-6.0364,0.0,0.0,0.0,0.0,0.0,0.0,0.0,0.0,0.0,0.0,-4.9669,-4.9436,-4.8798,-4.8711,-4.8246,-4.7056,-4.755,-4.7637,-4.6998,0.0,0.0,-4.7674,-4.9017,-4.9727,-4.9814,-4.9727,-4.9669,-4.9473,-4.9473,-4.9019,-4.8137,-4.6701,-4.6352,-4.7002,-4.6103,-4.559,-4.5497,-4.5497,-4.5447,-4.5321,-4.4744,-4.4192,-4.3689,-4.3689,-4.3112,-4.2258,-4.2183,-4.1806,-4.1254,-4.0777,-4.0576,0.0,0.0,0.0,-4.1781,-4.2961,-4.4392,0.0,0.0,0.0,0.0,0.0,0.0,0.0,0.0,0.0,0.0,0.0,0.0,0.0,0.0,0.0,0.0,0.0,0.0,0.0,0.0,0.0,0.0,0.0,0.0,0.0,0.0,0.0,0.0,0.0,0.0,0.0,-5.718,-5.7021,-5.7021,-5.7021,-5.7021,-5.7021,-5.7021,-5.7478,-5.779,-5.7935,-5.8848,-5.9594,-6.0147,-5.9618,-5.9666,-6.0147,-5.9618,-5.9137,-5.8704,-5.8632,-5.8319,-5.7911,-5.7838,-5.8127,-5.856,-5.8247,-5.8993,-6.0195,0.0,0.0,0.0,0.0,0.0,0.0,0.0,0.0,0.0,0.0,0.0,-4.9349,-4.8259,-4.818,-4.7695,-4.6417,-4.692,-4.7299,-4.7346,-4.755,-4.7796,-4.7978,-4.8461,-4.8769,-4.9117,-4.8798,-4.8307,-4.7669,-4.804,-4.8167,0.0,-4.7001,-4.6425,-4.6299,-4.6795,-4.6398,-4.5497,-4.5824,-4.5949,-4.5949,-4.5999,-4.5698,-4.5196,-4.5196,-4.4895,-4.4493,-4.4493,-4.3714,-4.2685,-4.2434,-4.1731,-4.0978,-4.0978,0.0,0.0,0.0,-4.3714,0.0,0.0,0.0,0.0,0.0,0.0,0.0,0.0,0.0,0.0,0.0,0.0,0.0,0.0,0.0,0.0,0.0,0.0,0.0,0.0,0.0,0.0,0.0,0.0,0.0,0.0,0.0,0.0,0.0,0.0,-5.7473,-5.7339,-5.718,-5.7021,-5.7021,-5.7021,-5.7021,-5.7021,-5.755,-5.8103,-5.8704,-5.9474,-5.9955,-6.0147,-5.9618,-5.9522,-5.969,-5.9161,-5.8656,-5.8175,-5.8488,-5.8271,-5.7838,-5.8127,-5.8392,-5.8608,-5.8656,-5.9137,-5.981,0.0,0.0,0.0,0.0,0.0,0.0,0.0,0.0,0.0,0.0,0.0,-4.9194,-4.7952,0.0,0.0,0.0,-4.6308,-4.6687,-4.6842,-4.7027,-4.734,-4.8038,-4.8238,-4.8391,-4.8711,-4.842,-4.7779,-4.6781,-4.7433,0.0,-4.8397,-4.8291,-4.7459,0.0,-4.7277,-4.6829,-4.5321,-4.6024,-4.6301,-4.6376,-4.7054,-4.7004,-4.6527,-4.6527,-4.6527,-4.6502,-4.6351,-4.5598,-4.4568,-4.3991,-4.2986,-4.1882,-4.148,-4.163,0.0,0.0,0.0,0.0,0.0,0.0,0.0,0.0,0.0,0.0,0.0,0.0,0.0,0.0,0.0,0.0,0.0,0.0,0.0,0.0,0.0,0.0,0.0,0.0,0.0,0.0,0.0,0.0,0.0,0.0,0.0,0.0,0.0,-5.7497,-5.7497,-5.718,-5.7021,-5.7021,-5.7021,-5.7093,-5.7213,-5.7742,-5.8464,-5.9402,-5.9786,-5.9979,-5.9955,-5.957,-5.9305,-5.9161,-5.8776,-5.8367,-5.8055,-5.8584,-5.8488,-5.8055,-5.844,-5.8608,-5.8632,-5.8897,-5.9161,-5.9498,0.0,0.0,0.0,0.0,0.0,0.0,0.0,0.0,0.0,0.0,0.0,-4.9213,-4.7909,-4.7817,-4.7259,-4.5982,-4.5895,-4.5512,-4.4571,-4.6529,-4.7268,-4.6389,-4.8431,0.0,-4.874,-4.9291,-4.9291,-4.8586,0.0,0.0,-4.9631,-5.0284,-4.9832,-4.8507,-4.7192,-4.5856,-4.4744,-4.5849,-4.6301,-4.6401,-4.7456,-4.7556,-4.7104,-4.7104,-4.7104,-4.7029,-4.6502,-4.6602,-4.6627,-4.4518,-4.374,-4.3388,-4.1831,-4.1354,-4.148,0.0,0.0,0.0,0.0,0.0,0.0,0.0,0.0,0.0,0.0,0.0,0.0,0.0,0.0,0.0,0.0,0.0,0.0,0.0,0.0,0.0,0.0,0.0,0.0,0.0,0.0,0.0,0.0,0.0,0.0,0.0,0.0,-5.7021,-5.7021,-5.7021,-5.7021,-5.7021,-5.7021,-5.7261,-5.7766,-5.8295,-5.8824,-5.9378,-5.9426,-5.9426,-5.9426,-5.9402,-5.9113,-5.8632,-5.8608,-5.8584,-5.8608,-5.9137,-5.9041,-5.856,-5.8584,-5.8608,-5.8536,-5.8079,-5.8536,-5.9402,0.0,0.0,0.0,0.0,0.0,0.0,0.0,0.0,0.0,0.0,0.0,0.0,0.0,-4.7782,-4.734,-4.5953,-4.5895,-4.5718,-4.5306,-4.65,-4.6986,-4.6555,-4.7391,-4.7753,-4.7521,-4.7346,-4.7317,0.0,0.0,-4.8924,-4.9767,-5.0369,-5.0052,-4.8936,-4.8291,-4.7541,-4.6869,-4.7687,-4.778,-4.7478,-4.9064,-4.9059,-4.8234,-4.8586,-4.8937,-4.9213,-4.9012,-4.8611,-4.8008,-4.6828,-4.5748,-4.4709,-4.3771,-4.3271,-4.2997,-4.3676,-4.4585,0.0,0.0,0.0,0.0,0.0,0.0,0.0,0.0,0.0,0.0,0.0,0.0,0.0,0.0,0.0,0.0,0.0,0.0,0.0,0.0,0.0,0.0,0.0,0.0,0.0,0.0,0.0,0.0,0.0,0.0,0.0,-5.7021,-5.7021,-5.7021,-5.7021,-5.7021,-5.743,-5.8295,-5.8512,-5.9041,-5.9883,-5.9883,-5.9714,-5.9378,-5.9378,-5.9089,-5.8608,-5.8945,-5.8921,-5.8608,-5.88,-5.856,-5.8127,-5.8464,-5.8392,-5.8151,-5.8632,-5.9065,-5.9426,0.0,0.0,0.0,0.0,0.0,0.0,0.0,0.0,-5.0096,-5.0311,0.0,0.0,0.0,0.0,-4.788,-4.6308,-4.6043,-4.5895,-4.5895,-4.6654,-4.7061,-4.6784,-4.7236,-4.7207,-4.679,-4.7056,-4.7056,0.0,0.0,0.0,0.0,-4.9727,-4.9593,-4.8966,-4.9165,-4.8666,0.0,0.0,0.0,-4.816,-4.988,-4.997,-4.9088,-4.9464,-5.0293,-5.1197,-5.0619,-5.0318,-4.9992,-4.8862,-4.7757,-4.6698,-4.5796,-4.5232,-4.5053,-4.5283,-4.5637,0.0,-4.8205,0.0,0.0,0.0,0.0,0.0,0.0,0.0,0.0,0.0,0.0,0.0,0.0,0.0,0.0,0.0,0.0,0.0,0.0,0.0,0.0,0.0,0.0,0.0,0.0,0.0,0.0,0.0,0.0,0.0,-5.7021,-5.7021,-5.7093,-5.7285,-5.7285,-5.7718,-5.8584,-5.8776,-5.9209,-5.9907,-6.0075,-5.9907,-5.9378,-5.9378,-5.9209,-5.8872,-5.9233,-5.9089,-5.8608,-5.8776,-5.856,-5.8103,-5.8464,-5.8488,-5.8416,-5.9137,-5.9498,-5.969,0.0,0.0,0.0,0.0,0.0,0.0,0.0,0.0,-5.0984,-5.1503,0.0,0.0,0.0,0.0,0.0,-4.6929,-4.6279,-4.5895,-4.5895,-4.7078,-4.7457,-4.6829,-4.8004,-4.8038,-4.6784,-4.8653,-4.8653,0.0,0.0,0.0,0.0,0.0,-4.8711,-4.874,-4.9378,-4.8894,-4.7485,0.0,-4.8798,-4.8341,0.0,-5.0201,-4.959,-4.9615,-5.0996,-5.2703,-5.1046,-5.1498,-5.2578,-5.0368,-4.964,-4.9442,-4.7806,-4.7282,-4.737,-4.6731,-4.7757,-4.9114,0.0,0.0,0.0,0.0,0.0,0.0,0.0,0.0,0.0,0.0,0.0,0.0,0.0,0.0,0.0,0.0,0.0,0.0,0.0,0.0,0.0,0.0,0.0,0.0,0.0,0.0,0.0,0.0,0.0,-5.7497,-5.7021,-5.7021,-5.7261,-5.7766,-5.779,-5.8055,-5.8584,-5.9113,-5.9378,-5.9426,-5.9907,-5.9883,-5.9353,-5.9378,-5.9378,-5.9353,-5.9402,-5.9113,-5.8656,-5.9185,-5.9065,-5.8608,-5.8608,-5.8945,-5.9378,-5.9402,-5.9738,-6.0195,0.0,0.0,0.0,0.0,0.0,-5.141,-5.1628,-5.1482,-5.1366,0.0,0.0,0.0,-5.0812,-4.9675,-4.8348,-4.6897,-4.6663,-4.6337,-4.5895,-4.6663,-4.6832,-4.6203,-4.6929,-4.694,-4.6214,-4.6679,-4.6911,-4.6824,0.0,0.0,0.0,0.0,-4.8275,-4.874,-4.8914,-4.9808,-5.1195,-5.1432,0.0,-5.0188,-5.1917,-5.1883,0.0,0.0,0.0,0.0,0.0,-5.1599,-5.2176,-5.1147,-5.1147,-5.1632,-5.083,-5.0607,-5.038,-4.9209,-4.8755,-4.8627,-4.955,0.0,0.0,0.0,0.0,0.0,0.0,0.0,0.0,0.0,0.0,0.0,0.0,0.0,0.0,0.0,0.0,0.0,0.0,0.0,0.0,0.0,0.0,0.0,0.0,0.0,0.0,0.0,-5.8153,-5.7813,-5.7021,-5.7021,-5.7093,-5.7237,-5.7237,-5.767,-5.8584,-5.8752,-5.9209,-5.9955,-5.9714,-5.9329,-5.8824,-5.9209,-5.9185,-5.8848,-5.9618,-5.9642,-5.9185,-5.9329,-5.9065,-5.8632,-5.9017,-5.9257,-5.9426,-5.981,-6.0291,-6.0748,0.0,0.0,-5.202,-5.202,-5.202,-5.2107,-5.2368,-5.2209,-5.2093,0.0,0.0,0.0,-5.0804,-4.9724,-4.8663,-4.773,-4.7336,-4.6929,-4.6308,-4.7107,-4.7222,-4.6316,-4.6916,-4.6953,-4.6279,-4.6515,-4.6632,-4.6417,0.0,0.0,0.0,-4.7259,-4.7579,-4.7956,-4.8769,-5.0249,-5.2223,-5.2746,0.0,0.0,-5.2287,0.0,0.0,-5.0789,-5.1749,0.0,0.0,0.0,-5.2729,-5.2402,-5.2813,-5.3602,-5.4008,-5.3577,-5.2684,-5.1726,-5.0784,-5.0326,-5.1108,-5.1384,-5.1571,-5.2228,0.0,0.0,0.0,0.0,0.0,0.0,0.0,0.0,0.0,0.0,0.0,0.0,0.0,0.0,0.0,0.0,0.0,0.0,0.0,0.0,0.0,0.0,0.0,-5.7942,-5.7942,-5.757,-5.6997,-5.7021,-5.7117,-5.7333,-5.7141,-5.7646,-5.8921,-5.8704,-5.9017,-5.9834,-5.9546,-5.9113,-5.8608,-5.9137,-5.9209,-5.8969,-5.981,-5.9883,-5.9402,-5.9618,-5.9402,-5.8969,-5.9257,-5.9522,-5.9786,-6.0315,-6.07,-6.0989,0.0,0.0,-5.2688,-5.2688,-5.2688,-5.2862,-5.3442,-5.304,-5.2909,0.0,-5.3048,-5.2185,-5.0976,-5.0327,-4.9611,-4.8787,-4.8208,-4.7698,-4.7073,-4.8058,-4.8088,-4.7073,-4.7489,-4.7401,-4.6841,-4.7315,-4.7049,-4.5895,-4.6998,-4.6998,-4.5895,-4.6475,-4.6795,-4.6998,-4.8769,-5.0365,-5.1817,-5.3007,0.0,-5.3022,-5.2157,-5.2124,0.0,0.0,-5.2151,-5.426,-5.2678,-5.2754,-5.3607,-5.3747,-5.4304,-5.5103,-5.6719,-5.594,-5.4316,-5.374,-5.3077,-5.2671,-5.3268,-5.3413,-5.3463,-5.3525,-5.4824,0.0,0.0,0.0,0.0,0.0,0.0,0.0,0.0,0.0,0.0,0.0,0.0,0.0,0.0,0.0,0.0,0.0,0.0,0.0,0.0,0.0,-5.7724,-5.7327,-5.7221,-5.7106,-5.6804,-5.69,-5.7141,-5.7622,-5.7237,-5.7718,-5.9209,-5.88,-5.8824,-5.9305,-5.9305,-5.9017,-5.8536,-5.9065,-5.9305,-5.9329,-5.9931,-5.9907,-5.9522,-5.9979,-5.9859,-5.9402,-5.945,-5.9762,-6.0243,-6.0772,-6.1013,-6.1133,-5.2107,-5.2804,-5.3326,-5.3326,-5.3326,-5.3355,-5.35,-5.3355,-5.3326,-5.35,-5.3377,-5.2862,-5.1531,-5.1307,-5.0525,-4.8816,-4.8567,-4.849,-4.8307,-4.8072,-4.8047,-4.8345,-4.7463,-4.6936,-4.678,-4.6456,-4.6101,-4.5895,-4.6127,-4.6127,-4.5895,-4.6011,-4.6625,-4.7619,-4.8545,-5.0191,-5.2426,-5.3181,0.0,-5.5501,-5.3716,0.0,-5.4233,-5.1995,-5.2251,-5.3708,-5.2528,-5.2528,-5.3218,-5.437,-5.4519,-5.455,-5.6581,-5.5927,-5.4314,-5.4328,-5.3074,-5.1909,-5.2625,-5.2746,-5.292,-5.3357,-5.4598,0.0,0.0,0.0,0.0,0.0,0.0,0.0,0.0,0.0,0.0,0.0,0.0,0.0,0.0,0.0,0.0,0.0,0.0,0.0,0.0,0.0,-5.7125,-5.6762,-5.6172,-5.5757,-5.5698,-5.6131,-5.6444,-5.654,-5.6852,-5.7381,-5.8103,-5.844,-5.8656,-5.8752,-5.8752,-5.8464,-5.7983,-5.8512,-5.8752,-5.88,-5.9762,-6.0123,-6.0027,-6.0123,-5.9859,-5.9426,-5.9859,-6.0075,-6.0243,-6.0772,-6.1253,-6.171,-5.2514,-5.3094,-5.35,-5.35,-5.35,-5.35,-5.35,-5.35,-5.35,-5.35,-5.3275,-5.2704,-5.1744,-5.1654,-5.107,-4.9853,-4.9669,-4.9669,-4.9669,-4.9426,-4.9426,-4.9669,-4.8787,-4.7998,-4.7344,-4.6663,-4.622,-4.5895,-4.5895,-4.5895,-4.5895,-4.625,-4.7164,-4.8739,-4.9355,-5.111,-5.3553,0.0,-5.5591,-5.7107,-5.4414,0.0,-5.5606,-5.3557,-5.3715,-5.5022,-5.3945,-5.3376,-5.3608,-5.6156,-5.6505,-5.6363,-5.8851,-5.8285,-5.6689,-5.6099,-5.5008,-5.3961,-5.3579,-5.353,-5.3617,-5.3936,-5.4487,0.0,0.0,0.0,0.0,0.0,0.0,0.0,0.0,0.0,0.0,0.0,0.0,0.0,0.0,0.0,0.0,0.0,0.0,0.0,0.0,0.0,-5.5855,-5.5477,-5.5404,-5.5385,-5.5385,-5.5938,-5.6227,-5.6227,-5.6756,-5.7285,-5.779,-5.8079,-5.8199,-5.8199,-5.8199,-5.8079,-5.7838,-5.8367,-5.8752,-5.9041,-5.9834,-6.0171,-6.0171,-6.0171,-6.0027,-5.9834,-6.0364,-6.058,-6.0676,-6.147,-6.1951,-6.2263,-5.2746,-5.3181,-5.35,-5.35,-5.35,-5.35,-5.35,-5.35,-5.35,-5.35,-5.3232,-5.2713,-5.2052,-5.207,-5.2006,-5.1432,-5.1461,-5.1391,-5.1473,-5.1431,-5.1337,-5.1216,-5.0359,-4.9376,-4.8348,-4.7492,-4.6693,-4.6072,-4.6072,-4.6043,-4.5895,-4.6515,-4.7729,-4.9429,-5.0602,-5.21,0.0,0.0,0.0,-5.7859,0.0,-5.5714,-5.7602,-5.5469,-5.5735,-5.7078,-5.584,-5.4956,-5.4954,-5.7839,-5.834,-5.8352,-6.0926,-6.0451,-5.8778,-5.7944,-5.6959,-5.5839,-5.5047,-5.4604,-5.4342,-5.4487,-5.44,-5.4136,0.0,0.0,0.0,0.0,0.0,0.0,0.0,0.0,0.0,0.0,0.0,0.0,0.0,0.0,0.0,0.0,0.0,0.0,0.0,0.0,-5.5041,-5.4397,-5.5033,-5.5433,-5.5121,-5.5722,-5.6083,-5.6083,-5.6684,-5.7237,-5.7646,-5.7766,-5.7766,-5.767,-5.7766,-5.7766,-5.767,-5.8319,-5.8824,-5.9257,-5.9907,-6.0171,-6.0171,-6.0171,-6.0243,-6.0364,-6.0676,-6.0869,-6.1085,-6.2071,-6.2504,-6.2672,-5.3413,-5.3471,-5.35,-5.35,-5.35,-5.35,-5.35,-5.35,-5.35,-5.35,-5.3984,-5.4035,-5.3337,-5.3834,-5.4178,-5.4094,-5.4081,-5.4062,-5.4094,-5.4041,-5.3823,-5.321,-5.1537,-5.0564,-5.0359,-4.8643,-4.7344,-4.6693,-4.6693,-4.6456,-4.5895,-4.6515,-4.7236,-4.8104,-5.1062,0.0,0.0,0.0,-5.7803,0.0,-5.8171,-5.9598,0.0,-5.797,-5.7911,-5.9237,-5.7401,-5.7027,-5.7539,0.0,-5.8118,-5.8325,-5.9893,-5.8982,-5.7618,-5.8688,-5.6938,-5.4941,-5.5868,-5.4952,-5.3762,-5.4371,-5.4052,-5.3791,-5.4244,0.0,-5.4649,-5.495,0.0,0.0,0.0,0.0,0.0,0.0,0.0,0.0,0.0,0.0,0.0,0.0,0.0,0.0,0.0,0.0,0.0,-5.4519,-5.5419,-5.5506,-5.4087,-5.4952,-5.5482,-5.5482,-5.6492,-5.7045,-5.7117,-5.7574,-5.7574,-5.7117,-5.7598,-5.7574,-5.7141,-5.8151,-5.8632,-5.8752,-5.9738,-6.0171,-6.0171,-6.0171,-6.046,-6.082,-6.0436,-6.0556,-6.1037,-6.1662,-6.2191,-6.2672,-5.35,-5.35,-5.35,-5.35,-5.35,-5.35,-5.35,-5.35,-5.3646,-5.4052,-5.4322,-5.4417,-5.4136,-5.4678,-5.4844,-5.4478,-5.4546,-5.4612,0.0,-5.4264,-5.3917,-5.406,-5.2654,-5.1279,-5.0126,-4.9685,-4.8734,-4.7413,-4.7395,-4.7286,-4.7049,-4.7286,-4.8517,-5.0613,-5.2376,0.0,-5.508,0.0,-5.9765,0.0,0.0,0.0,0.0,-6.0638,-5.9339,-5.9949,-5.9533,-5.8796,-5.8222,0.0,-5.9755,0.0,-6.0916,-6.124,-6.1046,-6.0514,-5.9677,-5.8749,-5.777,-5.7187,-5.6578,-5.5329,-5.4807,-5.4604,-5.4517,-5.4226,-5.3994,-5.4255,0.0,0.0,0.0,0.0,0.0,0.0,-5.622,0.0,0.0,0.0,0.0,0.0,0.0,0.0,0.0,0.0,0.0,0.0,0.0,-5.5049,-5.3461,-5.4664,-5.5385,-5.5385,-5.6444,-5.7021,-5.7021,-5.7237,-5.7237,-5.7021,-5.7237,-5.7405,-5.7502,-5.8247,-5.8752,-5.9089,-5.9859,-6.0171,-6.0195,-6.0508,-6.0772,-6.0965,-6.1085,-6.1446,-6.1975,-6.2504,-6.2841,-6.3057,-5.389,-5.371,-5.35,-5.35,-5.35,-5.3588,-5.3762,-5.3791,-5.4023,-5.4662,-5.4923,-5.5097,-5.5271,-5.5823,-5.6136,-5.5838,-5.5845,-5.5881,0.0,0.0,-5.5001,-5.5488,-5.4,-5.255,-5.1262,-5.1193,-5.0313,-4.8296,-4.8464,-4.8348,-4.7845,-4.8331,-4.9706,-5.1817,-5.3347,-5.4914,-5.6613,0.0,0.0,-6.2963,-6.2816,-6.4605,-6.6803,-6.2864,-6.1203,-6.0989,-6.1443,-6.075,-5.994,-6.1316,-6.1756,0.0,-6.2456,-6.3022,-6.3225,-6.1861,-6.1629,-6.1454,-5.9597,-5.9074,-5.861,-5.6897,-5.5939,-5.5329,-5.5097,-5.44,-5.3791,-5.3791,-5.4023,0.0,0.0,0.0,0.0,0.0,0.0,-5.6301,0.0,0.0,0.0,0.0,0.0,0.0,0.0,0.0,0.0,0.0,0.0,0.0,-5.3365,-5.4471,-5.5193,-5.5193,-5.6227,-5.6804,-5.6804,-5.6949,-5.7021,-5.7021,-5.7021,-5.7213,-5.7622,-5.8295,-5.88,-5.9209,-5.9883,-6.0171,-6.0219,-6.0748,-6.1061,-6.1253,-6.1807,-6.2336,-6.2817,-6.3057,-6.3225,-6.3346,-5.5089,-5.42,-5.35,-5.35,-5.35,-5.3733,-5.4371,-5.4487,-5.4691,0.0,0.0,0.0,0.0,0.0,-5.846,-5.9085,0.0,-5.887,-5.8278,0.0,-5.8195,-5.8136,-5.5816,-5.472,-5.5171,-5.3433,-5.1562,-4.9608,-5.0249,-4.961,0.0,-4.9738,-5.036,-4.9909,-5.3639,-5.507,-5.4819,-5.7916,-5.9658,-6.0402,-6.161,-6.2645,-6.3399,0.0,-6.4092,-6.3051,-6.308,0.0,0.0,-6.3854,-6.3478,0.0,0.0,0.0,0.0,-6.2093,-6.1658,-6.1222,0.0,0.0,0.0,-5.9045,-5.7274,-5.5562,-5.62,-5.5387,-5.4487,-5.4487,-5.3994,-5.3733,-5.44,-5.4575,-5.4604,-5.4575,-5.4633,0.0,0.0,0.0,0.0,0.0,0.0,0.0,0.0,0.0,0.0,0.0,0.0,0.0,-5.4093,-5.4327,-5.464,-5.464,-5.5698,-5.6251,-5.6251,-5.6756,-5.7021,-5.7021,-5.7021,-5.7021,-5.7093,-5.8127,-5.8608,-5.868,-5.9714,-6.0171,-6.0219,-6.0748,-6.1277,-6.1831,-6.236,-6.2865,-6.3249,-6.2793,-6.2913,-6.3346,-5.5089,-5.42,-5.35,-5.35,-5.35,-5.3878,-5.4952,-5.4778,0.0,0.0,0.0,0.0,0.0,-5.829,-5.9074,0.0,0.0,-5.9219,-5.8983,-5.855,0.0,-5.8315,-5.6665,-5.5474,-5.4866,-5.4157,-5.2713,-5.0383,-5.061,0.0,0.0,0.0,0.0,-5.1095,0.0,-5.5968,0.0,0.0,0.0,0.0,0.0,-6.4539,-6.4299,0.0,0.0,-6.3777,-6.4183,-6.4212,0.0,-6.4038,-6.4183,-6.4154,-6.308,-6.3341,-6.3748,-6.247,-6.2267,-6.2354,0.0,0.0,-6.1338,-6.07,0.0,0.0,-5.8464,-5.7303,-5.6258,-5.5852,-5.4923,-5.4255,-5.4458,-5.4517,-5.4371,-5.3936,-5.4226,-5.4371,0.0,0.0,0.0,0.0,0.0,0.0,0.0,0.0,0.0,0.0,0.0,0.0,0.0,-5.4135,-5.4616,-5.4616,-5.5674,-5.6227,-5.6227,-5.6756,-5.7021,-5.7021,-5.7021,-5.7021,-5.7069,-5.8127,-5.8608,-5.8656,-5.9714,-6.0171,-6.0219,-6.0748,-6.1301,-6.1855,-6.2384,-6.2889,-6.3322,-6.3153,-6.3201,-6.3346,-5.6152,-5.5089,-5.3919,-5.3605,-5.3704,-5.4226,0.0,0.0,0.0,0.0,-5.7419,0.0,-5.829,0.0,-5.9626,0.0,-5.9626,-5.9655,-6.0005,-5.919,0.0,-5.9277,-5.7598,-5.6495,0.0,-5.5176,-5.3936,-5.207,-5.1628,-5.0912,0.0,0.0,0.0,0.0,0.0,-5.6275,-5.835,0.0,-6.1803,0.0,0.0,-6.4831,0.0,0.0,-6.3951,-6.4735,0.0,-6.4735,-6.4386,-6.4386,-6.4502,-6.4444,-6.3167,-6.3486,-6.4067,-6.2819,-6.2761,-6.2993,-6.2558,-6.2441,0.0,-6.1977,-6.1367,0.0,-6.038,-5.9277,-5.8174,-5.7565,-5.6403,-5.5394,-5.4926,-5.48,-5.4583,-5.3582,-5.4021,-5.4284,0.0,-5.4081,0.0,0.0,0.0,0.0,0.0,0.0,0.0,0.0,0.0,0.0,0.0,0.0,-5.452,-5.4327,-5.5385,-5.5842,-5.565,-5.6371,-5.6732,-5.6756,-5.6925,-5.7021,-5.7069,-5.8127,-5.8608,-5.8656,-5.9714,-6.0291,-6.0508,-6.1037,-6.159,-6.2143,-6.2648,-6.3057,-6.3346,-6.3346,-6.3346,-6.3346,-5.8243,-5.6603,-5.4845,-5.3798,-5.411,0.0,0.0,0.0,-5.6897,0.0,-5.8348,-5.8871,-6.0061,-6.0235,-6.0235,-6.0235,-6.0235,-6.0526,-6.1164,-6.0061,0.0,0.0,-5.8782,-5.7744,-5.829,-5.6441,-5.514,-5.4458,0.0,0.0,0.0,0.0,0.0,0.0,-5.3646,0.0,-5.8348,-5.9045,-6.0816,-6.3138,-6.3109,-6.3516,-6.4125,-6.4096,-6.488,-6.5896,-6.5228,-6.4996,-6.4996,-6.4996,-6.459,-6.4067,-6.4038,-6.3632,-6.3138,-6.3109,-6.308,-6.3109,-6.3138,-6.2238,-6.16,-6.2819,-6.1716,0.0,0.0,0.0,-6.0119,-5.951,-5.8348,-5.7051,-5.5701,-5.5507,-5.5036,-5.3698,-5.4075,-5.4255,0.0,0.0,0.0,0.0,0.0,0.0,0.0,0.0,0.0,0.0,0.0,0.0,0.0,0.0,0.0,-5.3846,-5.4808,-5.5121,-5.4616,-5.5698,-5.6227,-5.6251,-5.6756,-5.7021,-5.7069,-5.8127,-5.8608,-5.8656,-5.9714,-6.0484,-6.1013,-6.1542,-6.2095,-6.2624,-6.3105,-6.3322,-6.3498,-6.3346,-6.3346,-6.3346,-5.8938,-5.7862,-5.6567,0.0,-5.4691,-5.4894,0.0,0.0,0.0,0.0,-5.9132,-5.9829,-6.0148,-6.0642,-6.0932,-6.0932,-6.0932,0.0,0.0,0.0,0.0,-6.1193,-5.9624,-5.861,-5.8319,-5.7361,-5.5771,-5.3762,0.0,0.0,-5.0685,0.0,0.0,0.0,0.0,0.0,-5.8377,-5.948,-6.1454,-6.3748,-6.3283,-6.4038,0.0,0.0,-6.5519,-6.6506,-6.5373,-6.4996,-6.4996,-6.4996,-6.488,-6.4677,-6.4183,-6.3922,-6.369,-6.3225,-6.308,-6.3196,-6.3661,-6.3225,-6.279,-6.3603,-6.308,-6.2441,0.0,0.0,0.0,0.0,-6.0032,-5.9045,-5.7744,-5.7135,-5.6379,-5.5094,-5.4273,-5.3878,0.0,0.0,0.0,0.0,0.0,0.0,0.0,0.0,0.0,0.0,0.0,0.0,0.0,0.0,0.0,-5.3846,-5.4471,-5.4736,-5.4616,-5.5698,-5.6227,-5.6251,-5.6756,-5.7021,-5.7069,-5.8127,-5.8608,-5.8656,-5.9714,-6.0484,-6.0965,-6.1109,-6.1734,-6.26,-6.272,-6.3836,-6.5174,-6.3851,-6.3346,-6.3498,-6.0799,-6.0012,0.0,-5.7498,0.0,0.0,-5.6834,0.0,0.0,-5.9451,-6.0206,0.0,-6.099,-6.1135,-6.1193,-6.1193,-6.1193,0.0,-6.1571,0.0,0.0,-6.1222,-6.0526,-5.9829,-5.9161,-5.7942,-5.6607,-5.5184,0.0,0.0,-5.1091,0.0,0.0,0.0,0.0,-5.5649,0.0,-6.0264,-6.2354,-6.4386,-6.3457,0.0,0.0,-6.5112,-6.5606,-6.6389,-6.5664,-6.5402,-6.5402,-6.5402,-6.5577,-6.5751,-6.5402,-6.5286,-6.5199,-6.4851,-6.4357,-6.4009,-6.4357,-6.3777,-6.3225,-6.3893,-6.3777,-6.3516,-6.3516,-6.3225,-6.2761,0.0,-6.1483,-6.0427,0.0,0.0,0.0,0.0,-5.5416,-5.4807,-5.4894,0.0,0.0,0.0,0.0,0.0,0.0,0.0,0.0,0.0,0.0,0.0,0.0,0.0,0.0,-5.3846,-5.4808,-5.4977,-5.4279,-5.5578,-5.6107,-5.5866,-5.6419,-5.6925,-5.7381,-5.8223,-5.8728,-5.8993,-6.0051,-6.082,-6.135,-6.159,-6.2167,-6.2913,-6.3739,-6.4926,-6.6011,-6.5692,-6.5692,-6.5864,-6.2834,0.0,0.0,0.0,0.0,0.0,0.0,-5.8726,0.0,-6.0932,0.0,-6.1396,-6.1919,-6.1571,-6.1309,-6.1309,0.0,-6.1658,-6.218,-6.2238,-6.2006,-6.1454,-6.128,-6.0932,-6.0441,-5.8696,-5.7707,-5.7561,0.0,0.0,0.0,0.0,0.0,0.0,0.0,0.0,0.0,-6.1164,-6.3254,-6.4764,-6.3574,-6.3893,-6.5112,-6.5112,-6.5519,-6.6041,-6.6041,-6.6041,-6.6041,-6.6041,-6.6418,-6.6883,-6.6883,-6.6883,-6.6883,-6.6883,-6.6099,-6.5228,-6.5228,-6.4299,-6.3457,-6.4009,-6.4038,-6.3922,-6.4009,-6.4038,-6.3864,-6.3225,-6.2761,-6.1614,-5.8741,0.0,0.0,0.0,0.0,0.0,-5.5526,0.0,0.0,0.0,0.0,0.0,0.0,0.0,0.0,0.0,0.0,0.0,0.0,0.0,0.0,0.0,-5.5145,0.0,-5.4122,0.0,-5.5998,-5.5791,-5.6143,-5.678,-5.7838,-5.8367,-5.8897,-5.945,-6.0508,-6.1277,-6.1831,-6.236,-6.3064,-6.3851,-6.5692,-6.6525,-6.684,-6.8524,-6.9241,-6.9485,-6.2553,0.0,0.0,0.0,0.0,-6.1568,-6.0911,-6.0324,-6.0119,-6.0351,-6.0845,-6.1251,-6.1338,-6.1716,-6.1948,-6.1948,-6.2441,0.0,0.0,0.0,0.0,-6.2761,-6.1745,-6.1255,-6.1319,-6.0501,-5.9538,-5.8487,0.0,0.0,0.0,0.0,0.0,0.0,0.0,0.0,-6.0003,-6.2035,0.0,-6.4125,-6.3399,-6.4154,-6.5751,-6.5751,-6.6157,-6.6709,-6.6709,-6.6709,-6.6709,-6.6709,-6.6796,-6.6883,-6.6883,-6.6883,-6.6883,-6.6883,-6.6738,-6.6564,-6.6564,-6.5635,-6.4677,-6.4793,-6.4038,-6.3399,-6.3922,-6.4038,-6.3864,-6.3225,-6.3835,-6.3446,-6.0174,0.0,0.0,0.0,0.0,0.0,0.0,0.0,0.0,0.0,0.0,0.0,0.0,0.0,0.0,0.0,0.0,0.0,0.0,0.0,0.0,0.0,0.0,0.0,0.0,0.0,-5.588,-5.7996,-5.678,-5.678,-5.7838,-5.8367,-5.8897,-5.945,-6.0508,-6.1277,-6.1831,-6.236,-6.3714,-6.5692,-6.7517,-6.9188,-7.0338,-7.0664,-7.2148,-7.3605,-6.5408,0.0,0.0,0.0,0.0,0.0,0.0,-6.2845,0.0,-6.1761,-6.2136,-6.2545,-6.2666,-6.2808,-6.2954,-6.3076,-6.3369,-6.3573,-6.3573,-6.3866,-6.3924,-6.3573,-6.3281,-6.2934,-6.2379,-6.2056,-6.1292,-6.0,0.0,-5.8179,-5.6593,0.0,0.0,0.0,0.0,-5.9072,0.0,0.0,0.0,-6.4038,-6.4067,-6.4822,-6.5954,-6.6302,-6.6825,-6.7405,-6.7405,-6.7609,-6.7841,-6.7522,-6.7609,-6.7899,-6.7899,-6.7899,-6.7899,-6.7899,-6.7667,-6.7405,-6.7405,-6.6709,-6.5983,-6.5983,-6.5519,-6.5054,-6.5025,-6.4764,-6.4444,-6.4125,-6.4038,-6.3468,-6.1862,-5.9857,0.0,0.0,0.0,0.0,0.0,0.0,-5.6376,0.0,0.0,0.0,0.0,0.0,0.0,0.0,0.0,0.0,0.0,0.0,0.0,0.0,0.0,0.0,0.0,0.0,0.0,-5.6958,-5.6081,-5.6636,-5.8223,-5.8488,-5.9041,-5.9859,-6.0941,-6.1542,-6.1855,-6.3644,-6.5639,-6.7543,-6.9353,-7.0501,-7.1338,-7.2326,-7.3563,-7.4782,0.0,-6.8755,0.0,0.0,-6.7599,0.0,-6.6664,-6.5188,-6.4008,-6.3476,-6.344,-6.3701,-6.4062,-6.3936,-6.3994,-6.4239,-6.4386,-6.4445,-6.4445,-6.4946,-6.4976,-6.4474,-6.4799,-6.4474,-6.3415,-6.3267,-6.2706,0.0,-6.0993,0.0,0.0,0.0,0.0,0.0,0.0,0.0,0.0,0.0,-6.3516,-6.3893,-6.4677,-6.546,-6.6215,-6.6854,-6.7522,-6.8073,-6.8073,-6.8392,-6.8741,-6.8247,-6.8421,-6.8828,-6.8828,-6.8828,-6.8828,-6.8828,-6.8479,-6.8073,-6.8073,-6.7609,-6.7086,-6.7086,-6.6999,-6.6738,-6.6244,-6.5635,-6.5141,-6.5025,-6.3699,-6.2822,-6.3603,-6.1351,0.0,0.0,0.0,0.0,0.0,0.0,0.0,0.0,0.0,0.0,0.0,0.0,0.0,0.0,0.0,0.0,0.0,0.0,0.0,0.0,0.0,-5.5424,-5.4721,0.0,-5.5371,-5.6018,-5.5709,-5.6636,-5.8608,-5.8704,-5.9281,-6.0243,-6.1326,-6.2075,-6.2835,-6.583,-6.8022,-6.938,-7.1312,-7.2039,-7.2226,-7.3851,-7.48,-7.5334,0.0,0.0,0.0,0.0,0.0,0.0,-6.7774,-6.6492,-6.532,-6.4698,-6.3801,-6.3384,-6.3973,-6.4563,-6.4917,-6.4917,-6.5477,-6.5831,-6.5831,-6.589,-6.589,-6.5831,-6.53,-6.4774,-6.4426,-6.3862,-6.3535,0.0,-6.2704,-6.0803,0.0,0.0,0.0,0.0,0.0,0.0,0.0,-6.332,-6.3661,-6.3283,-6.4502,-6.5722,-6.6854,-6.7522,-6.8189,-6.8741,-6.8741,-6.877,-6.8828,-6.8741,-6.877,-6.8828,-6.8828,-6.8828,-6.8828,-6.8828,-6.877,-6.8741,-6.8741,-6.8276,-6.7783,-6.7783,-6.7318,-6.6854,-6.6796,-6.6302,-6.5693,-6.5112,-6.2879,-6.1997,-6.5087,-6.1519,-5.9468,0.0,0.0,0.0,0.0,0.0,-5.8992,-5.7802,0.0,0.0,0.0,0.0,0.0,0.0,0.0,0.0,0.0,0.0,0.0,0.0,0.0,-5.7765,-5.9711,-5.5806,-5.5424,-5.8199,-5.6887,-5.7021,-5.8608,-5.9089,-5.9642,-6.0243,-6.1326,-6.3326,-6.5886,-6.9301,-7.0826,-7.1231,-7.3626,-7.4512,-7.4596,-7.5502,-7.6121,-7.6626,0.0,0.0,0.0,0.0,0.0,0.0,0.0,-6.9326,-6.8229,-6.7648,-6.5823,-6.4721,-6.5201,-6.5581,-6.5967,-6.6213,-6.6481,-6.6629,-6.6629,-6.6629,-6.6629,-6.6629,-6.6362,-6.5737,-6.4785,-6.4904,-6.4606,0.0,0.0,0.0,0.0,0.0,0.0,0.0,0.0,-6.341,-6.29,-6.3918,-6.4222,-6.4328,-6.5606,-6.668,-6.7551,-6.8189,-6.8596,-6.8828,-6.8828,-6.8828,-6.8828,-6.8828,-6.8828,-6.8828,-6.8828,-6.8828,-6.8828,-6.8828,-6.8828,-6.8828,-6.8828,-6.8625,-6.845,-6.845,-6.8247,-6.8044,-6.8044,-6.7231,-6.6418,-6.6186,-6.3736,-6.2151,-6.4393,-6.296,-6.1991,-6.3364,0.0,0.0,0.0,0.0,0.0,-5.695,0.0,-5.6816,0.0,0.0,0.0,0.0,0.0,0.0,0.0,0.0,0.0,-5.917,0.0,-5.6129,-5.843,-5.5655,-5.5235,-5.7115,-5.6855,-5.7526,-5.9089,-5.9281,-6.0646,-6.2751,-6.4345,-6.649,-6.9353,-7.0664,-7.2007,-7.3071,-7.4372,-7.494,-7.4969,-7.5221,-7.5952,-7.6767,-7.1585,0.0,-7.1652,0.0,-7.1689,-7.1854,-7.2283,-7.101,-7.0054,-6.9888,-6.7505,-6.6067,-6.6311,-6.6485,-6.6753,-6.6999,-6.6999,-6.6999,-6.6999,-6.6999,-6.6999,-6.6999,-6.6999,0.0,-6.5353,-6.5592,-6.5263,-6.4306,-6.5054,0.0,-6.3588,-6.3857,-6.4218,0.0,-6.4308,-6.4006,-6.3784,-6.4451,-6.4814,-6.5112,-6.6593,-6.7463,-6.7957,-6.8596,-6.8828,-6.8828,-6.8828,-6.8828,-6.8828,-6.8828,-6.8828,-6.8828,-6.8828,-6.8828,-6.8828,-6.8828,-6.8828,-6.8828,-6.8828,-6.8828,-6.8828,-6.8828,-6.8828,-6.8828,-6.8828,-6.7812,-6.6767,-6.6389,-6.431,-6.2837,-6.3786,-6.3823,-6.363,-6.3715,0.0,0.0,0.0,-5.9019,0.0,-5.8467,-5.8172,-5.7395,-5.6277,0.0,0.0,0.0,0.0,0.0,0.0,0.0,0.0,0.0,0.0,0.0,0.0,-5.5551,-5.5145,-5.6251,-5.6925,-5.8306,-6.0179,-6.0965,-6.2795,-6.5327,-6.7174,-6.9267,-7.1338,-7.1847,-7.283,-7.4097,-7.4912,-7.5221,-7.5278,-7.5615,-7.6317,-7.702,-7.2707,-7.2676,-7.2546,-7.2019,-7.2018,-7.225,-7.2978,-7.1099,-6.9778,-7.0504,-6.8444,-6.6969,-6.6969,-6.6999,-6.6999,-6.6999,-6.6999,-6.6999,-6.6999,-6.6999,-6.6999,0.0,0.0,-6.667,-6.6011,-6.5383,-6.5024,-6.5024,0.0,0.0,-6.0146,-5.9488,-6.1283,-6.4994,-6.4011,-6.3832,-6.418,-6.5044,-6.5348,-6.5141,-6.7086,-6.787,-6.7957,-6.8596,-6.8828,-6.8828,-6.8828,-6.8828,-6.8828,-6.8828,-6.8828,-6.8828,-6.8828,-6.8828,-6.8828,-6.8828,-6.8828,-6.8828,-6.8828,-6.8828,-6.8828,-6.8828,-6.8828,-6.8828,-6.8828,-6.7812,-6.6535,-6.5257,-6.4502,-6.4038,-6.4038,-6.3545,-6.3748,-6.5606,0.0,0.0,-6.5174,-6.1658,-6.0055,-6.4051,-6.5862,-6.4906,-6.0483,0.0,0.0,0.0,0.0,0.0,0.0,0.0,0.0,-5.8101,-5.7372,0.0,-5.7926,-5.5771,-5.5145,-5.6251,-5.7285,-5.9267,-6.1893,-6.4781,-6.6442,-6.7017,-6.9561,-7.0795,-7.1499,-7.3174,-7.4013,-7.4154,-7.539,-7.5896,-7.6036,-7.7216,-7.7666,-7.7666,-7.2283,-7.225,-7.2349,-7.2713,-7.2746,-7.3011,-7.3707,-7.3164,-7.2469,-7.1918,-7.0897,-6.9828,-6.9059,-6.7728,-6.6999,0.0,-6.6999,-6.6999,0.0,-6.6999,-6.6999,-6.6999,-6.6999,-6.67,-6.6011,-6.5802,-6.5473,-6.5024,0.0,0.0,0.0,-6.4784,-6.4904,-6.5682,-6.5353,-6.5288,-6.5418,-6.5706,-6.6265,-6.7028,-6.7903,-6.8398,-6.8538,-6.901,-6.8963,-6.8828,-6.8828,-6.8828,-6.8828,-6.8828,-6.8828,-6.8828,-6.8828,-6.8828,-6.8828,-6.8828,-6.8828,-6.8828,-6.8828,-6.8828,-6.8828,-6.8828,-6.8828,-6.8828,-6.8828,-6.7812,-6.6651,-6.5809,-6.5141,-6.4677,-6.4677,-6.4532,-6.459,-6.5199,-6.2932,-6.1594,-6.2932,-5.9995,-5.8254,-5.9269,-5.9019,-5.8543,0.0,-5.9514,0.0,0.0,0.0,0.0,0.0,0.0,0.0,0.0,-5.6626,0.0,-5.8505,-5.7874,-5.745,-5.7309,-6.068,-6.2992,-6.4213,-6.6713,-6.8194,-6.8943,-7.1199,-7.2617,-7.3174,-7.3701,-7.4266,-7.4716,-7.5559,-7.6149,-7.657,-7.6964,-7.7357,-7.7638,-7.3177,-7.3243,-7.3442,-7.4204,-7.4303,-7.4469,-7.49,-7.4658,-7.4104,-7.3296,-7.2556,-7.1792,-7.1011,-6.9931,0.0,-6.7871,-6.7747,-6.7747,-6.7747,-6.7747,-6.7747,-6.7747,-6.7747,-6.7448,-6.6759,-6.649,0.0,-6.5413,-6.5981,-6.646,-6.6849,-6.643,-6.6161,-6.6011,-6.6251,-6.6362,-6.6391,-6.6892,-6.7419,-6.7899,-6.8398,-6.8585,-6.8828,-6.9098,-6.8963,-6.8828,-6.8828,-6.8828,-6.8828,-6.8828,-6.8828,-6.8828,-6.8828,-6.8828,-6.8828,-6.8828,-6.8828,-6.8828,-6.8828,-6.8828,-6.8828,-6.8828,-6.8828,-6.877,-6.8509,-6.7638,-6.6709,-6.607,-6.5431,-6.4996,-6.4996,-6.4996,-6.4996,-6.4996,-6.3407,-6.2127,-6.1902,-5.9155,-5.7651,-5.8701,-5.8156,0.0,0.0,-5.902,-5.9798,0.0,0.0,0.0,0.0,0.0,0.0,-5.8701,-5.5456,0.0,-5.8756,-5.8756,-5.9282,-6.0114,-6.3857,-6.5838,-6.6236,-6.8807,-7.0181,-7.0749,-7.2594,-7.3676,-7.4013,-7.4013,-7.4378,-7.4997,-7.5643,-7.6289,-7.6851,-7.7048,-7.7385,-7.7638,-7.5198,-7.5363,-7.5562,0.0,-7.6324,0.0,-7.6324,-7.5415,-7.4767,-7.4767,-7.374,-7.2978,-7.2978,-7.301,-7.1995,-6.9597,0.0,0.0,0.0,-6.9004,-6.9004,-6.9004,-6.9004,-6.8704,-6.8046,-6.7448,-6.6819,-6.6221,-6.5592,-6.5293,-6.5293,-6.5293,-6.5622,-6.6251,-6.6849,-6.7106,-6.7128,-6.8366,-6.8562,-6.7986,-6.8596,-6.8828,-6.8828,-6.8828,-6.8828,-6.8828,-6.8828,-6.8828,-6.8828,-6.8828,-6.8828,-6.8828,-6.8828,-6.8828,-6.8828,-6.8828,-6.8828,-6.8828,-6.8828,-6.8828,-6.8828,-6.8828,-6.8828,-6.8683,-6.8073,-6.7405,-6.6709,-6.6128,-6.546,-6.4996,-6.4996,-6.4996,-6.4996,-6.4996,-6.3749,-6.2445,-6.1725,-5.8936,-5.8068,-6.1238,0.0,0.0,0.0,-6.1197,-6.0082,0.0,0.0,0.0,0.0,0.0,-5.9737,-5.4896,-5.4183,-5.5575,-5.8908,-5.9034,-6.0788,-6.4133,-6.663,-6.781,-6.8198,-7.0991,-7.2215,-7.2327,-7.3507,-7.4013,-7.4013,-7.4069,-7.4435,-7.5081,-7.5727,-7.6345,-7.6935,-7.7497,-7.7694,-7.7694,0.0,0.0,-7.6125,-7.6291,-7.6324,-7.6324,-7.6324,-7.6082,-7.5872,-7.5872,-7.5299,-7.4815,-7.4815,-7.4499,-7.3997,-7.3401,-7.1535,-7.0036,-6.913,-6.9004,-6.9004,-6.9004,-6.9004,-6.8914,-6.8764,-6.8615,-6.8465,-6.8286,-6.8136,-6.8046,-6.8046,-6.8046,-6.8136,-6.8286,-6.8465,-6.8504,-6.8454,-6.8779,-6.8796,-6.8625,-6.901,-6.9098,-6.8828,-6.9068,-6.9098,-6.8828,-6.8828,-6.8828,-6.8828,-6.8828,-6.8828,-6.8828,-6.8828,-6.8828,-6.8828,-6.8828,-6.8828,-6.8828,-6.8828,-6.8828,-6.8828,-6.8828,-6.8828,-6.877,-6.8625,-6.7696,-6.6825,-6.668,-6.578,-6.4996,-6.4996,-6.4996,-6.4996,-6.4996,-6.2802,-6.0975,-6.0484,-5.79,-5.6561,0.0,-5.8697,-5.9101,-5.9929,-5.9373,-5.9485,0.0,0.0,0.0,0.0,-5.9805,-5.9179,-5.5928,-5.5661,-5.7161,-6.0509,-6.1806,-6.4638,-6.8761,-6.8132,-6.8667,-7.0405,-7.167,-7.244,-7.2917,-7.3704,-7.4013,-7.4069,-7.4519,-7.5081,-7.5727,-7.6373,-7.6964,-7.7497,-7.7638,-7.7694,-7.7694,-7.6755,-7.6821,-7.692,-7.7252,-7.7318,-7.7318,-7.7318,-7.7318,-7.7318,-7.7318,-7.7082,-7.6845,-7.6845,-7.6618,-7.6249,-7.5675,-7.3214,-7.1507,-7.0823,-7.0224,-6.9871,-6.9871,-6.9871,-6.9752,-6.9453,-6.9453,-6.9303,-6.9004,-6.9004,-6.9004,-6.9004,-6.9004,-6.9153,-6.9453,-6.9295,-6.9268,-6.9339,-6.9207,-6.9015,-6.8828,-6.8963,-6.8963,-6.8828,-6.8963,-6.8963,-6.8828,-6.8828,-6.8828,-6.8828,-6.8828,-6.8828,-6.8828,-6.8828,-6.8828,-6.8828,-6.8828,-6.8828,-6.8828,-6.8828,-6.8828,-6.8828,-6.8828,-6.8828,-6.8828,-6.8828,-6.8044,-6.726,-6.6941,-6.6099,-6.5344,-6.5025,-6.4996,-6.4996,-6.4996,-6.3066,-6.1436,-6.1138,-5.8366,-5.7004,-5.8817,-5.892,-5.898,-5.9399,-5.9301,-5.9156,-5.8959,-5.7722,0.0,-5.7017,-5.8146,-5.8213,-5.7422,-5.7725,-5.9868,-6.3724,-6.5705,-6.7914,-7.0304,-6.9354,-6.9687,-7.1231,-7.1878,-7.2524,-7.3142,-7.376,-7.4013,-7.4069,-7.4688,-7.5334,-7.5952,-7.657,-7.716,-7.7694,-7.7694,-7.7694,-7.7694,-7.745,-7.7583,-7.7782,-7.8411,-7.8511,-7.8511,-7.8511,-7.8511,-7.8511,-7.8511,-7.8511,-7.8511,-7.8511,-7.8511,-7.8046,-7.6958,-7.4707,-7.3169,-7.2829,-7.1728,-7.1148,-7.0919,-7.0889,-7.0649,-7.0141,-7.0111,-6.9842,-6.9303,-6.9303,-6.9303,-6.9303,-6.9303,-6.9572,-7.0111,-6.9824,-6.9732,-6.9869,-6.947,-6.9203,-6.8828,-6.8828,-6.8828,-6.8828,-6.8828,-6.8828,-6.8828,-6.8828,-6.8828,-6.8828,-6.8828,-6.8828,-6.8828,-6.8828,-6.8828,-6.8828,-6.8828,-6.8828,-6.8828,-6.8828,-6.8828,-6.8828,-6.8828,-6.8828,-6.8828,-6.8828,-6.8334,-6.7696,-6.7028,-6.6389,-6.5751,-6.5112,-6.4996,-6.5083,-6.5373,-6.3789,-6.2459,-6.266,-5.9562,-5.8197,-6.0815,-6.1027,-6.0467,-5.9516,-6.0599,-5.9711,-5.5734,-5.5154,-5.4889,-5.4912,-5.6477,-5.8149,-5.9717,-6.0302,-6.2683,-6.7024,-6.9253,-7.0304,-7.0304,-7.0304,-7.0669,-7.1372,-7.1934,-7.258,-7.3254,-7.3788,-7.4069,-7.421,-7.4828,-7.5446,-7.6092,-7.6711,-7.7245,-7.7694,-7.7694,-7.7694,-7.7694,-7.8345,-7.8345,-7.8378,-7.8511,-7.8511,-7.8511,-7.8511,-7.8511,-7.8511,-7.8511,-7.8511,-7.8511,-7.8511,-7.8511,-7.8403,-7.8155,-7.6846,-7.5061,-7.2922,-7.258,-7.1982,-7.0889,-7.0889,-7.0859,-7.0769,-7.0769,-7.0709,-7.062,-7.062,-7.062,-7.062,-7.062,-7.0649,-7.0769,-7.0769,-7.0409,-6.9869,-6.9869,-6.947,-6.8828,-6.8828,-6.8828,-6.8828,-6.8828,-6.8828,-6.8828,-6.8828,-6.8828,-6.8828,-6.8828,-6.8828,-6.8828,-6.8828,-6.8828,-6.8828,-6.8828,-6.8828,-6.8828,-6.8828,-6.8828,-6.8828,-6.8828,-6.8828,-6.8828,-6.8828,-6.8334,-6.7696,-6.7028,-6.6389,-6.5751,-6.5112,-6.4996,-6.5519,-6.7173,-6.3516,-6.1384,-6.3944,-6.0419,-5.8963,-6.2606,-6.3317,-6.346,-6.2892,-6.297,-6.2096,-5.9448,-5.7643,-5.7597,-5.9824,-6.0172,-6.1511,-6.421,-6.2941,-6.3963,-6.7648,-6.9476,-7.0304,-7.0304,-7.0304,-7.0922,-7.2046,-7.2131,-7.2805,-7.3901,-7.3985,-7.4322,-7.4856,-7.5474,-7.6121,-7.6739,-7.7329,-7.761,-7.7694,-7.7694,-7.7694,-7.7694,-7.8511,-7.8511,-7.8511,-7.8511,-7.8511,-7.8511,-7.8511,-7.8511,-7.8511,-7.8511,-7.8511,-7.8511,-7.8511,-7.8511,-7.8511,-7.8511,-7.7938,-7.6846,-7.4944,-7.4231,-7.3292,-7.1982,-7.1982,-7.1631,-7.0889,-7.0889,-7.0889,-7.0889,-7.0889,-7.0889,-7.0889,-7.0889,-7.0889,-7.0889,-7.0658,-7.0528,-7.0134,-6.9737,-6.9337,-6.9098,-6.8828,-6.8828,-6.8828,-6.8828,-6.8828,-6.8828,-6.8828,-6.8828,-6.8828,-6.8828,-6.8828,-6.8828,-6.8828,-6.8828,-6.8828,-6.8828,-6.8828,-6.8828,-6.8828,-6.8828,-6.8828,-6.8828,-6.8828,-6.8828,-6.8828,-6.8596,-6.8189,-6.7551,-6.6912,-6.6244,-6.5606,-6.5228,-6.5286,-6.6186,-6.2771,-6.111,-6.4295,-6.0572,-5.9617,-6.4956,-6.4083,-6.3266,-6.4009,-6.3724,-6.2535,-6.0418,-5.911,-5.9307,-6.1424,-6.1258,-6.2497,-6.5706,-6.6386,-6.7572,-6.9204,-6.983,-7.0304,-7.0304,-7.0641,-7.1288,-7.2187,-7.2524,-7.317,-7.4041,-7.4378,-7.4659,-7.5025,-7.598,-7.657,-7.6879,-7.7441,-7.7694,-7.7694,-7.7694,-7.7694,-7.7694,-7.8511,-7.8511,-7.8511,-7.8511,-7.8511,-7.8511,-7.8511,-7.8511,-7.8511,-7.8511,-7.8511,-7.8511,-7.8511,-7.8511,-7.8511,-7.8511,-7.8511,-7.8046,-7.7102,-7.6135,-7.4826,-7.3292,-7.2922,-7.233,-7.1375,-7.1375,-7.1148,-7.0889,-7.1148,-7.1148,-7.0889,-7.0889,-7.0889,-7.0919,-7.0528,-7.0397,-7.0397,-6.9604,-6.9337,-6.9203,-6.8963,-6.8828,-6.8828,-6.8828,-6.8828,-6.8828,-6.8828,-6.8828,-6.8828,-6.8828,-6.8828,-6.8828,-6.8828,-6.8828,-6.8828,-6.8828,-6.8828,-6.8828,-6.8828,-6.8828,-6.8828,-6.8828,-6.8828,-6.8828,-6.8828,-6.8828,-6.8654,-6.8015,-6.7347,-6.668,-6.6041,-6.5431,-6.5013,-6.503,-6.2359,-6.1466,-6.4533,-6.1414,-6.1133,-6.6787,-6.476,-6.3422,-6.4586,-6.4195,-6.3182,-6.1244,-6.0759,-6.1376,-6.3218,-6.2736,-6.3915,-6.6997,-6.918,-7.0304,-7.0304,-7.0304,-7.0304,-7.0304,-7.0922,-7.1569,-7.2215,-7.2833,-7.3451,-7.4041,-7.4659,-7.5025,-7.525,-7.6373,-7.6907,-7.7076,-7.7497,-7.7694,-7.7694,-7.7694,-7.7694,-7.7694,-7.8511,-7.8511,-7.8511,-7.8511,-7.8511,-7.8511,-7.8511,-7.8511,-7.8511,-7.8511,-7.8511,-7.8511,-7.8511,-7.8511,-7.8511,-7.8511,-7.8511,-7.8403,-7.8403,-7.8296,-7.7102,-7.4707,-7.3415,-7.2829,-7.2705,-7.2705,-7.2109,-7.0889,-7.2109,-7.2109,-7.0889,-7.0889,-7.0889,-7.0919,-7.0528,-7.0397,-7.0397,-6.9604,-6.9337,-6.9203,-6.8963,-6.8828,-6.8828,-6.8828,-6.8828,-6.8828,-6.8828,-6.8828,-6.8828,-6.8828,-6.8828,-6.8828,-6.8828,-6.8828,-6.8828,-6.8828,-6.8828,-6.8828,-6.8828,-6.8828,-6.8828,-6.8828,-6.8828,-6.8828,-6.8828,-6.8828,-6.8654,-6.8015,-6.7347,-6.668,-6.6041,-6.5431,-6.5001,-6.505,-6.3057,-6.237,-6.4686,-6.381,-6.4116,-6.7184,-6.6964,-6.6182,-6.5267,-6.5136,-6.4508,-6.3259,-6.3778,-6.495,-6.7038,-6.6816,-6.7572,-6.9988,-7.0248,-7.0304,-7.0304,-7.0304,-7.0304,-7.0304,-7.0922,-7.1569,-7.2215,-7.2833,-7.3451,-7.4041,-7.4659,-7.5278,-7.5868,-7.6542,-7.7132,-7.761,-7.7666,-7.7694,-7.7694,-7.7694,-7.7694,-7.7694,-7.8511,-7.8511,-7.8511,-7.8511,-7.8511,-7.8511,-7.8511,-7.8511,-7.8511,-7.8511,-7.8511,-7.8511,-7.8511,-7.8511,-7.8511,-7.8511,-7.8511,-7.8511,-7.8511,-7.8511,-7.7687,-7.5906,-7.4707,-7.3991,-7.3991,-7.3169,-7.2922,-7.3292,-7.2922,-7.258,-7.2109,-7.2109,-7.1631,-7.0889,-7.0789,-7.0658,-7.0397,-6.9869,-6.947,-6.9203,-6.8963,-6.8828,-6.8828,-6.8828,-6.8828,-6.8828,-6.8828,-6.8828,-6.8828,-6.8828,-6.8828,-6.8828,-6.8828,-6.8828,-6.8828,-6.8828,-6.8828,-6.8828,-6.8828,-6.8828,-6.8828,-6.8828,-6.8828,-6.8828,-6.8828,-6.8828,-6.8741,-6.8509,-6.7609,-6.6796,-6.6564,-6.6012,-6.5101,-6.3963,-6.3278,-6.3142,-6.4155,-6.4055,-6.506,-6.78,-6.7321,-6.6828,-6.6778,-6.6511,-6.627,-6.619,-6.5708,-6.6631,-6.9062,-6.9068,-6.943,-7.0304,-7.0304,-7.0304,-7.0304,-7.0304,-7.0304,-7.0304,-7.1344,-7.1962,-7.2215,-7.3226,-7.3788,-7.4069,-7.5081,-7.5446,-7.539,-7.6402,-7.6964,-7.7132,-7.7132,-7.7357,-7.7694,-7.7694,-7.7694,-7.7694,-7.8511,-7.8511,-7.8511,-7.8511,-7.8511,-7.8511,-7.8511,-7.8511,-7.8511,-7.8511,-7.8511,-7.8511,-7.8511,-7.8511,-7.8511,-7.8511,-7.8312,-7.8179,-7.8179,-7.8179,-7.7924,-7.7213,-7.6021,-7.5295,-7.5295,-7.447,-7.4231,-7.4707,-7.4231,-7.3537,-7.2798,-7.2798,-7.2109,-7.0919,-7.0759,-7.0658,-7.0397,-6.9869,-6.9604,-6.9203,-6.8963,-6.8828,-6.8828,-6.8828,-6.8828,-6.8828,-6.8828,-6.8828,-6.8828,-6.8828,-6.8828,-6.8828,-6.8828,-6.8828,-6.8828,-6.8828,-6.8828,-6.8828,-6.8828,-6.8828,-6.8828,-6.8828,-6.8828,-6.8828,-6.8828,-6.8828,-6.8828,-6.8828,-6.8102,-6.7492,-6.7492,-6.7012,-6.5974,-6.4106,-6.4221,-6.461,-6.4341,-6.4971,-6.6374,-6.8473,-6.791,-6.7349,-6.7756,-6.7431,-6.7295,-6.7512,-6.7394,-6.8318,-7.0248,-7.0304,-7.0304,-7.0304,-7.0304,-7.0304,-7.0304,-7.0304,-7.0304,-7.0332,-7.1597,-7.2187,-7.2243,-7.3451,-7.4013,-7.4097,-7.5362,-7.5531,-7.5053,-7.6486,-7.6992,-7.6851,-7.702,-7.7329,-7.7694,-7.7694,-7.7694,-7.7694,-7.8511,-7.8511,-7.8511,-7.8511,-7.8511,-7.8511,-7.8511,-7.8511,-7.8511,-7.8511,-7.8511,-7.8511,-7.8511,-7.8511,-7.8511,-7.8511,-7.7848,-7.7417,-7.7417,-7.7417,-7.7749,-7.8477,-7.7324,-7.6621,-7.6621,-7.6621,-7.6021,-7.4707,-7.6021,-7.5295,-7.2798,-7.2798,-7.2078,-7.0889,-7.0498,-7.0397,-7.0397,-6.9604,-6.9337,-6.9203,-6.8963,-6.8828,-6.8828,-6.8828,-6.8828,-6.8828,-6.8828,-6.8828,-6.8828,-6.8828,-6.8828,-6.8828,-6.8828,-6.8828,-6.8828,-6.8828,-6.8828,-6.8828,-6.8828,-6.8828,-6.8828,-6.8828,-6.8828,-6.8828,-6.8828,-6.8828,-6.8828,-6.8828,-6.8828,-6.8828,-6.8828,-6.8421,-6.7541,-6.5751,-6.6398,-6.6679,-6.5509,-6.7162,-6.8702,-6.9321,-6.8517,-6.7783,-6.7783,-6.7783,-6.7539,-6.6969,-6.9021,-7.0304,-7.0304,-7.0304,-7.0304,-7.0304,-7.0304,-7.0304,-7.0304,-7.0304,-7.0304,-7.0332,-7.1597,-7.2187,-7.2243,-7.3451,-7.4013,-7.4097,-7.5362,-7.5531,-7.5081,-7.6907,-7.7329,-7.6879,-7.7441,-7.7694,-7.7694,-7.7694,-7.7694,-7.7694,-7.8511,-7.8511,-7.8511,-7.8511,-7.8511,-7.8511,-7.8511,-7.8511,-7.8511,-7.8511,-7.8511,-7.8511,-7.8511,-7.8511,-7.8511,-7.8511,-7.7848,-7.7417,-7.7417,-7.7914,-7.8279,-7.8511,-7.8155,-7.7938,-7.7938,-7.7102,-7.6846,-7.7324,-7.6846,-7.6249,-7.5443,-7.5443,-7.4351,-7.2204,-7.1825,-7.1088,-7.0002,-6.947,-6.9203,-6.8963,-6.8828,-6.8828,-6.8828,-6.8828,-6.8828,-6.8828,-6.8828,-6.8828,-6.8828,-6.8828,-6.8828,-6.8828,-6.8828,-6.8828,-6.8828,-6.8828,-6.8828,-6.8828,-6.8828,-6.9147,-6.9379,-6.8944,-6.8828,-6.8828,-6.8828,-6.8828,-6.8944,-6.9408,-6.9147,-6.8837,-6.8969,-6.8,-6.6817,-6.5816,-6.6201,-6.6414,-6.5869,-6.78,-6.918,-6.9377,-6.9467,-6.9532,-6.9532,-6.9142,-6.8975,-6.9226,-6.9895,-7.0304,-7.0304,-7.0304,-7.0304,-7.0304,-7.0304,-7.0304,-7.0304,-7.0304,-7.0529,-7.095,-7.1793,-7.2411,-7.2861,-7.3648,-7.4013,-7.4097,-7.5362,-7.5531,-7.5053,-7.6486,-7.6964,-7.6851,-7.702,-7.7329,-7.7694,-7.7694,-7.7694,-7.7694,-7.8511,-7.8511,-7.8511,-7.8511,-7.8511,-7.8511,-7.8511,-7.8511,-7.8511,-7.8511,-7.8511,-7.8511,-7.8511,-7.8511,-7.8411,-7.8113,-7.7152,-7.6689,-7.6954,-7.7384,-7.7914,-7.8477,-7.8511,-7.8511,-7.8511,-7.7796,-7.7687,-7.8511,-7.7687,-7.7102,-7.6621,-7.6621,-7.5178,-7.255,-7.2425,-7.1315,-6.9604,-6.9337,-6.9098,-6.8828,-6.8828,-6.8828,-6.8828,-6.8828,-6.8828,-6.8828,-6.8828,-6.8828,-6.8828,-6.8828,-6.8828,-6.8828,-6.8828,-6.8828,-6.8828,-6.8828,-6.9002,-6.9205,-6.9205,-6.967,-7.0047,-6.967,-6.9379,-6.9205,-6.9205,-6.9205,-6.9379,-7.0018,-6.9909,-6.9494,-6.9109,-6.8049,-6.7166,-6.6899,-6.6903,-6.7149,-6.7651,-6.8901,-6.977,-6.977,-7.0079,-7.0304,-7.0304,-6.9967,-6.9911,-7.0276,-7.0304,-7.0304,-7.0304,-7.0304,-7.0304,-7.0304,-7.0304,-7.0304,-7.0304,-7.0304,-7.0613,-7.1231,-7.1878,-7.2524,-7.3114,-7.3732,-7.4013,-7.4097,-7.5362,-7.539,-7.4688,-7.6205,-7.6514,-7.6121,-7.6626,-7.702,-7.7357,-7.761,-7.7554,-7.7385,-7.8511,-7.8511,-7.8511,-7.8511,-7.8511,-7.8511,-7.8511,-7.8511,-7.8511,-7.8511,-7.8511,-7.8511,-7.8511,-7.8444,-7.8146,-7.7484,-7.6225,-7.5695,-7.6258,-7.6424,-7.7119,-7.8444,-7.8511,-7.8511,-7.8511,-7.8511,-7.8511,-7.8511,-7.8511,-7.7938,-7.6734,-7.6734,-7.5295,-7.2674,-7.255,-7.1315,-6.947,-6.9337,-6.9098,-6.8828,-6.8828,-6.8828,-6.8828,-6.8828,-6.8828,-6.8828,-6.8828,-6.8828,-6.8828,-6.8828,-6.8828,-6.8828,-6.8828,-6.8828,-6.8828,-6.8828,-6.9263,-6.9786,-6.9786,-7.0279,-7.0802,-7.0744,-7.0337,-6.9931,-6.9873,-6.9873,-7.0047,-7.0686,-7.0986,-7.065,-6.8972,-6.8434,-6.8241,-6.8393,-6.7936,-6.8269,-7.0007,-7.0304,-7.0304,-7.0304,-7.0304,-7.0304,-7.0304,-7.0304,-7.0304,-7.0304,-7.0304,-7.0304,-7.0304,-7.0304,-7.0304,-7.0304,-7.0304,-7.0304,-7.0304,-7.036,-7.0697,-7.1316,-7.1906,-7.2524,-7.3198,-7.376,-7.4013,-7.4097,-7.5362,-7.5221,-7.4238,-7.6121,-7.6205,-7.5221,-7.643,-7.6907,-7.6964,-7.7441,-7.7273,-7.6907,-7.8511,-7.8511,-7.8511,-7.8511,-7.8511,-7.8511,-7.8511,-7.8511,-7.8511,-7.8511,-7.8511,-7.8511,-7.8511,-7.8014,-7.7583,-7.7417,-7.7119,-7.6755,-7.6324,-7.7384,-7.8179,-7.8511,-7.8511,-7.8511,-7.8511,-7.8511,-7.8511,-7.8511,-7.8511,-7.8403,-7.8046,-7.8046,-7.7102,-7.5359,-7.3959,-7.2488,-7.0829,-6.9441,-6.8828,-6.8828,-6.8828,-6.8828,-6.8828,-6.8828,-6.8828,-6.8828,-6.8828,-6.8828,-6.8828,-6.8828,-6.8828,-6.8828,-6.8828,-6.8828,-6.8828,-6.8828,-6.9263,-6.9786,-6.9786,-7.0599,-7.1353,-7.0831,-7.1005,-7.1121,-7.0628,-7.0512,-7.0686,-7.1324,-7.1304,-7.065,-6.9087,-6.744,-6.6778,-6.7783,-6.6677,-6.6832,-6.983,-7.0304,-7.0304,-7.0304,-7.0304,-7.0304,-7.0304,-7.0304,-7.0304,-7.0304,-7.0304,-7.0304,-7.0304,-7.0304,-7.0304,-7.0304,-7.0304,-7.0304,-7.0304,-7.0782,-7.1344,-7.199,-7.2131,-7.2749,-7.3816,-7.3957,-7.4013,-7.4097,-7.5362,-7.5446,-7.4884,-7.6739,-7.7048,-7.6486,-7.7216,-7.7497,-7.7441,-7.7132,-7.6935,-7.6851,-7.8511,-7.8511,-7.8511,-7.8511,-7.8511,-7.8511,-7.8511,-7.8511,-7.8511,-7.8511,-7.8511,-7.8511,-7.8511,-7.7848,-7.7285,-7.692,-7.6589,-7.6523,-7.6821,-7.755,-7.8146,-7.8511,-7.8511,-7.8511,-7.8511,-7.8511,-7.8511,-7.8511,-7.8511,-7.8403,-7.8296,-7.8296,-7.7356,-7.5707,-7.4826,-7.323,-7.1058,-7.0177,-6.9441,-6.8828,-6.8828,-6.8828,-6.8828,-6.8828,-6.8828,-6.8828,-6.8828,-6.8828,-6.8828,-6.8828,-6.8828,-6.8886,-6.9176,-6.9292,-6.935,-6.9641,-7.0192,-7.0686,-7.0686,-7.1382,-7.205,-7.1702,-7.1876,-7.1963,-7.1324,-7.1179,-7.1353,-7.1992,-7.171,-7.0615,-6.8229,-6.7215,-6.665,-6.6521,-6.6521,-6.7295,-6.9979,-7.0304,-7.0304,-7.0304,-7.0304,-7.0304,-7.0304,-7.0304,-7.0304,-7.0304,-7.0304,-7.0304,-7.0304,-7.0304,-7.0304,-7.0304,-7.0304,-7.0304,-7.0304,-7.0922,-7.154,-7.2187,-7.2496,-7.3114,-7.4013,-7.4013,-7.4182,-7.4519,-7.5474,-7.5699,-7.5502,-7.6739,-7.6907,-7.643,-7.7048,-7.7076,-7.6823,-7.6823,-7.6626,-7.6373,-7.8511,-7.8511,-7.8511,-7.8511,-7.8511,-7.8511,-7.8511,-7.8511,-7.8511,-7.8511,-7.8511,-7.8477,-7.8345,-7.755,-7.6755,-7.6026,-7.5628,-7.596,-7.7152,-7.745,-7.7881,-7.8477,-7.8511,-7.8511,-7.8511,-7.8511,-7.8511,-7.8511,-7.8511,-7.8403,-7.8079,-7.8079,-7.7213,-7.556,-7.5061,-7.3475,-7.1186,-7.0669,-6.981,-6.8828,-6.8828,-6.8828,-6.8828,-6.8828,-6.8828,-6.8828,-6.8828,-6.8828,-6.8828,-6.8828,-6.8886,-6.906,-6.9466,-6.9757,-7.0018,-7.0424,-7.1092,-7.1673,-7.1673,-7.2137,-7.2602,-7.2602,-7.2602,-7.2485,-7.1963,-7.1818,-7.1992,-7.2515,-7.174,-7.0072,-6.7034,-6.6933,-6.6832,-6.5398,-6.6677,-6.8421,-7.0007,-7.0304,-7.0304,-7.0304,-7.0304,-7.0304,-7.0304,-7.0304,-7.0304,-7.0304,-7.0304,-7.0304,-7.0304,-7.0304,-7.0304,-7.0304,-7.0304,-7.036,-7.0445,-7.1063,-7.1709,-7.2355,-7.2973,-7.3535,-7.4013,-7.4013,-7.435,-7.4969,-7.5615,-7.5896,-7.5952,-7.6683,-7.6542,-7.5952,-7.657,-7.643,-7.5952,-7.6345,-7.6177,-7.5755,-7.8511,-7.8511,-7.8511,-7.8511,-7.8511,-7.8511,-7.8511,-7.8511,-7.8511,-7.8511,-7.8511,-7.8279,-7.7649,-7.6357,-7.5264,-7.4535,-7.5496,-7.6258,-7.6457,-7.7649,-7.8411,-7.8511,-7.8511,-7.8511,-7.8511,-7.8511,-7.8511,-7.8511,-7.8511,-7.8403,-7.8079,-7.8079,-7.7719,-7.6831,-7.447,-7.3138,-7.2425,-7.0075,-6.8934,-6.8828,-6.8828,-6.8828,-6.8828,-6.8828,-6.8828,-6.8828,-6.8828,-6.8828,-6.8828,-6.8828,-6.9205,-6.9554,-6.9089,-6.9699,-7.0512,-7.0047,-7.0744,-7.1673,-7.1673,-7.2137,-7.2602,-7.2602,-7.2602,-7.2602,-7.2515,-7.2485,-7.2515,-7.2602,-7.0781,-6.8586,-6.6698,-6.5974,-6.5398,-6.524,-6.6677,-6.8421,-7.0007,-7.0304,-7.0304,-7.0304,-7.0304,-7.0304,-7.0304,-7.0304,-7.0304,-7.0304,-7.0304,-7.0304,-7.0304,-7.0304,-7.0304,-7.0304,-7.0304,-7.0557,-7.1091,-7.1737,-7.2355,-7.3002,-7.3592,-7.3929,-7.4013,-7.4013,-7.435,-7.4969,-7.5615,-7.5896,-7.598,-7.7104,-7.6907,-7.5952,-7.657,-7.643,-7.584,-7.5362,-7.5137,-7.5137,-7.8444,-7.8511,-7.8511,-7.8511,-7.8511,-7.8511,-7.8511,-7.8511,-7.8511,-7.8511,-7.8511,-7.8246,-7.7484,-7.6125,-7.5132,-7.48,-7.5728,-7.649,-7.6887,-7.7914,-7.8511,-7.8511,-7.8511,-7.8511,-7.8511,-7.8511,-7.8511,-7.8511,-7.8296,-7.8079,-7.7829,-7.7642,-7.7422,-7.6896,-7.5771,-7.4262,-7.2674,-7.1571,-7.0206,-6.8828,-6.8828,-6.8828,-6.8828,-6.8828,-6.8828,-6.8828,-6.8828,-6.8828,-6.8828,-6.8828,-6.9002,-6.9321,-6.9757,-7.0279,-7.0802,-7.1237,-7.176,-7.2195,-7.2195,-7.2398,-7.2602,-7.2602,-7.2602,-7.2602,-7.2602,-7.2488,-7.2345,-7.2345,-7.0459,-6.8284,-6.6415,-6.6312,-6.6366,-6.5398,-6.7449,-6.9504,-7.0156,-7.0304,-7.0304,-7.0304,-7.0304,-7.0304,-7.0304,-7.0304,-7.0304,-7.0304,-7.0304,-7.0304,-7.0304,-7.0304,-7.0304,-7.0304,-7.0304,-7.0613,-7.1203,-7.185,-7.2496,-7.3114,-7.3732,-7.4013,-7.4013,-7.4013,-7.4547,-7.5502,-7.5783,-7.6289,-7.6935,-7.7469,-7.7188,-7.643,-7.6711,-7.6233,-7.5278,-7.4659,-7.4631,-7.5025]}]]